[[{"header":{"parameterUnit":"m.s-1","parameterCategory":1,"la1":31.0,"la2":29.5877,"lo1":-88.7671,"lo2":-86.6584,"dy":0.0162,"dx":0.0185,"nx":115,"ny":88,"refTime":"2026-02-19T00:00:00:Z","depth":0,"parameterNumber":2,"parameterNumberName":"U-component_of_WINDS"},"data":[0.0,0.0,0.0,0.0,0.0,0.0,0.0,0.0,0.0,0.0,0.0,0.0,0.0,0.0,0.0,0.0,0.0,0.0,0.0,0.0,0.0,0.0,0.0,0.0,0.0,0.0,0.0,0.0,0.0,0.0,0.0,0.0,0.0,0.0,0.0,0.0,0.0,0.0,0.0,0.0,0.0,0.0,0.0,0.0,0.0,0.0,0.0,0.0,0.0,0.0,0.0,0.0,0.0,0.0,0.0,0.0,0.0,0.0,0.0,0.0,0.0,0.0,0.0,0.0,0.0,0.0,0.0,0.0,0.0,0.0,0.0,0.0,0.0,0.0,0.0,0.0,0.0,0.0,0.0,0.0,0.0,0.0,0.0,0.0,0.0,0.0,0.0,0.0,0.0,0.0,0.0,0.0,0.0,0.0,0.0,0.0,0.0,0.0,0.0,0.0,0.0,0.0,0.0,0.0,0.0,0.0,0.0,0.0,0.0,0.0,0.0,0.0,0.0,0.0,0.0,0.0,0.0,0.0,0.0,0.0,0.0,0.0,0.0,0.0,0.0,0.0,0.0,0.0,0.0,0.0,0.0,0.0,0.0,0.0,0.0,0.0,0.0,0.0,0.0,0.0,0.0,0.0,0.0,0.0,0.0,0.0,0.0,0.0,0.0,0.0,0.0,0.0,0.0,0.0,0.0,0.0,0.0,0.0,0.0,0.0,0.0,0.0,0.0,0.0,0.0,0.0,0.0,0.0,0.0,0.0,0.0,0.0,0.0,0.0,0.0,0.0,0.0,0.0,0.0,0.0,0.0,0.0,0.0,0.0,0.0,0.0,0.0,0.0,0.0,0.0,0.0,0.0,0.0,0.0,0.0,0.0,0.0,0.0,0.0,0.0,0.0,0.0,0.0,0.0,0.0,0.0,0.0,0.0,0.0,0.0,0.0,0.0,0.0,0.0,0.0,0.0,0.0,0.0,0.0,0.0,0.0,0.0,0.0,0.0,0.0,0.0,0.0,0.0,0.0,0.0,0.0,0.0,0.0,0.0,0.0,0.0,0.0,0.0,0.0,0.0,0.0,0.0,0.0,0.0,0.0,0.0,0.0,0.0,0.0,0.0,0.0,0.0,0.0,0.0,0.0,0.0,0.0,0.0,0.0,0.0,0.0,0.0,0.0,0.0,0.0,0.0,0.0,0.0,0.0,0.0,0.0,0.0,0.0,0.0,0.0,0.0,0.0,0.0,0.0,0.0,0.0,0.0,0.0,0.0,0.0,0.0,0.0,0.0,0.0,0.0,0.0,0.0,0.0,0.0,0.0,0.0,0.0,0.0,0.0,0.0,0.0,0.0,0.0,0.0,0.0,0.0,0.0,0.0,0.0,0.0,0.0,0.0,0.0,0.0,0.0,0.0,0.0,0.0,0.0,0.0,0.0,0.0,0.0,0.0,0.0,0.0,0.0,0.0,0.0,0.0,0.0,0.0,0.0,0.0,0.0,0.0,0.0,0.0,0.0,0.0,0.0,0.0,0.0,0.0,0.0,0.0,0.0,0.0,0.0,0.0,0.0,0.0,0.0,0.0,0.0,0.0,0.0,0.0,0.0,0.0,0.0,0.0,0.0,0.0,0.0,0.0,0.0,0.0,0.0,0.0,0.0,0.0,0.0,0.0,0.0,0.0,0.0,0.0,0.0,0.0,0.0,0.0,0.0,0.0,0.0,0.0,0.0,0.0,0.0,0.0,0.0,0.0,0.0,0.0,0.0,0.0,0.0,0.0,0.0,0.0,0.0,0.0,0.0,0.0,0.0,0.0,0.0,0.0,0.0,0.0,0.0,0.0,0.0,0.0,0.0,0.0,0.0,0.0,0.0,0.0,0.0,0.0,0.0,0.0,0.0,0.0,0.0,0.0,0.0,0.0,0.0,0.0,0.0,0.0,0.0,0.0,0.0,0.0,0.0,0.0,0.0,0.0,0.0,0.0,0.0,0.0,0.0,0.0,0.0,0.0,0.0,0.0,0.0,0.0,0.0,0.0,0.0,0.0,0.0,0.0,0.0,0.0,0.0,0.0,0.0,0.0,0.0,0.0,0.0,0.0,0.0,0.0,0.0,0.0,0.0,0.0,0.0,0.0,0.0,0.0,0.0,0.0,0.0,0.0,0.0,0.0,0.0,0.0,0.0,0.0,0.0,0.0,0.0,0.0,0.0,0.0,0.0,0.0,0.0,0.0,0.0,0.0,0.0,0.0,0.0,0.0,0.0,0.0,0.0,0.0,0.0,0.0,0.0,0.0,0.0,0.0,0.0,0.0,0.0,0.0,0.0,0.0,0.0,0.0,0.0,0.0,0.0,0.0,0.0,0.0,0.0,0.0,0.0,0.0,0.0,0.0,0.0,0.0,0.0,0.0,0.0,0.0,0.0,0.0,0.0,0.0,0.0,0.0,0.0,0.0,0.0,0.0,0.0,0.0,0.0,0.0,0.0,0.0,0.0,0.0,0.0,0.0,0.0,0.0,0.0,0.0,0.0,0.0,0.0,0.0,0.0,0.0,0.0,0.0,0.0,0.0,0.0,0.0,0.0,0.0,0.0,0.0,0.0,0.0,0.0,0.0,0.0,0.0,0.0,0.0,0.0,0.0,0.0,0.0,0.0,0.0,0.0,0.0,0.0,0.0,0.0,0.0,0.0,0.0,0.0,0.0,0.0,0.0,0.0,0.0,0.0,0.0,0.0,0.0,0.0,0.0,0.0,0.0,0.0,0.0,0.0,0.0,0.0,0.0,0.0,0.0,0.0,0.0,0.0,0.0,0.0,0.0,0.0,0.0,0.0,0.0,0.0,0.0,0.0,0.0,0.0,0.0,0.0,0.0,0.0,0.0,0.0,0.0,0.0,0.0,0.0,0.0,0.0,0.0,0.0,0.0,0.0,0.0,0.0,0.0,0.0,0.0,0.0,0.0,0.0,0.0,0.0,0.0,0.0,0.0,0.0,0.0,0.0,0.0,0.0,0.0,0.0,0.0,0.0,0.0,0.0,0.0,0.0,0.0,0.0,0.0,0.0,0.0,0.0,0.0,0.0,0.0,0.0,0.0,0.0,0.0,0.0,0.0,0.0,0.0,0.0,0.0,0.0,0.0,0.0,0.0,0.0,0.0,0.0,0.0,0.0,0.0,0.0,0.0,0.0,0.0,0.0,0.0,0.0,0.0,0.0,0.0,0.0,0.0,0.0,0.0,0.0,0.0,0.0,0.0,0.0,0.0,0.0,0.0,0.0,0.0,0.0,0.0,0.0,0.0,0.0,0.0,0.0,0.0,0.0,0.0,0.0,0.0,0.0,0.0,0.0,0.0,0.0,0.0,0.0,0.0,0.0,0.0,0.0,0.0,0.0,0.0,0.0,0.0,0.0,0.0,0.0,0.0,0.0,0.0,0.0,0.0,0.0,0.0,0.0,0.0,0.0,0.0,0.0,0.0,0.0,0.0,0.0,0.0,0.0,0.0,0.0,0.0,0.0,0.0,0.0,0.0,0.0,0.0,0.0,0.0,0.0,0.0,0.0,0.0,0.0,0.0,0.0,0.0,0.0,0.0,0.0,0.0,0.0,0.0,0.0,0.0,0.0,0.0,0.0,0.0,0.0,0.0,0.0,0.0,0.0,0.0,0.0,0.0,0.0,0.0,0.0,0.0,0.0,0.0,0.0,0.0,0.0,0.0,0.0,0.0,0.0,0.0,0.0,0.0,0.0,0.0,0.0,0.0,0.0,0.0,0.0,0.0,0.0,0.0,0.0,0.0,0.0,0.0,0.0,0.0,0.0,0.0,0.0,0.0,0.0,0.0,0.0,0.0,0.0,0.0,0.0,0.0,0.0,0.0,0.0,0.0,0.0,0.0,0.0,0.0,0.0,0.0,0.0,0.0,0.0,0.0,0.0,0.0,0.0,0.0,0.0,0.0,0.0,0.0,0.0,0.0,0.0,0.0,0.0,0.0,0.0,0.0,0.0,0.0,0.0,0.0,0.0,0.0,0.0,0.0,0.0,0.0,0.0,0.0,0.0,0.0,0.0,0.0,0.0,0.0,0.0,0.0,0.0,0.0,0.0,0.0,0.0,0.0,0.0,0.0,0.0,0.0,0.0,0.0,0.0,0.0,0.0,0.0,0.0,0.0,0.0,0.0,0.0,0.0,0.0,0.0,0.0,0.0,0.0,0.0,0.0,0.0,0.0,0.0,0.0,0.0,0.0,0.0,0.0,0.0,0.0,0.0,0.0,0.0,0.0,0.0,0.0,0.0,0.0,0.0,-4.9691,0.0,0.0,0.0,0.0,0.0,0.0,0.0,0.0,0.0,0.0,0.0,0.0,0.0,0.0,0.0,0.0,0.0,0.0,0.0,0.0,0.0,0.0,0.0,0.0,0.0,0.0,0.0,0.0,0.0,0.0,0.0,0.0,0.0,0.0,0.0,0.0,0.0,0.0,0.0,0.0,0.0,0.0,0.0,0.0,0.0,0.0,0.0,0.0,0.0,0.0,0.0,0.0,0.0,0.0,0.0,0.0,0.0,0.0,0.0,0.0,0.0,0.0,0.0,0.0,0.0,0.0,0.0,0.0,0.0,0.0,0.0,0.0,0.0,0.0,0.0,0.0,0.0,0.0,0.0,0.0,0.0,0.0,0.0,0.0,0.0,0.0,0.0,0.0,0.0,0.0,0.0,0.0,0.0,0.0,0.0,0.0,0.0,0.0,0.0,0.0,0.0,0.0,0.0,0.0,0.0,0.0,0.0,0.0,0.0,0.0,-4.9185,-4.9543,-4.9755,-4.9729,-4.9367,0.0,0.0,0.0,0.0,0.0,0.0,0.0,0.0,0.0,0.0,0.0,0.0,0.0,0.0,0.0,0.0,0.0,0.0,0.0,0.0,0.0,0.0,0.0,0.0,0.0,0.0,0.0,0.0,0.0,0.0,0.0,0.0,0.0,0.0,0.0,0.0,0.0,0.0,0.0,0.0,0.0,0.0,0.0,0.0,0.0,0.0,0.0,0.0,0.0,0.0,0.0,0.0,0.0,0.0,0.0,0.0,0.0,0.0,0.0,0.0,0.0,0.0,0.0,0.0,0.0,0.0,0.0,0.0,0.0,0.0,0.0,0.0,0.0,0.0,0.0,0.0,0.0,0.0,0.0,0.0,0.0,0.0,0.0,0.0,0.0,0.0,0.0,0.0,0.0,0.0,0.0,0.0,0.0,0.0,0.0,0.0,0.0,0.0,0.0,0.0,0.0,0.0,0.0,0.0,0.0,0.0,0.0,0.0,0.0,0.0,0.0,0.0,-5.0017,-4.9688,-4.882,0.0,0.0,0.0,0.0,0.0,0.0,0.0,0.0,0.0,0.0,0.0,0.0,0.0,0.0,0.0,0.0,0.0,0.0,0.0,0.0,0.0,0.0,0.0,0.0,0.0,0.0,0.0,0.0,0.0,0.0,0.0,0.0,0.0,0.0,0.0,0.0,0.0,0.0,0.0,0.0,0.0,0.0,0.0,0.0,0.0,0.0,0.0,0.0,0.0,0.0,0.0,0.0,0.0,0.0,0.0,0.0,0.0,0.0,0.0,0.0,0.0,0.0,0.0,0.0,0.0,0.0,0.0,0.0,0.0,0.0,0.0,0.0,0.0,0.0,0.0,0.0,0.0,0.0,0.0,0.0,0.0,0.0,0.0,0.0,0.0,0.0,0.0,0.0,0.0,0.0,0.0,0.0,0.0,0.0,0.0,0.0,0.0,0.0,0.0,0.0,0.0,0.0,0.0,0.0,0.0,0.0,0.0,0.0,0.0,0.0,-4.9737,-4.9895,-5.02,0.0,-4.8075,0.0,0.0,0.0,0.0,0.0,0.0,0.0,0.0,0.0,0.0,0.0,0.0,0.0,0.0,0.0,0.0,0.0,0.0,0.0,0.0,0.0,0.0,0.0,0.0,0.0,0.0,0.0,0.0,0.0,0.0,0.0,0.0,0.0,0.0,0.0,0.0,0.0,0.0,0.0,0.0,0.0,0.0,0.0,0.0,0.0,0.0,0.0,0.0,0.0,0.0,0.0,0.0,0.0,0.0,0.0,0.0,0.0,0.0,0.0,0.0,0.0,0.0,0.0,0.0,0.0,0.0,0.0,0.0,0.0,0.0,0.0,0.0,0.0,0.0,0.0,0.0,0.0,0.0,0.0,0.0,0.0,0.0,0.0,0.0,0.0,0.0,0.0,0.0,0.0,0.0,0.0,0.0,0.0,0.0,0.0,0.0,0.0,0.0,0.0,0.0,0.0,0.0,0.0,0.0,0.0,0.0,0.0,0.0,0.0,0.0,-4.9982,-5.0307,-4.9547,-4.8589,0.0,0.0,0.0,0.0,0.0,0.0,0.0,0.0,0.0,0.0,0.0,0.0,0.0,0.0,0.0,0.0,0.0,0.0,0.0,0.0,0.0,0.0,0.0,0.0,0.0,0.0,0.0,0.0,0.0,0.0,0.0,0.0,0.0,0.0,0.0,0.0,0.0,0.0,0.0,0.0,0.0,0.0,0.0,0.0,0.0,0.0,0.0,0.0,0.0,0.0,0.0,0.0,0.0,0.0,0.0,0.0,0.0,0.0,0.0,0.0,0.0,0.0,0.0,0.0,0.0,0.0,0.0,0.0,0.0,0.0,0.0,0.0,0.0,0.0,0.0,0.0,0.0,0.0,0.0,0.0,0.0,0.0,0.0,0.0,0.0,0.0,0.0,0.0,0.0,0.0,0.0,0.0,0.0,0.0,0.0,0.0,0.0,0.0,0.0,0.0,0.0,0.0,0.0,0.0,0.0,0.0,0.0,0.0,0.0,0.0,-4.9884,0.0,-5.0371,-4.9144,-4.8015,-4.71,0.0,0.0,0.0,0.0,0.0,0.0,0.0,0.0,0.0,0.0,0.0,0.0,0.0,0.0,0.0,0.0,0.0,0.0,0.0,0.0,0.0,0.0,0.0,0.0,0.0,0.0,0.0,0.0,0.0,0.0,0.0,0.0,0.0,0.0,0.0,0.0,0.0,0.0,0.0,0.0,0.0,0.0,0.0,0.0,0.0,0.0,0.0,0.0,0.0,0.0,0.0,0.0,0.0,0.0,0.0,0.0,0.0,0.0,0.0,0.0,0.0,0.0,0.0,0.0,0.0,0.0,0.0,0.0,0.0,0.0,0.0,0.0,0.0,0.0,0.0,0.0,0.0,0.0,0.0,0.0,0.0,0.0,0.0,0.0,0.0,0.0,0.0,0.0,0.0,0.0,0.0,0.0,0.0,0.0,0.0,0.0,0.0,0.0,0.0,0.0,0.0,0.0,0.0,0.0,0.0,0.0,0.0,0.0,0.0,-5.016,-5.0297,-5.0106,-4.9243,-4.8289,0.0,0.0,0.0,0.0,0.0,0.0,0.0,0.0,0.0,0.0,0.0,0.0,0.0,0.0,0.0,0.0,0.0,0.0,0.0,0.0,0.0,0.0,0.0,0.0,0.0,0.0,0.0,0.0,0.0,0.0,0.0,0.0,0.0,0.0,0.0,0.0,0.0,0.0,0.0,0.0,0.0,0.0,0.0,0.0,0.0,0.0,0.0,0.0,0.0,0.0,0.0,0.0,0.0,0.0,0.0,0.0,0.0,0.0,0.0,0.0,0.0,0.0,0.0,0.0,0.0,0.0,0.0,0.0,0.0,0.0,0.0,0.0,0.0,0.0,0.0,0.0,0.0,0.0,0.0,0.0,0.0,0.0,0.0,0.0,0.0,0.0,0.0,0.0,0.0,0.0,0.0,0.0,0.0,0.0,0.0,0.0,0.0,0.0,0.0,0.0,0.0,0.0,0.0,0.0,0.0,0.0,0.0,0.0,0.0,-5.0143,-5.0757,-5.0831,-5.0214,-4.9408,-4.8423,0.0,0.0,0.0,0.0,0.0,0.0,0.0,0.0,0.0,0.0,0.0,0.0,0.0,0.0,0.0,0.0,0.0,0.0,0.0,0.0,0.0,0.0,0.0,0.0,0.0,0.0,0.0,0.0,0.0,0.0,0.0,0.0,0.0,0.0,0.0,0.0,0.0,0.0,0.0,0.0,0.0,0.0,0.0,0.0,0.0,0.0,0.0,0.0,0.0,0.0,0.0,0.0,0.0,0.0,0.0,0.0,0.0,0.0,0.0,0.0,0.0,0.0,0.0,0.0,0.0,0.0,0.0,0.0,0.0,0.0,0.0,0.0,0.0,0.0,0.0,0.0,0.0,0.0,0.0,0.0,0.0,0.0,0.0,0.0,0.0,0.0,0.0,0.0,0.0,0.0,0.0,0.0,0.0,0.0,0.0,0.0,0.0,0.0,0.0,0.0,0.0,0.0,0.0,0.0,0.0,0.0,0.0,0.0,0.0,-5.0776,0.0,-5.134,0.0,-4.9953,-4.9025,0.0,0.0,0.0,0.0,0.0,0.0,0.0,0.0,0.0,0.0,0.0,0.0,0.0,0.0,0.0,0.0,0.0,0.0,0.0,0.0,0.0,0.0,0.0,0.0,0.0,0.0,0.0,0.0,0.0,0.0,0.0,0.0,0.0,0.0,0.0,0.0,0.0,0.0,0.0,0.0,0.0,0.0,0.0,0.0,0.0,0.0,0.0,0.0,0.0,0.0,0.0,0.0,0.0,0.0,0.0,0.0,0.0,0.0,0.0,0.0,0.0,0.0,0.0,0.0,0.0,0.0,0.0,0.0,0.0,0.0,0.0,0.0,0.0,0.0,0.0,0.0,0.0,0.0,0.0,0.0,0.0,0.0,0.0,0.0,0.0,0.0,0.0,0.0,0.0,0.0,0.0,0.0,0.0,0.0,0.0,0.0,0.0,0.0,0.0,0.0,0.0,0.0,0.0,0.0,0.0,0.0,0.0,0.0,-5.0512,-5.1569,-5.1945,-5.1838,-5.1161,-5.0856,-5.0133,0.0,0.0,0.0,0.0,0.0,0.0,0.0,0.0,0.0,0.0,0.0,0.0,0.0,0.0,0.0,0.0,0.0,0.0,0.0,0.0,0.0,0.0,0.0,0.0,0.0,0.0,0.0,0.0,0.0,0.0,0.0,0.0,0.0,0.0,0.0,0.0,0.0,0.0,0.0,0.0,0.0,0.0,0.0,0.0,0.0,0.0,0.0,0.0,0.0,0.0,0.0,0.0,0.0,0.0,0.0,0.0,0.0,0.0,0.0,0.0,0.0,0.0,0.0,0.0,0.0,0.0,0.0,0.0,0.0,0.0,0.0,0.0,0.0,0.0,0.0,0.0,0.0,0.0,0.0,0.0,0.0,0.0,0.0,0.0,0.0,0.0,0.0,0.0,0.0,0.0,0.0,0.0,0.0,0.0,0.0,0.0,0.0,0.0,0.0,0.0,0.0,0.0,0.0,0.0,0.0,0.0,0.0,0.0,0.0,-5.3092,-5.2799,-5.2875,-5.324,-5.2021,-5.0922,0.0,0.0,0.0,0.0,0.0,0.0,0.0,0.0,0.0,0.0,0.0,0.0,0.0,0.0,0.0,0.0,0.0,0.0,0.0,0.0,0.0,0.0,0.0,0.0,0.0,0.0,0.0,0.0,0.0,0.0,0.0,0.0,0.0,0.0,0.0,0.0,0.0,0.0,0.0,0.0,0.0,0.0,0.0,0.0,0.0,0.0,0.0,0.0,0.0,0.0,0.0,0.0,0.0,0.0,0.0,0.0,0.0,0.0,0.0,0.0,0.0,0.0,0.0,0.0,0.0,0.0,0.0,0.0,0.0,0.0,0.0,0.0,0.0,0.0,0.0,0.0,0.0,0.0,0.0,0.0,0.0,0.0,0.0,0.0,0.0,0.0,0.0,0.0,0.0,0.0,0.0,0.0,0.0,0.0,0.0,0.0,0.0,0.0,0.0,0.0,0.0,0.0,0.0,0.0,0.0,0.0,0.0,0.0,0.0,-5.5591,-5.4707,-5.4496,-5.5057,-5.3576,-5.2408,-5.1664,0.0,0.0,0.0,0.0,0.0,0.0,0.0,0.0,0.0,0.0,0.0,0.0,0.0,0.0,0.0,0.0,0.0,0.0,0.0,0.0,0.0,0.0,0.0,0.0,0.0,0.0,0.0,0.0,0.0,0.0,0.0,0.0,0.0,0.0,0.0,0.0,0.0,0.0,0.0,0.0,0.0,0.0,0.0,0.0,0.0,0.0,0.0,0.0,0.0,0.0,0.0,0.0,0.0,0.0,0.0,0.0,0.0,0.0,0.0,0.0,0.0,0.0,0.0,0.0,0.0,0.0,0.0,0.0,0.0,0.0,0.0,0.0,0.0,0.0,0.0,0.0,0.0,0.0,0.0,0.0,0.0,0.0,0.0,0.0,0.0,0.0,0.0,0.0,0.0,0.0,0.0,0.0,0.0,0.0,0.0,0.0,0.0,0.0,0.0,0.0,0.0,0.0,0.0,0.0,0.0,0.0,0.0,0.0,-5.8932,-5.7548,-5.6724,-5.6594,-5.5489,-5.4485,0.0,0.0,0.0,0.0,0.0,0.0,0.0,0.0,0.0,0.0,0.0,0.0,0.0,0.0,0.0,0.0,0.0,0.0,0.0,0.0,0.0,0.0,0.0,0.0,0.0,0.0,0.0,0.0,0.0,0.0,0.0,0.0,0.0,0.0,0.0,0.0,0.0,0.0,0.0,0.0,0.0,0.0,0.0,0.0,0.0,0.0,0.0,0.0,0.0,0.0,0.0,0.0,0.0,0.0,0.0,0.0,0.0,0.0,0.0,0.0,0.0,0.0,0.0,0.0,0.0,0.0,0.0,0.0,0.0,0.0,0.0,0.0,0.0,0.0,0.0,0.0,0.0,0.0,0.0,0.0,0.0,0.0,0.0,0.0,0.0,0.0,0.0,0.0,0.0,0.0,0.0,0.0,0.0,0.0,0.0,0.0,0.0,0.0,0.0,0.0,0.0,0.0,0.0,0.0,0.0,0.0,0.0,0.0,0.0,-6.015,-6.0912,-6.0566,-5.9098,-5.7768,-5.6121,0.0,0.0,0.0,0.0,0.0,0.0,0.0,0.0,0.0,0.0,0.0,0.0,0.0,0.0,0.0,0.0,0.0,0.0,0.0,0.0,0.0,0.0,0.0,0.0,0.0,0.0,0.0,0.0,0.0,0.0,0.0,0.0,0.0,0.0,0.0,0.0,0.0,0.0,0.0,0.0,0.0,0.0,0.0,0.0,0.0,0.0,0.0,0.0,0.0,0.0,0.0,0.0,0.0,0.0,0.0,0.0,0.0,0.0,0.0,0.0,0.0,0.0,0.0,0.0,0.0,0.0,0.0,0.0,0.0,0.0,0.0,0.0,0.0,0.0,0.0,0.0,0.0,0.0,0.0,0.0,0.0,0.0,0.0,0.0,0.0,0.0,0.0,0.0,0.0,0.0,0.0,0.0,0.0,0.0,0.0,0.0,0.0,0.0,0.0,0.0,0.0,0.0,0.0,0.0,0.0,0.0,0.0,0.0,-5.9045,-6.116,-6.2604,-6.271,-6.1416,-5.959,-5.7473,0.0,0.0,0.0,0.0,0.0,0.0,0.0,0.0,0.0,0.0,0.0,0.0,0.0,0.0,0.0,0.0,0.0,0.0,0.0,0.0,0.0,0.0,0.0,0.0,0.0,0.0,0.0,0.0,0.0,0.0,0.0,0.0,0.0,0.0,0.0,0.0,0.0,0.0,0.0,0.0,0.0,0.0,0.0,0.0,0.0,0.0,0.0,0.0,0.0,0.0,0.0,0.0,0.0,0.0,0.0,0.0,0.0,0.0,0.0,0.0,0.0,0.0,0.0,0.0,0.0,0.0,0.0,0.0,0.0,0.0,0.0,0.0,0.0,0.0,0.0,0.0,0.0,0.0,0.0,0.0,0.0,0.0,0.0,0.0,0.0,0.0,0.0,0.0,0.0,0.0,0.0,0.0,0.0,0.0,0.0,0.0,0.0,0.0,0.0,0.0,0.0,0.0,0.0,0.0,0.0,0.0,0.0,0.0,-5.9371,-6.1859,-6.3139,-6.3623,-6.3175,-6.1058,-5.8643,0.0,0.0,0.0,0.0,0.0,0.0,0.0,0.0,0.0,0.0,0.0,0.0,0.0,0.0,0.0,0.0,0.0,0.0,0.0,0.0,0.0,0.0,0.0,0.0,0.0,0.0,0.0,0.0,0.0,0.0,0.0,0.0,0.0,0.0,0.0,0.0,0.0,0.0,0.0,0.0,0.0,0.0,0.0,0.0,0.0,0.0,0.0,0.0,0.0,0.0,0.0,0.0,0.0,0.0,0.0,0.0,0.0,0.0,0.0,0.0,0.0,0.0,0.0,0.0,0.0,0.0,0.0,0.0,0.0,0.0,0.0,0.0,0.0,0.0,0.0,0.0,0.0,0.0,0.0,0.0,0.0,0.0,0.0,0.0,0.0,0.0,0.0,0.0,0.0,0.0,0.0,0.0,0.0,0.0,0.0,0.0,0.0,0.0,0.0,0.0,0.0,0.0,0.0,0.0,0.0,0.0,0.0,0.0,-6.0524,-6.186,-6.3139,-6.3451,-6.2753,-6.2088,-5.9952,0.0,0.0,0.0,0.0,0.0,0.0,0.0,0.0,0.0,0.0,0.0,0.0,0.0,0.0,0.0,0.0,0.0,0.0,0.0,0.0,0.0,0.0,0.0,0.0,0.0,0.0,0.0,0.0,0.0,0.0,0.0,0.0,0.0,0.0,0.0,0.0,0.0,0.0,0.0,0.0,0.0,0.0,0.0,0.0,0.0,0.0,0.0,0.0,-5.3621,0.0,0.0,0.0,0.0,0.0,0.0,0.0,0.0,0.0,0.0,0.0,0.0,0.0,0.0,0.0,0.0,0.0,0.0,0.0,0.0,0.0,0.0,0.0,0.0,0.0,0.0,0.0,0.0,0.0,0.0,0.0,0.0,0.0,0.0,0.0,0.0,0.0,0.0,0.0,0.0,0.0,0.0,0.0,0.0,0.0,0.0,0.0,0.0,0.0,0.0,0.0,0.0,0.0,0.0,0.0,0.0,0.0,0.0,0.0,-5.9936,-6.0979,-6.2051,-6.2304,-6.1709,-6.1061,-5.9196,0.0,0.0,0.0,0.0,0.0,0.0,0.0,0.0,0.0,0.0,0.0,0.0,0.0,0.0,0.0,0.0,0.0,0.0,0.0,0.0,0.0,0.0,0.0,0.0,0.0,0.0,0.0,0.0,0.0,0.0,0.0,0.0,0.0,0.0,0.0,0.0,0.0,0.0,0.0,0.0,0.0,0.0,0.0,0.0,0.0,0.0,0.0,0.0,0.0,0.0,0.0,0.0,0.0,0.0,0.0,0.0,0.0,0.0,0.0,0.0,0.0,0.0,0.0,0.0,0.0,0.0,0.0,0.0,0.0,0.0,0.0,0.0,0.0,0.0,0.0,0.0,0.0,0.0,0.0,0.0,0.0,0.0,0.0,0.0,0.0,0.0,0.0,0.0,0.0,0.0,0.0,0.0,0.0,0.0,0.0,0.0,0.0,0.0,0.0,0.0,0.0,0.0,0.0,0.0,0.0,0.0,0.0,-5.6765,-5.8884,-5.9961,-6.0655,-6.0858,-6.0583,-5.9309,-5.7585,-5.5459,0.0,0.0,0.0,0.0,0.0,0.0,0.0,0.0,0.0,0.0,0.0,0.0,0.0,0.0,0.0,0.0,0.0,0.0,0.0,0.0,0.0,0.0,0.0,0.0,0.0,0.0,0.0,0.0,0.0,0.0,0.0,0.0,0.0,0.0,0.0,0.0,0.0,0.0,-5.3697,-5.528,0.0,0.0,0.0,0.0,0.0,0.0,0.0,0.0,-5.3595,0.0,0.0,0.0,0.0,0.0,0.0,0.0,0.0,0.0,0.0,0.0,0.0,0.0,0.0,0.0,0.0,0.0,0.0,0.0,0.0,0.0,0.0,0.0,0.0,0.0,0.0,0.0,0.0,0.0,0.0,0.0,0.0,0.0,0.0,0.0,0.0,0.0,0.0,0.0,0.0,0.0,0.0,0.0,0.0,0.0,0.0,0.0,0.0,0.0,0.0,0.0,0.0,0.0,0.0,0.0,0.0,-5.3709,-5.6686,-5.8799,-5.9963,-6.0073,-6.0114,-6.0069,-5.8334,-5.6547,-5.4821,0.0,0.0,0.0,0.0,0.0,0.0,0.0,0.0,0.0,0.0,0.0,0.0,0.0,0.0,0.0,0.0,0.0,0.0,0.0,0.0,0.0,0.0,0.0,0.0,0.0,0.0,0.0,0.0,0.0,0.0,0.0,0.0,0.0,0.0,0.0,0.0,0.0,0.0,0.0,-5.584,-5.69,0.0,0.0,0.0,0.0,0.0,0.0,0.0,0.0,-5.3285,0.0,0.0,0.0,0.0,0.0,0.0,0.0,0.0,0.0,0.0,0.0,0.0,0.0,0.0,0.0,0.0,0.0,0.0,0.0,0.0,0.0,0.0,0.0,0.0,0.0,0.0,0.0,0.0,0.0,0.0,0.0,0.0,0.0,0.0,0.0,0.0,0.0,0.0,0.0,0.0,0.0,0.0,0.0,0.0,0.0,0.0,0.0,0.0,0.0,0.0,0.0,0.0,0.0,0.0,0.0,-5.3512,-5.565,-5.7479,-5.8902,-5.8921,-5.8921,-5.8927,-5.7501,-5.6017,0.0,0.0,0.0,0.0,0.0,0.0,0.0,0.0,0.0,0.0,0.0,0.0,0.0,0.0,0.0,0.0,0.0,0.0,0.0,0.0,0.0,0.0,0.0,0.0,0.0,0.0,0.0,0.0,0.0,0.0,0.0,0.0,0.0,0.0,0.0,0.0,0.0,0.0,0.0,0.0,-5.8131,-5.9161,-5.9122,0.0,0.0,0.0,0.0,0.0,0.0,-5.4919,-5.3928,0.0,0.0,0.0,0.0,0.0,0.0,0.0,0.0,0.0,0.0,0.0,0.0,0.0,0.0,0.0,0.0,0.0,0.0,0.0,0.0,0.0,0.0,0.0,0.0,0.0,0.0,0.0,0.0,0.0,0.0,0.0,0.0,0.0,0.0,0.0,0.0,0.0,0.0,0.0,0.0,0.0,0.0,0.0,0.0,0.0,0.0,0.0,0.0,0.0,0.0,0.0,0.0,0.0,0.0,0.0,-5.325,-5.4625,-5.6212,-5.7895,-5.785,-5.7758,-5.774,-5.6674,-5.5408,0.0,0.0,0.0,0.0,0.0,0.0,0.0,0.0,0.0,0.0,0.0,0.0,0.0,0.0,0.0,0.0,0.0,0.0,0.0,0.0,0.0,0.0,0.0,0.0,0.0,0.0,0.0,0.0,0.0,0.0,0.0,0.0,0.0,0.0,0.0,0.0,0.0,0.0,0.0,0.0,0.0,-6.0797,-6.0818,-6.0453,0.0,0.0,0.0,0.0,-5.6846,-5.5783,0.0,0.0,0.0,0.0,0.0,0.0,0.0,0.0,0.0,0.0,0.0,0.0,0.0,0.0,0.0,0.0,0.0,0.0,0.0,0.0,0.0,0.0,0.0,0.0,0.0,0.0,0.0,0.0,0.0,0.0,0.0,0.0,0.0,0.0,0.0,0.0,0.0,0.0,0.0,0.0,0.0,0.0,0.0,0.0,0.0,0.0,0.0,0.0,0.0,0.0,0.0,0.0,0.0,0.0,0.0,0.0,-5.325,-5.4501,-5.6057,-5.7877,-5.7299,-5.695,-5.6909,-5.5689,-5.4399,0.0,0.0,0.0,0.0,0.0,0.0,0.0,0.0,0.0,0.0,0.0,0.0,0.0,0.0,0.0,0.0,0.0,0.0,0.0,0.0,0.0,0.0,0.0,0.0,0.0,0.0,0.0,0.0,0.0,0.0,0.0,0.0,0.0,0.0,0.0,0.0,0.0,0.0,0.0,0.0,0.0,-5.9299,-5.9263,-5.9517,-5.9175,0.0,0.0,-5.7124,-5.6251,-5.6729,0.0,0.0,0.0,0.0,0.0,0.0,0.0,0.0,0.0,0.0,0.0,0.0,0.0,0.0,0.0,0.0,0.0,0.0,0.0,0.0,0.0,0.0,0.0,0.0,0.0,0.0,0.0,0.0,0.0,0.0,0.0,0.0,0.0,0.0,0.0,0.0,0.0,0.0,0.0,0.0,0.0,0.0,0.0,0.0,0.0,0.0,0.0,0.0,0.0,0.0,0.0,0.0,0.0,0.0,0.0,-5.0209,-5.3014,-5.3805,-5.522,-5.7217,-5.6987,-5.6602,-5.6143,-5.5283,-5.4206,0.0,0.0,0.0,0.0,0.0,0.0,0.0,0.0,0.0,0.0,0.0,0.0,0.0,0.0,0.0,0.0,0.0,0.0,0.0,0.0,0.0,0.0,0.0,0.0,0.0,0.0,0.0,0.0,0.0,0.0,0.0,0.0,0.0,0.0,0.0,0.0,0.0,0.0,0.0,0.0,0.0,0.0,-5.953,-5.9926,0.0,0.0,0.0,-5.8418,-5.7916,0.0,0.0,0.0,0.0,0.0,0.0,0.0,0.0,0.0,0.0,0.0,0.0,0.0,0.0,0.0,0.0,0.0,0.0,0.0,0.0,0.0,0.0,0.0,0.0,0.0,0.0,0.0,0.0,0.0,0.0,0.0,0.0,0.0,0.0,0.0,0.0,0.0,0.0,0.0,0.0,0.0,0.0,0.0,0.0,0.0,0.0,0.0,0.0,0.0,0.0,0.0,0.0,0.0,0.0,0.0,0.0,0.0,-5.2647,-5.3074,-5.4276,-5.6437,-5.6337,-5.593,-5.5335,-5.4298,0.0,0.0,0.0,0.0,0.0,0.0,0.0,0.0,0.0,0.0,0.0,0.0,0.0,0.0,0.0,0.0,0.0,0.0,0.0,0.0,0.0,0.0,0.0,0.0,0.0,0.0,0.0,-4.7571,0.0,0.0,0.0,0.0,0.0,0.0,0.0,0.0,0.0,0.0,0.0,0.0,0.0,0.0,-5.8878,-5.9528,-5.9983,-5.9989,0.0,0.0,-5.921,-5.9018,-5.8237,-5.7326,0.0,0.0,0.0,0.0,0.0,0.0,0.0,0.0,0.0,0.0,0.0,0.0,0.0,0.0,0.0,0.0,0.0,0.0,0.0,0.0,0.0,0.0,0.0,0.0,0.0,0.0,0.0,0.0,0.0,0.0,0.0,0.0,0.0,0.0,0.0,0.0,0.0,0.0,0.0,0.0,0.0,0.0,0.0,0.0,0.0,0.0,0.0,0.0,0.0,0.0,0.0,0.0,0.0,0.0,0.0,-5.1873,-5.232,-5.3545,-5.5667,-5.5024,-5.4591,-5.4448,-5.2221,-5.094,0.0,0.0,0.0,0.0,0.0,0.0,0.0,0.0,0.0,0.0,0.0,0.0,0.0,0.0,0.0,0.0,0.0,0.0,0.0,0.0,0.0,0.0,0.0,0.0,0.0,0.0,0.0,0.0,0.0,0.0,0.0,0.0,0.0,0.0,0.0,0.0,0.0,0.0,0.0,0.0,0.0,-5.7438,-5.8478,-5.9114,-5.9114,0.0,0.0,-5.9016,-5.8218,-5.9105,-5.9025,-5.6544,0.0,0.0,0.0,0.0,0.0,0.0,0.0,0.0,0.0,0.0,0.0,0.0,0.0,0.0,0.0,0.0,0.0,0.0,0.0,0.0,0.0,0.0,0.0,0.0,0.0,0.0,0.0,0.0,0.0,0.0,0.0,0.0,0.0,0.0,0.0,0.0,0.0,0.0,0.0,0.0,0.0,0.0,0.0,0.0,0.0,0.0,0.0,0.0,0.0,0.0,0.0,0.0,0.0,-4.9298,-5.1846,-5.1781,-5.2551,-5.4171,-5.3929,-5.3513,-5.2985,-5.1842,-5.1081,0.0,0.0,0.0,0.0,0.0,0.0,0.0,0.0,0.0,0.0,0.0,0.0,0.0,0.0,0.0,0.0,0.0,0.0,0.0,0.0,0.0,0.0,0.0,0.0,0.0,0.0,0.0,0.0,-4.783,-4.7334,-4.6912,0.0,0.0,0.0,0.0,0.0,0.0,0.0,0.0,0.0,0.0,-5.6662,-5.8109,-5.8386,0.0,0.0,-5.8598,-5.8899,-5.8341,-5.839,-5.8048,-5.6774,-5.4842,0.0,0.0,0.0,0.0,0.0,0.0,0.0,0.0,0.0,0.0,0.0,0.0,0.0,0.0,0.0,0.0,0.0,0.0,0.0,0.0,0.0,0.0,0.0,0.0,0.0,0.0,0.0,0.0,0.0,0.0,0.0,0.0,0.0,0.0,0.0,0.0,0.0,0.0,0.0,0.0,0.0,0.0,0.0,0.0,0.0,0.0,0.0,0.0,0.0,0.0,0.0,0.0,-4.9202,-5.1526,-5.1163,-5.1633,-5.3046,-5.3012,-5.2695,-5.2112,-5.1425,-5.0921,0.0,0.0,0.0,0.0,0.0,0.0,0.0,0.0,0.0,0.0,0.0,0.0,0.0,0.0,0.0,0.0,0.0,0.0,0.0,0.0,0.0,0.0,0.0,0.0,0.0,0.0,0.0,0.0,-4.7847,-4.6948,-4.5959,0.0,0.0,0.0,0.0,0.0,0.0,0.0,0.0,0.0,0.0,-5.599,-5.7625,-5.7741,-5.7705,-5.7812,-5.8254,-5.8537,-5.8375,-5.7806,-5.7232,-5.6895,0.0,0.0,0.0,0.0,0.0,0.0,0.0,0.0,0.0,0.0,0.0,0.0,0.0,0.0,0.0,0.0,0.0,0.0,0.0,0.0,0.0,0.0,0.0,0.0,0.0,0.0,0.0,-5.1884,0.0,0.0,-5.0235,0.0,0.0,0.0,0.0,0.0,0.0,0.0,0.0,0.0,0.0,0.0,0.0,0.0,0.0,0.0,0.0,0.0,0.0,0.0,0.0,0.0,0.0,-4.9041,-5.0676,-5.0327,-5.0858,-5.2268,-5.2252,-5.2195,-5.2065,-5.066,-4.9959,-5.0173,0.0,0.0,0.0,0.0,0.0,0.0,0.0,0.0,0.0,0.0,0.0,0.0,0.0,0.0,0.0,0.0,0.0,0.0,0.0,0.0,0.0,0.0,0.0,0.0,0.0,0.0,-4.8753,-4.7625,-4.622,0.0,0.0,0.0,0.0,0.0,0.0,0.0,0.0,0.0,0.0,-5.4513,-5.5228,-5.6861,-5.7117,-5.724,-5.7587,-5.7638,-5.7783,-5.8139,-5.7596,-5.7022,0.0,0.0,0.0,0.0,0.0,0.0,0.0,0.0,0.0,0.0,0.0,0.0,0.0,0.0,0.0,0.0,0.0,0.0,0.0,0.0,0.0,0.0,0.0,0.0,0.0,0.0,0.0,-5.3106,-5.2844,0.0,0.0,0.0,0.0,0.0,0.0,0.0,0.0,0.0,0.0,0.0,-5.0021,-4.9799,0.0,0.0,0.0,0.0,0.0,0.0,0.0,0.0,0.0,0.0,0.0,0.0,-4.8986,-5.0102,-4.9637,-5.008,-5.1511,-5.1525,-5.166,-5.2071,-5.1013,-4.9888,-4.865,0.0,0.0,0.0,0.0,0.0,0.0,0.0,0.0,0.0,0.0,0.0,0.0,0.0,0.0,0.0,0.0,0.0,0.0,0.0,0.0,0.0,0.0,0.0,0.0,0.0,-4.8026,0.0,0.0,0.0,0.0,0.0,0.0,0.0,0.0,0.0,0.0,0.0,-5.1799,-5.402,-5.4566,-5.5128,-5.6233,-5.6628,-5.7104,0.0,0.0,0.0,0.0,0.0,0.0,0.0,0.0,0.0,0.0,0.0,0.0,0.0,0.0,-5.4933,-5.4141,-5.399,-5.3878,-5.3522,0.0,0.0,0.0,0.0,0.0,0.0,0.0,0.0,0.0,0.0,0.0,0.0,0.0,0.0,-5.4661,0.0,-5.4161,0.0,0.0,0.0,0.0,0.0,0.0,0.0,0.0,-5.1817,-5.1723,-5.0941,-5.0558,-5.0195,0.0,-4.89,-4.7829,0.0,0.0,0.0,0.0,0.0,0.0,0.0,0.0,-4.9292,-5.0328,-4.9722,-5.0042,-5.1468,-5.1467,-5.1643,-5.2094,-5.1536,-5.0188,-4.8048,-4.798,-4.7641,0.0,0.0,0.0,0.0,0.0,0.0,0.0,0.0,0.0,0.0,0.0,0.0,0.0,0.0,0.0,0.0,0.0,0.0,0.0,0.0,0.0,0.0,0.0,-4.8156,0.0,0.0,0.0,0.0,0.0,0.0,0.0,0.0,0.0,-5.084,-5.1258,-5.2233,-5.3974,-5.4347,-5.4804,-5.5874,0.0,0.0,0.0,0.0,0.0,0.0,0.0,-5.7217,-5.6848,-5.6979,-5.7327,-5.7918,-5.7933,-5.7902,-5.7948,0.0,0.0,-5.6117,-5.581,-5.571,-5.5361,-5.5277,-5.5352,-5.5673,-5.58,-5.5977,0.0,0.0,0.0,0.0,0.0,0.0,0.0,0.0,-5.6119,-5.6706,0.0,-5.5811,0.0,0.0,0.0,0.0,0.0,-5.2506,0.0,0.0,-5.3096,-5.3096,-5.2507,-5.1619,-5.0763,-4.9912,-4.922,-4.8382,-4.7491,-4.7095,0.0,0.0,0.0,0.0,0.0,0.0,-4.994,-5.128,-5.0471,-5.0746,-5.2139,-5.2111,-5.2076,-5.2051,-5.2014,-5.082,-4.847,-4.8877,-4.8753,-4.7829,-4.708,0.0,0.0,0.0,0.0,0.0,0.0,0.0,0.0,0.0,0.0,0.0,0.0,0.0,0.0,0.0,0.0,0.0,0.0,0.0,0.0,-4.8541,0.0,0.0,0.0,0.0,0.0,0.0,0.0,0.0,0.0,0.0,-5.1376,-5.2104,-5.2982,-5.3927,0.0,0.0,0.0,0.0,-5.6098,-5.6952,-5.7256,-5.7269,-5.6974,-5.7098,-5.7078,-5.6551,0.0,0.0,-5.9578,-5.983,-5.9954,-6.016,-6.0226,-5.9678,-5.7394,-5.6981,-5.6911,-5.6753,-5.683,-5.7244,-5.8079,-5.8194,-5.859,-5.8753,0.0,0.0,0.0,0.0,-5.721,-5.7619,-5.7563,-5.8098,-5.8267,-5.813,-5.7313,0.0,0.0,0.0,0.0,0.0,0.0,-5.3885,-5.3614,-5.4256,-5.3792,-5.2381,-5.1592,-5.107,-5.0798,-5.0017,-4.9239,-4.8518,-4.8882,-4.8612,-4.7733,0.0,0.0,0.0,0.0,-5.0585,-5.1113,-5.0902,-5.1218,-5.2106,-5.2126,-5.1815,-5.1174,-5.171,-5.082,-4.8398,-4.9055,-4.9011,-4.797,-4.7104,0.0,0.0,0.0,0.0,0.0,0.0,0.0,0.0,0.0,0.0,0.0,0.0,0.0,0.0,0.0,0.0,0.0,0.0,0.0,-4.7155,-4.8106,-4.8939,0.0,0.0,0.0,0.0,0.0,0.0,0.0,0.0,0.0,-5.3678,-5.3454,-5.3629,0.0,0.0,-5.4996,-5.5539,-5.5924,-5.6532,-5.7621,-5.7556,0.0,-5.8298,-5.823,-5.8002,-5.7597,-5.8524,-5.9477,-6.0093,-6.039,-6.0559,-6.0616,-6.0654,-6.0437,-5.983,-5.9374,-5.9033,-5.8691,-5.8409,-5.8399,-5.8896,-5.8649,-5.8359,-6.0353,-5.8574,-5.8401,-5.8169,-5.8019,-5.8858,-5.9139,-5.8988,-5.9371,-5.931,-5.886,-5.8415,-5.7589,-5.6489,-5.6024,0.0,0.0,0.0,-5.487,-5.4202,-5.4659,-5.4117,-5.2772,-5.1996,-5.1643,-5.1589,-5.0818,-5.0218,-4.9773,-5.0336,-5.031,-4.9699,0.0,0.0,-5.0696,-5.0928,-5.1251,-5.1654,-5.1562,-5.185,-5.2531,-5.2227,-5.1653,-5.0855,-5.1261,-5.0655,-4.8893,-4.9335,-4.946,-4.9119,-4.7844,-4.7,0.0,0.0,0.0,0.0,0.0,0.0,0.0,0.0,0.0,0.0,0.0,-4.6625,-4.6105,0.0,0.0,0.0,-4.5939,-4.646,-4.7462,-4.8642,0.0,0.0,0.0,0.0,0.0,0.0,0.0,-5.3208,-5.4296,-5.5089,-5.5125,-5.5028,-5.5043,-5.535,-5.5467,-5.5629,-5.5989,0.0,-5.6778,-5.7709,-5.7678,-5.7843,-5.8662,-5.8674,-5.8635,-5.8815,-5.9338,-5.9954,-6.0456,-6.069,-6.08,-6.08,-6.08,-6.08,-6.08,-6.0565,-6.0311,-6.001,-5.9595,-5.9485,-6.0025,-5.9419,-5.8927,-6.1263,-6.0579,-6.034,-5.9797,-5.92,-5.9975,-5.9969,-5.9441,-6.0126,-5.9925,-5.9109,-5.91,-5.8516,-5.7558,-5.7461,0.0,-5.5363,-5.6227,-5.5907,-5.4689,-5.4689,-5.4283,-5.3547,-5.2791,-5.2344,-5.2287,-5.1545,-5.1164,-5.1189,-5.1522,-5.1793,-5.1861,-5.1036,-5.0695,-5.0898,-5.1435,-5.2012,-5.2635,-5.2353,-5.2477,-5.3075,-5.238,-5.1591,-5.0729,-5.071,-5.0325,-4.9537,-4.9555,-4.9959,-5.06,-4.8991,-4.7953,-4.7795,0.0,0.0,0.0,0.0,0.0,0.0,0.0,0.0,0.0,0.0,0.0,0.0,0.0,0.0,0.0,-4.7814,0.0,-4.839,-4.995,0.0,0.0,0.0,-5.3307,-5.4158,-5.4446,-5.4557,-5.4557,0.0,0.0,-5.5941,-5.6592,-5.6871,-5.6412,-5.6204,-5.634,-5.6941,-5.6871,-5.6948,-5.7418,-5.7697,-5.8019,-5.85,-5.8674,-5.9084,-5.9901,-6.0132,-6.025,-6.0678,-6.08,-6.08,-6.08,-6.08,-6.0769,-6.0765,-6.069,-6.0746,-6.0603,-6.0278,-6.0224,-6.0757,-6.0191,-5.972,-6.242,-6.2211,-6.2162,-6.1337,-6.0151,-6.0921,-6.1184,-6.1006,-6.0584,-6.0267,-6.0004,-5.8817,-5.7808,-5.6951,-5.6346,-5.62,-5.642,-5.6662,-5.6594,-5.6355,-5.6328,-5.5596,-5.4268,-5.3503,-5.2813,-5.2232,-5.1983,-5.1856,-5.188,-5.2504,-5.2846,-5.285,-5.2649,-5.2451,-5.2313,-5.245,-5.2676,-5.306,-5.2977,-5.2709,-5.2289,-5.2087,-5.1316,-4.9922,-4.9886,-4.9481,-4.8655,-4.9243,-4.9684,-4.9849,-4.8836,-4.8132,-4.7955,-4.6345,0.0,0.0,0.0,0.0,0.0,0.0,0.0,0.0,0.0,-4.7144,-4.6586,0.0,-4.857,0.0,-4.8871,-4.9884,-5.068,-5.176,0.0,0.0,-5.4111,-5.435,-5.4786,-5.5468,-5.5922,-5.5922,-5.6709,-5.7309,-5.7315,-5.7497,-5.7607,-5.7565,-5.7202,-5.7018,-5.7264,-5.7363,-5.7461,-5.7703,-5.8131,-5.851,-5.8656,-5.899,-5.9543,-6.0482,-6.0357,-6.0264,-6.0714,-6.08,-6.08,-6.08,-6.08,-6.0659,-6.0338,-6.0264,-6.0132,-5.9804,-5.9644,-5.9616,-5.9809,-5.9114,-5.8633,-6.2823,-6.2823,-6.2823,-6.2266,-6.152,-6.1961,-6.1924,-6.1557,-6.1135,-6.0548,-5.9771,-5.8529,-5.7758,-5.7317,-5.6877,-5.6914,-5.7317,-5.7336,-5.7169,-5.6894,-5.6894,-5.6053,-5.4482,-5.4091,-5.3439,-5.2636,-5.2604,-5.2576,-5.2617,-5.298,-5.3185,-5.3185,-5.3185,-5.3121,-5.2995,-5.2977,-5.306,-5.3185,-5.2858,-5.2454,-5.1977,-5.1318,-5.0492,-4.9647,-4.9225,-4.8802,-4.8343,-4.8783,-4.9206,-4.9555,-4.8765,-4.8248,-4.8114,-4.6787,-4.5979,0.0,0.0,0.0,0.0,0.0,0.0,0.0,0.0,0.0,0.0,0.0,-4.9684,-4.9554,-5.086,-5.1946,-5.2468,-5.3315,-5.4248,-5.5287,-5.545,-5.5733,-5.6286,-5.6794,-5.7092,-5.7133,-5.7564,-5.7904,-5.7904,-5.7904,-5.7927,-5.7997,-5.7745,-5.7577,-5.7649,-5.7721,-5.7792,-5.7886,-5.8354,-5.8874,-5.9249,-5.9709,-6.0208,-6.0647,-6.0578,-6.0508,-6.0757,-6.08,-6.08,-6.08,-6.08,-6.0666,-6.0189,-6.0084,-5.9901,-5.9284,-5.9084,-5.9176,-5.9337,-5.899,-5.8733,-6.2823,-6.2823,-6.2823,-6.2732,-6.2658,-6.2633,-6.2254,-6.1575,-6.1374,-6.0456,-5.9001,-5.8309,-5.7978,-5.7978,-5.7978,-5.7978,-5.7978,-5.7978,-5.7655,-5.7058,-5.704,-5.6255,-5.4802,-5.4673,-5.4195,-5.3363,-5.3259,-5.3185,-5.3185,-5.3185,-5.3185,-5.3185,-5.3185,-5.3185,-5.3185,-5.3185,-5.3185,-5.3185,-5.2509,-5.205,-5.1811,-5.0453,-4.9665,-4.9427,-4.8691,-4.8324,-4.8324,-4.8324,-4.871,-4.9519,-4.8783,-4.8361,-4.8415,-4.7509,-4.6857,0.0,-4.6519,0.0,0.0,0.0,0.0,0.0,0.0,0.0,0.0,-5.0385,-5.0933,-5.1596,-5.3272,-5.4255,-5.4112,-5.4872,-5.5731,-5.6499,-5.6708,-5.7098,-5.7886,-5.7978,-5.7978,-5.7978,-5.7978,-5.7978,-5.7978,-5.7978,-5.7978,-5.7978,-5.7955,-5.7932,-5.7997,-5.7955,-5.7955,-5.7978,-5.8461,-5.914,-5.9965,-6.0495,-6.0757,-6.0769,-6.0769,-6.08,-6.08,-6.08,-6.08,-6.08,-6.0714,-6.0521,-6.0084,-5.9946,-5.9611,-5.8776,-5.8611,-5.8755,-5.9158,-5.923,-5.9319,-6.2823,-6.2823,-6.2823,-6.242,-6.1814,-6.1814,-6.1722,-6.1502,-6.0217,-5.9116,-5.8217,-5.8052,-5.7978,-5.7978,-5.7978,-5.7978,-5.7978,-5.7978,-5.7909,-5.7774,-5.7797,-5.7288,-5.6366,-5.5697,-5.4956,-5.4151,-5.3509,-5.3185,-5.3185,-5.3185,-5.3185,-5.3185,-5.3185,-5.3185,-5.3185,0.0,0.0,0.0,-5.3059,-5.2344,-5.1077,-5.0729,-4.9921,-4.86,-4.8398,0.0,-4.8324,-4.8324,-4.8691,-4.9519,-4.8765,0.0,0.0,0.0,0.0,0.0,0.0,0.0,0.0,0.0,0.0,0.0,-5.147,-5.1612,-5.0957,-5.2268,-5.3539,-5.4529,-5.5514,-5.6145,-5.6228,-5.6946,-5.7501,-5.767,-5.7712,-5.7808,-5.7978,-5.7978,-5.7978,-5.7978,-5.7978,-5.7978,-5.7978,-5.7978,-5.7978,-5.7978,-5.7978,-5.7978,-5.7978,-5.7978,-5.7978,-5.8029,-5.8755,-5.9595,-6.054,-6.0746,-6.08,-6.08,-6.08,-6.08,-6.08,-6.08,-6.08,-6.0781,-6.0495,-6.0103,-5.9628,-5.9249,-5.8835,-5.8257,-5.8164,-5.8282,-5.8716,-5.8835,-5.8933,-6.2823,0.0,-6.2383,-6.2199,0.0,-6.0933,-6.0639,-6.0915,-5.9716,-5.8744,-5.7978,-5.7978,-5.7978,-5.7978,-5.7978,-5.7978,-5.7978,-5.7978,-5.7978,-5.7978,-5.7978,-5.7593,-5.6785,-5.5978,-5.517,-5.4381,-5.357,-5.3185,-5.3185,-5.3185,-5.3185,-5.3185,-5.3185,-5.3185,-5.3185,-5.3185,-5.3185,-5.3185,-5.2435,-5.1628,-5.082,-4.9994,-4.9169,-4.8361,-4.8324,0.0,0.0,0.0,0.0,0.0,0.0,0.0,0.0,0.0,0.0,-4.9279,-4.9638,-4.9812,-4.9771,-5.0499,-5.1304,-5.2186,-5.3419,-5.389,-5.3272,-5.4501,-5.5514,-5.6031,-5.6823,-5.7304,-5.7409,-5.7758,-5.7978,-5.7978,-5.7978,-5.7978,-5.7978,-5.7978,-5.7978,-5.7978,-5.7978,-5.7978,-5.7978,-5.7978,-5.7978,-5.7978,-5.7978,-5.7978,-5.7978,-5.7978,-5.8119,-5.8611,-5.9267,-5.9977,-6.0622,-6.08,-6.08,-6.08,-6.08,-6.08,-6.08,-6.08,-6.08,-6.0757,-6.0411,-5.9946,-5.9475,-5.9028,-5.8549,-5.8164,-5.819,-5.8484,-5.8932,-5.9047,-5.9176,-6.2823,-6.2725,-6.2089,-6.2108,-6.242,-6.045,-5.985,-6.0144,0.0,0.0,0.0,-5.7978,-5.7978,-5.7978,-5.7978,-5.7978,-5.7978,-5.7978,-5.7978,-5.7978,-5.7978,-5.7648,-5.6987,-5.618,-5.5372,-5.4601,-5.3794,-5.3332,-5.3185,-5.3185,-5.3185,-5.3185,-5.3185,-5.3185,-5.3185,-5.3185,-5.3185,-5.313,-5.1903,-5.1077,-5.0784,-4.9462,-4.86,-4.8324,-4.8324,-4.8324,-4.8324,-4.8324,-4.8324,-4.8324,-4.8324,-4.8691,-4.9537,-4.9592,-4.9901,-5.057,-5.0771,-5.0845,-5.0863,-5.1724,-5.2718,-5.3772,-5.506,-5.5805,-5.5843,-5.6424,-5.6877,-5.7005,-5.7629,-5.7978,-5.7978,-5.7978,-5.7978,-5.7978,-5.7978,-5.7978,-5.7978,-5.7978,-5.7978,-5.7978,-5.7978,-5.7978,-5.7978,-5.7978,-5.7978,-5.7978,-5.7978,-5.7978,-5.802,-5.8074,-5.8439,-5.9176,-5.9709,-6.025,-6.0678,-6.08,-6.08,-6.08,-6.08,-6.08,-6.08,-6.08,-6.0757,-6.0634,-6.0278,-5.9804,-5.9373,-5.8855,-5.8505,-5.819,-5.8418,-5.8874,-5.9372,-5.9528,-5.9677,-6.2823,-6.2805,-6.2677,-6.231,-6.1741,-6.141,-6.0548,-5.9313,-5.8529,-5.8107,-5.7978,-5.7978,-5.7978,-5.7978,-5.7978,-5.7978,-5.7978,-5.7978,-5.7978,-5.7978,-5.7978,-5.7941,-5.7776,-5.7005,-5.6216,-5.5409,-5.4601,-5.3885,-5.3259,-5.3185,-5.3185,-5.3185,-5.3185,-5.3185,-5.3185,-5.3185,-5.3185,-5.3185,-5.2965,-5.2197,-5.0839,-5.0582,-4.9738,-4.8398,-4.8324,-4.8324,-4.8324,-4.8324,-4.8324,-4.8324,-4.8324,-4.8691,-4.9537,-4.9629,-4.9939,-5.0727,-5.1424,-5.1791,-5.1828,-5.3185,-5.4671,-5.6143,-5.651,-5.6891,-5.7551,-5.7134,-5.7097,-5.774,-5.7923,-5.7978,-5.7978,-5.7978,-5.7978,-5.7978,-5.7978,-5.7978,-5.7978,-5.7978,-5.7978,-5.7978,-5.7978,-5.7978,-5.7978,-5.7978,-5.7978,-5.7978,-5.7978,-5.7978,-5.8029,-5.8351,-5.8795,-5.9302,-5.9808,-6.025,-6.0659,-6.08,-6.0762,-6.08,-6.0723,-6.0685,-6.0685,-6.0608,-6.0524,-6.0278,-5.9813,-5.9333,-5.8933,-5.8418,-5.8351,-5.8505,-5.8735,-5.9047,-5.9808,-5.9981,-6.0146,-6.2823,-6.2768,-6.2346,-6.2199,-6.2218,-6.1777,-6.0694,-5.9203,-5.8799,-5.84,-5.7997,-5.7978,-5.7978,-5.7978,-5.7978,-5.7978,-5.7978,-5.7978,-5.7978,-5.7978,-5.7978,-5.7978,-5.7905,-5.7171,-5.6602,-5.618,-5.4987,-5.4197,-5.3849,-5.3405,-5.3185,-5.3185,-5.3185,-5.3185,-5.3185,-5.3185,-5.3185,-5.3206,-5.2766,-5.2197,-5.1463,-5.1022,-5.0215,-4.904,-4.8985,-4.9003,-4.8985,-4.9003,-4.9205,-4.9646,-4.9664,-5.005,-5.0839,-5.0914,-5.1242,-5.205,-5.2435,-5.2858,-5.328,-5.4803,-5.6014,-5.6748,-5.7207,-5.7593,-5.7941,-5.7666,-5.7611,-5.7941,-5.7978,-5.7978,-5.7978,-5.7978,-5.7978,-5.7978,-5.7978,-5.7978,-5.7978,-5.7978,-5.7978,-5.7978,-5.7978,-5.7978,-5.7978,-5.7978,-5.7978,-5.7978,-5.7978,-5.7978,-5.8024,-5.8632,-5.9158,-5.9425,-6.001,-6.0514,-6.0757,-6.08,-6.0608,-6.0204,-6.0089,-6.0089,-6.005,-5.9819,-5.9688,-5.9946,-5.9387,-5.8884,-5.8953,-5.8694,-5.8634,-5.8971,-5.932,-5.9677,-6.0006,-6.0278,-6.0533,-6.2823,-6.275,-6.2126,-6.2218,-6.2707,-6.1942,-6.0878,-5.9758,-5.9368,-5.8841,-5.829,-5.8088,-5.7978,-5.7978,-5.7978,-5.7978,-5.7978,-5.7978,-5.7978,-5.7978,-5.7978,-5.7978,-5.7923,-5.7354,-5.6987,-5.6712,-5.5519,-5.4858,-5.4583,-5.3867,-5.3371,-5.3222,-5.3185,-5.3185,-5.3185,-5.3185,-5.3185,-5.3148,-5.2582,-5.216,-5.1977,-5.1371,-5.0692,-4.9921,-4.9867,-4.9886,-4.9886,-4.9848,-5.016,-5.0747,-5.082,-5.1169,-5.1942,-5.2016,-5.2362,-5.3115,-5.3371,-5.3922,-5.4895,-5.6088,-5.6877,-5.7079,-5.7629,-5.7978,-5.7978,-5.7978,-5.7978,-5.7978,-5.7978,-5.7978,-5.7978,-5.7978,-5.7978,-5.7978,-5.7978,-5.7978,-5.7978,-5.7978,-5.7978,-5.7978,-5.7978,-5.7978,-5.7978,-5.7978,-5.7978,-5.7978,-5.7978,-5.7978,-5.8097,-5.8796,-5.9337,-5.9578,-6.0208,-6.0611,-6.0589,-6.0473,-6.0127,-5.9377,-5.9223,-5.9242,-5.9146,-5.8704,-5.871,-5.9411,-5.9007,-5.8715,-5.9201,-5.9121,-5.9084,-5.9441,-5.9789,-6.0089,-6.0264,-6.054,-6.0769,-6.2823,-6.2805,-6.2695,-6.2707,-6.2713,-6.1961,-6.152,-6.1153,-5.9845,-5.9166,-5.8982,-5.8345,-5.8015,-5.7978,-5.7978,-5.7978,-5.7978,-5.7978,-5.7978,-5.7978,-5.7978,-5.7978,-5.7978,-5.7886,-5.7519,-5.6895,-5.6602,-5.6106,-5.5464,-5.4638,-5.3904,-5.3277,-5.3185,-5.3185,-5.3185,-5.3185,-5.3185,-5.3185,-5.3112,-5.2747,-5.2032,-5.1922,-5.1499,-5.0729,-5.0692,-5.0692,-5.0692,-5.0692,-5.0729,-5.0802,-5.0857,-5.1206,-5.1885,-5.1995,-5.2362,-5.317,-5.3904,-5.495,-5.6381,-5.673,-5.7134,-5.7795,-5.7923,-5.7978,-5.7978,-5.7978,-5.7978,-5.7978,-5.7978,-5.7978,-5.7978,-5.7978,-5.7978,-5.7978,-5.7978,-5.7978,-5.7978,-5.7978,-5.7978,-5.7978,-5.7978,-5.7978,-5.7978,-5.7978,-5.7978,-5.7978,-5.7978,-5.7978,-5.8074,-5.8796,-5.9389,-5.9543,-6.0189,-6.0368,-5.9935,-5.9646,-5.9338,-5.8665,-5.8415,-5.8396,-5.8338,-5.8308,-5.8465,-5.868,-5.8706,-5.8642,-5.9143,-5.9354,-5.9471,-5.9866,-6.0132,-6.025,-6.059,-6.0757,-6.08,-6.2823,-6.2823,-6.2823,-6.2823,-6.2768,-6.2438,-6.2034,-6.152,-6.0915,-6.0107,-5.9203,-5.8859,-5.8474,-5.7997,-5.7978,-5.7978,-5.7978,-5.7978,-5.7978,-5.7978,-5.7978,-5.7978,-5.7978,-5.7978,-5.7813,-5.7483,-5.7042,-5.6657,-5.6143,-5.5023,-5.4216,-5.3885,-5.3442,-5.3185,-5.3185,-5.3185,-5.3185,-5.3185,-5.3185,-5.3041,-5.2766,-5.2729,-5.2325,-5.1591,-5.1499,-5.1518,-5.1499,-5.1518,-5.172,-5.2179,-5.2213,-5.238,-5.2692,-5.2729,-5.3078,-5.3904,-5.5133,-5.6106,-5.6748,-5.7226,-5.7648,-5.7978,-5.7978,-5.7978,-5.7978,-5.7978,-5.7978,-5.7978,-5.7978,-5.7978,-5.7997,-5.7978,-5.7978,-5.7978,-5.7978,-5.7978,-5.7978,-5.7978,-5.7978,-5.7978,-5.7978,-5.7978,-5.7978,-5.7978,-5.7978,-5.7978,-5.7978,-5.7978,-5.8047,-5.8796,-5.9319,-5.9509,-6.0189,-6.0349,-5.9685,-5.9511,-5.8915,-5.7934,-5.753,-5.753,-5.7473,-5.7011,-5.7025,-5.7928,-5.7805,-5.8054,-5.8863,-5.9079,-5.9284,-5.9986,-6.0508,-6.0597,-6.0769,-6.08,-6.08,-6.2823,-6.2823,-6.2823,-6.2823,-6.2823,-6.2823,-6.2493,-6.1924,-6.1686,-6.0933,-5.9905,-5.9625,-5.9079,-5.8382,-5.8107,-5.7978,-5.7978,-5.7978,-5.7978,-5.7978,-5.7978,-5.7978,-5.7978,-5.7978,-5.7978,-5.7886,-5.7428,-5.7042,-5.6712,-5.5702,-5.495,-5.4675,-5.4142,-5.3849,-5.383,-5.3683,-5.3537,-5.3497,-5.3314,-5.3185,-5.3185,-5.3185,-5.2931,-5.238,-5.2325,-5.2325,-5.2325,-5.2344,-5.2582,-5.317,-5.3185,-5.3316,-5.3537,-5.3537,-5.3995,-5.5005,-5.6143,-5.6914,-5.7116,-5.7666,-5.7978,-5.7978,-5.7978,-5.7978,-5.7978,-5.7978,-5.7978,-5.7997,-5.8198,-5.8309,-5.7997,-5.7978,-5.7978,-5.7978,-5.7978,-5.7978,-5.7978,-5.7978,-5.7978,-5.7978,-5.7978,-5.7978,-5.7978,-5.7978,-5.7978,-5.7978,-5.7978,-5.7978,-5.8074,-5.8673,-5.9231,-5.9408,-6.0084,-6.0117,-5.9392,-5.9108,-5.8415,-5.7261,-5.6646,-5.6656,-5.6637,-5.6041,-5.6038,-5.7257,-5.6869,-5.7378,-5.8844,-5.9221,-5.9488,-6.0366,-6.0781,-6.0769,-6.08,-6.08,-6.08,-6.2823,-6.2823,-6.2823,-6.2823,-6.2823,-6.2823,-6.2805,-6.2622,-6.1961,-6.1539,-6.1282,-6.0676,-5.9905,-5.9134,-5.8419,-5.8015,-5.7978,-5.7978,-5.7978,-5.7978,-5.7978,-5.7978,-5.7978,-5.7978,-5.7978,-5.7978,-5.7886,-5.7519,-5.6895,-5.6693,-5.6308,-5.5556,-5.539,-5.5449,-5.528,-5.4675,-5.4363,-5.4289,-5.372,-5.3277,-5.3259,-5.3259,-5.3298,-5.3243,-5.3112,-5.3075,-5.3115,-5.3133,-5.3148,-5.3203,-5.324,-5.3573,-5.4252,-5.4363,-5.5078,-5.6436,-5.6726,-5.7171,-5.7776,-5.7941,-5.7978,-5.7978,-5.7978,-5.7978,-5.7978,-5.7978,-5.7978,-5.7978,-5.8657,-5.8804,-5.8217,-5.8235,-5.8162,-5.8088,-5.8033,-5.8052,-5.7978,-5.7978,-5.7978,-5.7978,-5.7978,-5.7978,-5.7978,-5.7978,-5.7978,-5.7978,-5.7978,-5.7978,-5.807,-5.8439,-5.8913,-5.9354,-5.9725,-5.9742,-5.8681,-5.855,-5.7742,-5.6569,-5.603,-5.5857,-5.5761,-5.5799,-5.6297,-5.6824,-5.7298,-5.8035,-5.9169,-5.9919,-6.0357,-6.08,-6.08,-6.08,-6.08,-6.08,-6.08,-6.2823,-6.2823,-6.2823,-6.2823,-6.2823,-6.2823,-6.2823,-6.2762,-6.253,-6.2071,-6.1612,-6.1282,-6.0713,-5.9924,-5.9153,-5.8492,-5.8015,-5.7978,-5.7978,-5.7978,-5.7978,-5.7978,-5.7978,-5.7978,-5.7978,-5.7978,-5.7978,-5.785,-5.7538,-5.7079,-5.6675,-5.6326,-5.5831,-5.5614,-5.5537,-5.5317,-5.5152,-5.5115,-5.484,-5.473,-5.4693,-5.473,-5.473,-5.4675,-5.372,-5.3185,-5.3185,-5.3185,-5.3427,-5.394,-5.3977,-5.4344,-5.5097,-5.5666,-5.6161,-5.6767,-5.7281,-5.7703,-5.7941,-5.7978,-5.7978,-5.7978,-5.7978,-5.7978,-5.7978,-5.7978,-5.7978,-5.8125,-5.8749,-5.8982,-5.8988,-5.9226,-5.9318,-5.8896,-5.8767,-5.8529,-5.8125,-5.7978,-5.7978,-5.7978,-5.7978,-5.7978,-5.7978,-5.7978,-5.7978,-5.7978,-5.7978,-5.7978,-5.807,-5.8415,-5.8835,-5.9338,-5.977,-5.9863,-5.9254,-5.8607,-5.7819,-5.6492,-5.5722,-5.5742,-5.5703,-5.5684,-5.6077,-5.6288,-5.7049,-5.8127,-5.9019,-6.0077,-6.0627,-6.08,-6.08,-6.08,-6.08,-6.08,-6.08,-6.2823,-6.2823,-6.2823,-6.2823,-6.2823,-6.2823,-6.2823,-6.2823,-6.2805,-6.2493,-6.2034,-6.1979,-6.1539,-6.0805,-6.0217,-5.9538,-5.8786,-5.8529,-5.84,-5.84,-5.8382,-5.8235,-5.8015,-5.7978,-5.7978,-5.7978,-5.7978,-5.7978,-5.7941,-5.7464,-5.7207,-5.7134,-5.662,-5.6381,-5.6326,-5.6124,-5.5959,-5.5941,-5.5743,-5.5596,-5.5614,-5.5614,-5.5614,-5.5445,-5.4528,-5.3995,-5.3977,-5.3977,-5.4216,-5.4693,-5.4785,-5.5152,-5.5941,-5.6748,-5.7189,-5.7244,-5.7685,-5.7978,-5.7978,-5.7978,-5.7978,-5.7978,-5.7978,-5.7978,-5.8015,-5.8235,-5.8253,-5.8309,-5.9281,-5.9942,-5.9887,-6.0548,-6.0639,-5.9533,-5.9203,-5.8872,-5.8125,-5.7978,-5.7978,-5.7978,-5.7978,-5.7978,-5.7978,-5.7978,-5.7978,-5.7978,-5.7978,-5.7978,-5.8047,-5.826,-5.8735,-5.9266,-5.9628,-5.9717,-5.9331,-5.8781,-5.805,-5.6819,-5.5722,-5.5684,-5.5684,-5.5684,-5.578,-5.5934,-5.6665,-5.778,-5.8896,-6.0031,-6.0512,-6.0742,-6.08,-6.08,-6.08,-6.08,-6.08,-6.2823,-6.2823,-6.2823,-6.2823,-6.2823,-6.2823,-6.2823,-6.2823,-6.2823,-6.275,-6.2658,-6.275,-6.2273,-6.1686,-6.1392,-6.1062,-6.0401,-5.968,-5.9276,-5.9203,-5.9203,-5.8786,-5.8143,-5.8217,-5.8198,-5.8107,-5.7997,-5.7978,-5.796,-5.7905,-5.7868,-5.7923,-5.7813,-5.7685,-5.7886,-5.7134,-5.6822,-5.6693,-5.6161,-5.5776,-5.5651,-5.5816,-5.5853,-5.5798,-5.5647,-5.5592,-5.5574,-5.5522,-5.5445,-5.5556,-5.5611,-5.5996,-5.6767,-5.7501,-5.7923,-5.7886,-5.7978,-5.7978,-5.7978,-5.7978,-5.8015,-5.8143,-5.8052,-5.8162,-5.84,-5.8859,-5.8969,-5.8731,-6.0052,-6.1172,-6.0768,-6.1704,-6.1759,-5.9716,-5.9423,-5.9024,-5.8327,-5.7997,-5.7978,-5.7978,-5.7978,-5.7978,-5.7978,-5.7978,-5.7978,-5.7978,-5.7978,-5.7978,-5.8001,-5.8142,-5.8484,-5.914,-5.9592,-5.974,-5.9332,-5.8838,-5.8069,-5.7203,-5.6222,-5.5684,-5.5684,-5.5703,-5.5895,-5.6145,-5.7453,-5.8569,-5.9627,-6.0608,-6.0627,-6.08,-6.08,-6.08,-6.08,-6.08,-6.08,-6.2823,-6.2823,-6.2823,-6.2823,-6.2823,-6.2823,-6.2823,-6.2823,-6.2823,-6.2823,-6.2823,-6.2823,-6.2677,-6.2328,-6.1869,-6.1777,-6.1936,-6.1227,-6.0566,-6.0126,-6.0052,-5.963,-5.9061,-5.9373,-5.9373,-5.8804,-5.8253,-5.7997,-5.8015,-5.8015,-5.7978,-5.7978,-5.7997,-5.7978,-5.7978,-5.7758,-5.7629,-5.7593,-5.7373,-5.7244,-5.7244,-5.7226,-5.7226,-5.7244,-5.7262,-5.7244,-5.7207,-5.618,-5.5904,-5.64,-5.6418,-5.6785,-5.7501,-5.785,-5.7978,-5.7978,-5.7978,-5.7978,-5.7997,-5.8015,-5.829,-5.8694,-5.8822,-5.9134,-5.9557,-5.9869,-5.9905,-5.9703,-6.0841,-6.1447,-6.1465,-6.2144,-6.212,-6.0988,-6.0364,-5.9703,-5.8877,-5.8327,-5.8033,-5.7978,-5.7978,-5.7978,-5.7978,-5.7978,-5.7978,-5.7978,-5.7978,-5.7997,-5.8047,-5.8282,-5.8693,-5.9285,-5.959,-5.9934,-5.9863,-5.9511,-5.88,-5.7992,-5.703,-5.6299,-5.6145,-5.6126,-5.6261,-5.6876,-5.8165,-5.9242,-6.0319,-6.08,-6.08,-6.08,-6.08,-6.08,-6.08,-6.08,-6.08,-6.2823,-6.2823,-6.2823,-6.2823,-6.2823,-6.2823,-6.2823,-6.2823,-6.2823,-6.2823,-6.2823,-6.2823,-6.2823,-6.2713,-6.2254,-6.2346,-6.2725,-6.2273,-6.1777,-6.1282,-6.0933,-6.0419,-5.9771,-6.0102,-6.0199,-5.9685,-5.9153,-5.8896,-5.8859,-5.8602,-5.8455,-5.8419,-5.8162,-5.7997,-5.7978,-5.7978,-5.7978,-5.7978,-5.796,-5.7978,-5.7978,-5.7978,-5.7978,-5.7978,-5.7978,-5.7978,-5.7905,-5.6969,-5.673,-5.7152,-5.7244,-5.7501,-5.7941,-5.7978,-5.7978,-5.7978,-5.8015,-5.8125,-5.8364,-5.8492,-5.8786,-5.9465,-5.9643,-5.9826,-6.0346,-6.0603,-6.0768,-6.0548,-6.141,-6.1924,-6.1777,-6.2328,-6.2511,-6.2108,-6.1318,-6.0401,-5.9386,-5.8492,-5.8052,-5.7978,-5.7978,-5.7978,-5.7978,-5.7978,-5.7978,-5.7978,-5.7997,-5.8138,-5.8235,-5.8487,-5.8971,-5.946,-5.9839,-6.0212,-6.0582,-6.0185,-5.9569,-5.8781,-5.7953,-5.7415,-5.7088,-5.7126,-5.7223,-5.7915,-5.9011,-5.955,-6.0512,-6.0723,-6.08,-6.08,-6.08,-6.08,-6.08,-6.08,-6.08,-6.2823,-6.2823,-6.2823,-6.2823,-6.2823,-6.2823,-6.2823,-6.2823,-6.2823,-6.2823,-6.2823,-6.2823,-6.2823,-6.2823,-6.2695,-6.275,-6.2805,-6.275,-6.2677,-6.2438,-6.1979,-6.13,-6.0786,-6.0529,-6.0401,-6.0456,-6.0309,-6.0272,-6.0089,-5.9533,-5.9258,-5.9208,-5.8657,-5.818,-5.8364,-5.818,-5.8253,-5.8198,-5.8125,-5.8125,-5.8015,-5.7978,-5.7978,-5.7978,-5.7978,-5.7978,-5.7941,-5.7813,-5.7831,-5.796,-5.7886,-5.7886,-5.7997,-5.8015,-5.8143,-5.818,-5.8107,-5.8621,-5.9093,-5.9258,-5.963,-6.0364,-6.0474,-6.0529,-6.0786,-6.1337,-6.1447,-6.097,-6.1942,-6.2456,-6.2034,-6.2365,-6.2732,-6.2713,-6.1942,-6.086,-5.952,-5.8676,-5.8419,-5.8217,-5.807,-5.8033,-5.8033,-5.7978,-5.8024,-5.8097,-5.8101,-5.8326,-5.8673,-5.8952,-5.9248,-5.9661,-6.0103,-6.0378,-6.0731,-6.055,-5.9992,-5.9742,-5.8973,-5.8492,-5.803,-5.8011,-5.8165,-5.8877,-5.9531,-6.0069,-6.0416,-6.0666,-6.08,-6.08,-6.08,-6.08,-6.08,-6.08,-6.08,-6.2823,-6.2823,-6.2823,-6.2823,-6.2823,-6.2823,-6.2823,-6.2823,-6.2823,-6.2823,-6.2823,-6.2823,-6.2823,-6.2823,-6.2823,-6.2823,-6.2823,-6.2823,-6.2823,-6.2787,-6.264,-6.242,-6.1924,-6.097,-6.075,-6.1153,-6.0805,-6.0401,-6.0401,-6.0217,-6.0089,-6.0089,-5.9813,-5.9703,-5.9758,-5.9667,-5.9428,-5.8988,-5.8896,-5.8584,-5.8125,-5.807,-5.7978,-5.7978,-5.8033,-5.8033,-5.7997,-5.7978,-5.7978,-5.7978,-5.7978,-5.7978,-5.8125,-5.8584,-5.8896,-5.8951,-5.941,-5.9813,-6.0015,-6.0107,-6.0474,-6.1172,-6.1282,-6.1539,-6.2144,-6.2346,-6.2383,-6.2236,-6.2615,-6.2732,-6.2548,-6.2658,-6.2805,-6.2688,-6.2126,-6.1263,-6.0346,-5.9924,-5.9575,-5.9019,-5.8914,-5.8657,-5.8309,-5.8194,-5.8275,-5.8489,-5.8621,-5.8693,-5.9121,-5.9441,-5.9757,-5.9996,-6.0338,-6.0565,-6.0719,-6.0627,-6.0531,-6.0531,-6.0069,-5.9531,-5.9069,-5.8761,-5.8992,-5.9435,-5.9992,-6.0531,-6.0627,-6.0781,-6.08,-6.08,-6.08,-6.08,-6.08,-6.08,-6.08,-6.2823,-6.2823,-6.2823,-6.2823,-6.2823,-6.2823,-6.2823,-6.2823,-6.2823,-6.2823,-6.2823,-6.2823,-6.2823,-6.2823,-6.2823,-6.2823,-6.2823,-6.2823,-6.2823,-6.2823,-6.2787,-6.2768,-6.2548,-6.1741,-6.1667,-6.2016,-6.1649,-6.1484,-6.1374,-6.1098,-6.0915,-6.0823,-6.0566,-6.0419,-6.0327,-6.0382,-6.0175,-5.9771,-5.9698,-5.9423,-5.9043,-5.9006,-5.9024,-5.9006,-5.9006,-5.9006,-5.9006,-5.9024,-5.8877,-5.8621,-5.8529,-5.8657,-5.9024,-5.9428,-5.9703,-5.974,-6.0181,-6.0511,-6.086,-6.0915,-6.1282,-6.1924,-6.2108,-6.2328,-6.2677,-6.2823,-6.2823,-6.2768,-6.2823,-6.2823,-6.2823,-6.2823,-6.2823,-6.2743,-6.2365,-6.1777,-6.0988,-6.0566,-6.0217,-5.985,-5.9685,-5.9575,-5.9066,-5.9181,-5.9252,-5.9303,-5.9492,-5.9551,-5.9706,-5.9988,-6.0208,-6.0397,-6.0495,-6.069,-6.0769,-6.0704,-6.0666,-6.0723,-6.0646,-6.0204,-5.9954,-5.955,-5.9781,-6.0108,-6.0531,-6.08,-6.08,-6.08,-6.08,-6.08,-6.08,-6.08,-6.08,-6.08,-6.08,-6.2823,-6.2823,-6.2823,-6.2823,-6.2823,-6.2823,-6.2823,-6.2823,-6.2823,-6.2823,-6.2823,-6.2823,-6.2823,-6.2823,-6.2823,-6.2823,-6.2823,-6.2823,-6.2823,-6.2823,-6.2823,-6.2823,-6.2787,-6.264,-6.2567,-6.2677,-6.2787,-6.2677,-6.242,-6.1961,-6.1759,-6.1612,-6.108,-6.0768,-6.0951,-6.0823,-6.0639,-6.0566,-6.0529,-6.0382,-6.0162,-6.0107,-6.007,-6.0089,-6.0107,-6.0144,-6.0181,-6.0236,-6.0034,-5.9478,-5.9368,-5.9625,-6.0236,-6.0382,-6.0529,-6.0603,-6.0768,-6.1153,-6.1575,-6.1741,-6.1979,-6.2585,-6.2732,-6.2823,-6.2823,-6.2823,-6.2823,-6.2823,-6.2823,-6.2823,-6.2823,-6.2823,-6.2823,-6.283,-6.2775,-6.2524,-6.1893,-6.111,-6.0621,-6.0553,-6.0535,-6.0606,-6.0642,-6.0852,-6.0981,-6.0586,-6.0597,-6.0489,-6.0429,-6.0422,-6.0559,-6.0647,-6.0714,-6.0757,-6.08,-6.0781,-6.0762,-6.0781,-6.0762,-6.0569,-6.0569,-6.0396,-6.0569,-6.08,-6.08,-6.08,-6.08,-6.08,-6.08,-6.08,-6.08,-6.08,-6.08,-6.08,-6.08,-6.2823,-6.2823,-6.2823,-6.2823,-6.2823,-6.2823,-6.2823,-6.2823,-6.2823,-6.2823,-6.2823,-6.2823,-6.2823,-6.2823,-6.2823,-6.2823,-6.2823,-6.2823,-6.2823,-6.2823,-6.2823,-6.2823,-6.2823,-6.2823,-6.2823,-6.2823,-6.2823,-6.2823,-6.2713,-6.2622,-6.253,-6.2456,-6.2236,-6.2273,-6.2199,-6.2071,-6.1924,-6.1465,-6.1337,-6.1043,-6.0639,-6.0566,-6.0566,-6.0548,-6.0529,-6.0456,-6.0419,-6.0401,-6.0621,-6.0805,-6.0548,-6.0358,-6.0639,-6.1062,-6.1318,-6.1465,-6.1924,-6.2328,-6.2493,-6.2493,-6.2603,-6.275,-6.2897,-6.2823,-6.2823,-6.289,-6.2853,-6.2798,-6.2823,-6.2897,-6.2823,-6.2823,-6.283,-6.291,-6.3168,-6.3334,-6.3121,-6.2625,-6.2004,-6.1653,-6.1717,-6.1763,-6.1209,-6.1669,-6.1824,-6.1854,-6.1754,-6.1492,-6.1226,-6.0987,-6.087,-6.0896,-6.08,-6.08,-6.08,-6.08,-6.08,-6.0916,-6.0973,-6.0819,-6.0819,-6.0954,-6.1012,-6.0935,-6.08,-6.08,-6.08,-6.08,-6.08,-6.08,-6.08,-6.08,-6.08,-6.08,-6.08,-6.2823,-6.2823,-6.2823,-6.2823,-6.2823,-6.2823,-6.2823,-6.2823,-6.2823,-6.2823,-6.2823,-6.2823,-6.2823,-6.2823,-6.2823,-6.2823,-6.2823,-6.2823,-6.2823,-6.2823,-6.2823,-6.2823,-6.2823,-6.2823,-6.2823,-6.2823,-6.2823,-6.2823,-6.2823,-6.2823,-6.2768,-6.2823,-6.2823,-6.2713,-6.2823,-6.2823,-6.2548,-6.2254,-6.2163,-6.1942,-6.1612,-6.1514,-6.1539,-6.1539,-6.1539,-6.1539,-6.1575,-6.1575,-6.1777,-6.1942,-6.1759,-6.152,-6.1575,-6.1924,-6.2144,-6.2273,-6.2511,-6.2805,-6.2805,-6.2823,-6.2805,-6.2842,-6.3154,-6.3374,-6.3558,-6.3723,-6.3741,-6.3521,-6.3392,-6.3301,-6.2879,-6.2823,-6.288,-6.3168,-6.3431,-6.3699,-6.3829,-6.3502,-6.3183,-6.2896,-6.2941,-6.2946,-6.2836,-6.2933,-6.2952,-6.3121,-6.3274,-6.2995,-6.1799,-6.1529,-6.1149,-6.1031,-6.0858,-6.08,-6.08,-6.08,-6.08,-6.1012,-6.13,-6.1069,-6.0896,-6.112,-6.1331,-6.1089,-6.08,-6.08,-6.08,-6.08,-6.08,-6.08,-6.08,-6.08,-6.08,-6.08,-6.08,-6.2823,-6.2823,-6.2823,-6.2823,-6.2823,-6.2823,-6.2823,-6.2823,-6.2823,-6.2823,-6.2823,-6.2823,-6.2823,-6.2823,-6.2823,-6.2823,-6.2823,-6.2823,-6.2823,-6.2823,-6.2823,-6.2823,-6.2823,-6.2823,-6.2823,-6.2823,-6.2823,-6.2823,-6.2823,-6.2823,-6.2823,-6.2823,-6.2823,-6.2823,-6.2823,-6.2823,-6.2768,-6.2677,-6.2677,-6.2677,-6.2615,-6.2615,-6.2622,-6.2603,-6.2585,-6.2585,-6.2567,-6.2603,-6.2732,-6.2823,-6.2823,-6.2823,-6.2823,-6.2823,-6.2823,-6.2743,-6.2787,-6.2805,-6.2823,-6.2823,-6.2835,-6.297,-6.3613,-6.4127,-6.4365,-6.4695,-6.4714,-6.442,-6.4108,-6.3723,-6.3117,-6.3015,-6.3205,-6.3479,-6.368,-6.4039,-6.4275,-6.4079,-6.4042,-6.4082,-6.3971,-6.3917,-6.4232,-6.4462,-6.44,-6.4344,-6.4479,-6.4262,-6.3051,-6.2235,-6.1916,-6.18,-6.18,-6.1781,-6.1781,-6.1704,-6.1589,-6.1627,-6.1897,-6.1723,-6.1473,-6.182,-6.1973,-6.1089,-6.08,-6.0819,-6.0819,-6.08,-6.08,-6.08,-6.08,-6.08,-6.08,-6.08,-6.0916,-6.2823,-6.2823,-6.2823,-6.2823,-6.2805,-6.2805,-6.283,-6.2823,-6.283,-6.2823,-6.2823,-6.2823,-6.2823,-6.2823,-6.2823,-6.2823,-6.2823,-6.2823,-6.2823,-6.2823,-6.2823,-6.2823,-6.2823,-6.2823,-6.2842,-6.2823,-6.2879,-6.2915,-6.2823,-6.2823,-6.2823,-6.2823,-6.2823,-6.2823,-6.2823,-6.2823,-6.2823,-6.2823,-6.2823,-6.2823,-6.2823,-6.2823,-6.2823,-6.2823,-6.2823,-6.2823,-6.2817,-6.2823,-6.2823,-6.2823,-6.2823,-6.286,-6.2989,-6.2989,-6.2952,-6.2823,-6.2823,-6.2823,-6.2934,-6.2872,-6.3227,-6.3686,-6.4145,-6.4549,-6.4971,-6.5264,-6.5411,-6.5063,-6.4549,-6.4035,-6.3913,-6.3796,-6.3565,-6.3825,-6.4388,-6.4856,-6.4938,-6.4885,-6.4679,-6.4645,-6.4732,-6.4852,-6.5083,-6.531,-6.5236,-6.5,-6.4948,-6.4782,-6.4012,-6.3339,-6.2993,-6.2954,-6.2981,-6.2981,-6.2981,-6.2897,-6.2801,-6.2704,-6.282,-6.2858,-6.2743,-6.2904,-6.2654,-6.182,-6.1166,-6.0993,-6.0935,-6.0896,-6.0935,-6.1031,-6.0935,-6.0839,-6.1185,-6.1512,-6.155,-6.2823,-6.283,-6.3091,-6.3215,-6.3215,-6.3215,-6.3215,-6.3168,-6.2935,-6.2823,-6.2823,-6.2823,-6.2823,-6.2823,-6.2823,-6.2823,-6.2823,-6.2823,-6.2823,-6.2823,-6.2823,-6.2823,-6.286,-6.2842,-6.3135,-6.3356,-6.3466,-6.3227,-6.2817,-6.2823,-6.286,-6.2823,-6.2823,-6.2823,-6.2823,-6.2823,-6.286,-6.286,-6.286,-6.286,-6.2842,-6.2842,-6.2842,-6.2823,-6.2842,-6.2823,-6.2872,-6.3337,-6.3466,-6.3576,-6.3888,-6.4053,-6.4071,-6.398,-6.3686,-6.3062,-6.2879,-6.3062,-6.3374,-6.3503,-6.387,-6.464,-6.5052,-6.5466,-6.5925,-6.6237,-6.6292,-6.5852,-6.5254,-6.483,-6.5107,-6.4948,-6.4954,-6.5087,-6.5496,-6.5654,-6.5571,-6.5552,-6.5348,-6.5128,-6.5054,-6.518,-6.5494,-6.569,-6.5821,-6.5724,-6.5474,-6.5128,-6.4743,-6.4378,-6.3916,-6.3673,-6.3635,-6.3647,-6.3685,-6.3692,-6.3743,-6.3724,-6.3762,-6.3782,-6.3743,-6.3801,-6.3358,-6.2627,-6.205,-6.1647,-6.13,-6.1339,-6.132,-6.1358,-6.1493,-6.1666,-6.1993,-6.2224,-6.2281,-6.2823,-6.283,-6.3243,-6.3431,-6.3431,-6.3431,-6.3408,-6.3358,-6.2965,-6.2823,-6.2823,-6.2823,-6.2823,-6.2823,-6.2823,-6.2823,-6.2823,-6.2823,-6.2823,-6.2879,-6.308,-6.3099,-6.3099,-6.3337,-6.3741,-6.4255,-6.4328,-6.398,-6.3594,-6.3282,-6.3117,-6.3172,-6.3117,-6.3062,-6.3135,-6.3466,-6.322,-6.3275,-6.3294,-6.3282,-6.3099,-6.3062,-6.308,-6.3062,-6.308,-6.3191,-6.3532,-6.4016,-6.4292,-6.4475,-6.4824,-6.5246,-6.5301,-6.5319,-6.4677,-6.3594,-6.3312,-6.3755,-6.4236,-6.4354,-6.4793,-6.5932,-6.6254,-6.6544,-6.6953,-6.7221,-6.732,-6.6751,-6.6035,-6.5766,-6.6147,-6.6224,-6.6325,-6.6546,-6.6634,-6.6666,-6.6323,-6.6154,-6.6025,-6.5761,-6.5489,-6.548,-6.5736,-6.5808,-6.5878,-6.5878,-6.5647,-6.557,-6.5243,-6.5109,-6.4724,-6.432,-6.4147,-6.4166,-6.4224,-6.4339,-6.4416,-6.4512,-6.4628,-6.4724,-6.4609,-6.4532,-6.4051,-6.3705,-6.3224,-6.2801,-6.23,-6.1935,-6.2089,-6.2224,-6.23,-6.2435,-6.2647,-6.2878,-6.3012,-6.2823,-6.2805,-6.2886,-6.2886,-6.2965,-6.3014,-6.2935,-6.2984,-6.2861,-6.2823,-6.2823,-6.2823,-6.2823,-6.2823,-6.2823,-6.2823,-6.2823,-6.2934,-6.297,-6.3062,-6.3613,-6.3925,-6.4079,-6.4732,-6.4908,-6.5285,-6.5271,-6.511,-6.4875,-6.4368,-6.3943,-6.3943,-6.3925,-6.3925,-6.398,-6.4383,-6.5007,-6.4971,-6.4934,-6.4585,-6.4053,-6.3925,-6.3925,-6.3925,-6.398,-6.4182,-6.4659,-6.4989,-6.5154,-6.5191,-6.5283,-6.5356,-6.5319,-6.5319,-6.5283,-6.5063,-6.5059,-6.5243,-6.5628,-6.549,-6.5897,-6.6942,-6.7085,-6.7277,-6.759,-6.7712,-6.7614,-6.7622,-6.6859,-6.6722,-6.709,-6.6986,-6.7071,-6.7455,-6.7869,-6.7596,-6.7186,-6.6609,-6.6494,-6.6186,-6.5836,-6.5747,-6.5865,-6.5865,-6.5878,-6.5878,-6.5859,-6.5782,-6.5686,-6.5532,-6.5455,-6.5051,-6.4859,-6.4878,-6.4839,-6.4936,-6.4974,-6.5166,-6.5282,-6.5455,-6.532,-6.5186,-6.5436,-6.5051,-6.4493,-6.3974,-6.3531,-6.3243,-6.3128,-6.3108,-6.3166,-6.3185,-6.3205,-6.3455,-6.3858,-6.3705,-6.3745,-6.4,-6.4101,-6.408,-6.3813,-6.3702,-6.359,-6.3049,-6.2823,-6.2823,-6.2823,-6.2823,-6.2805,-6.2823,-6.2823,-6.289,-6.3301,-6.3539,-6.3704,-6.4328,-6.4769,-6.4908,-6.5441,-6.5877,-6.6425,-6.6742,-6.7086,-6.6598,-6.5617,-6.4787,-6.4787,-6.4787,-6.4787,-6.4787,-6.5118,-6.5246,-6.5264,-6.5264,-6.5099,-6.4861,-6.4787,-6.4787,-6.4769,-6.4769,-6.5026,-6.5356,-6.5797,-6.5944,-6.6072,-6.6329,-6.6659,-6.6659,-6.6678,-6.6678,-6.6678,-6.6659,-6.6701,-6.6727,-6.6529,-6.7212,-6.7856,-6.79,-6.7827,-6.8017,-6.787,-6.7669,-6.7677,-6.7693,-6.7866,-6.8347,-6.8583,-6.8678,-6.8859,-6.8981,-6.8485,-6.7975,-6.7301,-6.6878,-6.6532,-6.6224,-6.6147,-6.6013,-6.5917,-6.5897,-6.5878,-6.5878,-6.584,-6.582,-6.5763,-6.5743,-6.5724,-6.5647,-6.5667,-6.559,-6.559,-6.5474,-6.557,-6.557,-6.5724,-6.5782,-6.582,-6.5878,-6.5878,-6.5397,-6.4955,-6.4647,-6.4128,-6.3628,-6.3782,-6.4051,-6.4147,-6.4282,-6.4686,-6.5044,-6.4786,-6.4786,-6.4885,-6.4935,-6.4902,-6.4555,-6.437,-6.4274,-6.359,-6.3238,-6.3163,-6.3091,-6.2941,-6.2805,-6.2842,-6.2952,-6.3209,-6.3815,-6.42,-6.4604,-6.5136,-6.5558,-6.5874,-6.629,-6.7054,-6.7626,-6.8034,-6.8213,-6.7864,-6.7165,-6.6279,-6.5658,-6.5613,-6.5613,-6.565,-6.5907,-6.6109,-6.6109,-6.609,-6.5907,-6.5668,-6.5613,-6.5613,-6.5595,-6.5613,-6.5687,-6.598,-6.6421,-6.6769,-6.6898,-6.721,-6.7448,-6.7485,-6.743,-6.7448,-6.7448,-6.743,-6.755,-6.7553,-6.7631,-6.8163,-6.8666,-6.8686,-6.8423,-6.8003,-6.7818,-6.7818,-6.793,-6.8173,-6.8698,-6.9374,-6.9789,-6.9846,-6.9841,-6.9962,-6.9404,-6.8879,-6.8302,-6.7725,-6.734,-6.6974,-6.6436,-6.6282,-6.6032,-6.5917,-6.5897,-6.5878,-6.5878,-6.5878,-6.5878,-6.5878,-6.5878,-6.5878,-6.5878,-6.5878,-6.5878,-6.5878,-6.5878,-6.5878,-6.5878,-6.5878,-6.5878,-6.5878,-6.5878,-6.5878,-6.5705,-6.5263,-6.4628,-6.4128,-6.457,-6.4974,-6.5224,-6.5493,-6.5801,-6.5871,-6.5795,-6.5722,-6.4837,-6.4537,-6.4518,-6.4407,-6.4407,-6.4444,-6.4313,-6.4177,-6.3977,-6.3745,-6.3215,-6.2923,-6.2989,-6.3319,-6.3943,-6.4053,-6.4699,-6.5371,-6.6006,-6.6486,-6.6913,-6.7601,-6.8296,-6.8522,-6.8926,-6.8918,-6.8739,-6.8779,-6.7691,-6.6684,-6.6644,-6.6489,-6.6576,-6.6922,-6.7126,-6.7136,-6.7155,-6.6898,-6.6594,-6.6455,-6.6507,-6.6481,-6.6528,-6.6751,-6.7475,-6.7475,-6.7448,-6.7448,-6.7595,-6.7669,-6.7669,-6.7669,-6.7669,-6.7669,-6.781,-6.7968,-6.8227,-6.847,-6.9182,-6.9864,-6.9775,-6.8891,-6.8344,-6.7956,-6.7989,-6.8363,-6.8614,-6.9087,-6.9664,-7.0126,-7.0344,-7.047,-7.0456,-7.0187,-6.9744,-6.9417,-6.8859,-6.8302,-6.7763,-6.7225,-6.6763,-6.6571,-6.6032,-6.5955,-6.5897,-6.5878,-6.5878,-6.5878,-6.5878,-6.5878,-6.5878,-6.5878,-6.5878,-6.5878,-6.5878,-6.5878,-6.5878,-6.5878,-6.5878,-6.5878,-6.5878,-6.5878,-6.5878,-6.5878,-6.5859,-6.532,-6.5109,-6.557,-6.584,-6.5743,-6.5724,-6.584,-6.5878,-6.5878,-6.5853,-6.5466,-6.531,-6.5299,-6.4971,-6.4835,-6.4765,-6.4518,-6.4197,-6.3952,-6.3659,-6.3312,-6.3058,-6.3447,-6.3741,-6.4218,-6.5228,-6.5851,-6.6605,-6.7259,-6.7848,-6.8357,-6.8622,-6.9131,-6.9414,-6.9701,-6.9757,-6.9588,-6.9682,-6.9221,-6.8409,-6.7871,-6.779,-6.7852,-6.7675,-6.7694,-6.7714,-6.7714,-6.7494,-6.7463,-6.7603,-6.7741,-6.7741,-6.7741,-6.7852,-6.8099,-6.7826,-6.7749,-6.7669,-6.7669,-6.7669,-6.7722,-6.7722,-6.7749,-6.781,-6.7989,-6.844,-6.8844,-6.8999,-6.9453,-6.9901,-6.9682,-6.9087,-6.8686,-6.8563,-6.8511,-6.8773,-6.9106,-6.9664,-6.9938,-7.0397,-7.0695,-7.0838,-7.0821,-7.0648,-7.0437,-7.009,-6.9802,-6.9167,-6.8552,-6.7975,-6.7552,-6.7167,-6.6551,-6.6032,-6.5955,-6.5878,-6.5878,-6.5878,-6.5878,-6.5878,-6.5878,-6.5878,-6.5878,-6.5878,-6.5878,-6.5878,-6.5878,-6.5878,-6.5878,-6.5878,-6.5878,-6.5878,-6.5878,-6.5878,-6.5878,-6.5878,-6.5878,-6.5878,-6.5878,-6.5859,-6.5878,-6.5878,-6.5878,-6.5878,-6.5878,-6.5878,-6.5878,-6.5872,-6.5743,-6.5684,-6.5696,-6.5708,-6.52,-6.4582,-6.454,-6.4136,-6.3886,-6.4127,-6.4825,-6.533,-6.6229,-6.7107,-6.7817,-6.8462,-6.8959,-6.9231,-6.9492,-6.9701,-7.0095,-7.0298,-7.0298,-6.999,-7.0231,-6.9915,-6.9474,-6.9171,-6.894,-6.8576,-6.8235,-6.7852,-6.7749,-6.787,-6.7802,-6.7818,-6.835,-6.8507,-6.846,-6.8366,-6.8384,-6.829,-6.7989,-6.7722,-6.7669,-6.7669,-6.7669,-6.7749,-6.7836,-6.7923,-6.8123,-6.8435,-6.8932,-6.9231,-6.9683,-6.992,-7.033,-6.9938,-6.9433,-6.9171,-6.9191,-6.9042,-6.9171,-6.9701,-7.0145,-7.0266,-7.0652,-7.0824,-7.0898,-7.0898,-7.0764,-7.0706,-7.0475,-7.0321,-6.9994,-6.9379,-6.8783,-6.8456,-6.7994,-6.6994,-6.6359,-6.5955,-6.5897,-6.5878,-6.5878,-6.5878,-6.5878,-6.5878,-6.5878,-6.5878,-6.5878,-6.5878,-6.5878,-6.5878,-6.5878,-6.5878,-6.5878,-6.5878,-6.5878,-6.5878,-6.5878,-6.5878,-6.5878,-6.5878,-6.5878,-6.5878,-6.5878,-6.5878,-6.5878,-6.5878,-6.5878,-6.5878,-6.5878,-6.5878,-6.5974,-6.6724,-6.6987,-6.6947,-6.7618,-6.7398,-6.6444,-6.6422,-6.5907,-6.5262,-6.5195,-6.5854,-6.6667,-6.7217,-6.7991,-6.8945,-6.916,-6.9314,-6.9531,-6.9811,-7.0044,-7.0214,-7.0397,-7.0378,-7.0179,-7.0539,-7.0448,-7.0231,-6.9955,-6.9683,-6.9291,-6.8754,-6.8235,-6.7844,-6.8235,-6.8097,-6.8007,-6.8586,-6.8732,-6.8728,-6.8535,-6.8511,-6.8539,-6.8014,-6.7722,-6.7669,-6.781,-6.7818,-6.7844,-6.8284,-6.8464,-6.8535,-6.9018,-6.9292,-6.9413,-7.0318,-7.0686,-7.0715,-7.0282,-6.999,-6.9883,-6.9738,-6.955,-6.972,-7.0095,-7.0413,-7.0652,-7.0865,-7.0898,-7.0898,-7.0898,-7.0879,-7.0821,-7.0783,-7.061,-7.0514,-7.009,-6.961,-6.934,-6.8821,-6.7628,-6.6801,-6.6147,-6.5955,-6.607,-6.5897,-6.5897,-6.5878,-6.5878,-6.5878,-6.5878,-6.5878,-6.5878,-6.5878,-6.5878,-6.5878,-6.5878,-6.5878,-6.5878,-6.5878,-6.5878,-6.5878,-6.5878,-6.5878,-6.5878,-6.5878,-6.5878,-6.5878,-6.5878,-6.5909,-6.5931,-6.5878,-6.5878,-6.5878,-6.5878,-6.6013,-6.6744,-6.7109,-6.7263,-6.7883,-6.7798,-6.6976,-6.6803,-6.6238,-6.5774,-6.6285,-6.6932,-6.7388,-6.8471,-6.9238,-6.9718,-6.9848,-7.0095,-7.0231,-7.0198,-7.0314,-7.0478,-7.0588,-7.0603,-7.0652,-7.0838,-7.0824,-7.0652,-7.0494,-7.0131,-6.9511,-6.9042,-6.8773,-6.8344,-6.8368,-6.8284,-6.787,-6.8392,-6.8847,-6.8935,-6.8682,-6.866,-6.8869,-6.8185,-6.781,-6.7836,-6.7982,-6.821,-6.8314,-6.875,-6.8999,-6.9127,-6.9531,-7.0026,-7.0266,-7.0777,-7.0852,-7.0824,-7.0715,-7.0413,-7.0129,-7.035,-7.0282,-7.0231,-7.0428,-7.0666,-7.0852,-7.0885,-7.0898,-7.0898,-7.0898,-7.0898,-7.086,-7.086,-7.0802,-7.0783,-7.0514,-7.009,-6.9763,-6.9667,-6.8706,-6.7917,-6.734,-6.684,-6.6821,-6.6205,-6.5936,-6.5897,-6.5878,-6.5878,-6.5878,-6.5878,-6.5878,-6.5878,-6.5878,-6.5878,-6.5878,-6.5878,-6.5878,-6.5878,-6.5878,-6.5878,-6.5878,-6.5878,-6.5878,-6.5878,-6.5878,-6.5897,-6.5914,-6.5974,-6.6039,-6.5878,-6.5878,-6.5878,-6.5878,-6.607,-6.7071,-6.7821,-6.8371,-6.8805,-6.8474,-6.7846,-6.7689,-6.7289,-6.6964,-6.7431,-6.8168,-6.8333,-6.9092,-6.9847,-7.0314,-7.0362,-7.0558,-7.0637,-7.0588,-7.0622,-7.0729,-7.0652,-7.0588,-7.0838,-7.0885,-7.0885,-7.0852,-7.0885,-7.0528,-6.9974,-6.9569,-6.8978,-6.859,-6.8464,-6.8253,-6.8091,-6.8387,-6.8956,-6.904,-6.891,-6.8728,-6.8906,-6.8586,-6.7982,-6.8148,-6.8416,-6.8773,-6.8932,-6.9231,-6.955,-6.972,-7.0078,-7.0509,-7.0777,-7.0838,-7.0898,-7.0885,-7.0898,-7.0729,-7.0459,-7.0637,-7.0622,-7.0622,-7.0743,-7.0805,-7.0898,-7.0898,-7.0898,-7.0898,-7.0898,-7.0898,-7.0898,-7.0898,-7.0898,-7.0898,-7.0841,-7.0456,-7.0225,-7.0167,-6.9821,-6.9186,-6.859,-6.8109,-6.7609,-6.7013,-6.6436,-6.634,-6.6205,-6.6186,-6.609,-6.5878,-6.5878,-6.5878,-6.5878,-6.5878,-6.5878,-6.5878,-6.5878,-6.5878,-6.5878,-6.5878,-6.5878,-6.5878,-6.5878,-6.5878,-6.5878,-6.5921,-6.5936,-6.6026,-6.6118,-6.5878,-6.5878,-6.5878,-6.5878,-6.6167,-6.7609,-6.9225,-7.0698,-7.0301,-6.977,-6.9279,-6.9166,-6.8744,-6.8582,-6.9028,-6.9417,-6.9768,-7.0004,-7.0378,-7.07,-7.0729,-7.0871,-7.0885,-7.0838,-7.0805,-7.0852,-7.0838,-7.0743,-7.0898,-7.0898,-7.0898,-7.0898,-7.0898,-7.0748,-7.0413,-6.9884,-6.9191,-6.8821,-6.8535,-6.8229,-6.7982,-6.8487,-6.8935,-6.9021,-6.8884,-6.8932,-6.904,-6.8866,-6.859,-6.8705,-6.9021,-6.9231,-6.9492,-6.9829,-7.0025,-7.0266,-7.0637,-7.0777,-7.0865,-7.0898,-7.1071,-7.1129,-7.111,-7.0981,-7.0852,-7.0838,-7.0791,-7.0777,-7.0852,-7.0865,-7.0898,-7.0898,-7.0898,-7.0898,-7.0898,-7.0898,-7.0898,-7.0898,-7.0898,-7.0898,-7.0898,-7.0725,-7.0687,-7.0648,-7.0456,-7.0225,-6.9648,-6.934,-6.8802,-6.8148,-6.759,-6.7128,-6.6955,-6.6628,-6.6417,-6.609,-6.5878,-6.5878,-6.5878,-6.5878,-6.5878,-6.5878,-6.5878,-6.5878,-6.5878,-6.5878,-6.5878,-6.5878,-6.5878,-6.5878,-6.5878,-6.5947,-6.5992,-6.6109,-6.6212,-6.5878,-6.5878,-6.5878,-6.5878,-6.6147,-6.7686,-6.936,-7.0736,-7.07,-7.0366,-6.9865,-6.9884,-6.9511,-6.9129,-6.9626,-6.9938,-7.0198,-7.0463,-7.0681,-7.0852,-7.0898,-7.0898,-7.0898,-7.0898,-7.0898,-7.0898,-7.0898,-7.0898,-7.0898,-7.0898,-7.0898,-7.0898,-7.0898,-7.0898,-7.0652,-7.0179,-6.9588,-6.9064,-6.8705,-6.8229,-6.787,-6.8154,-6.8682,-6.8975,-6.884,-6.9042,-6.9453,-6.9314,-6.9087,-6.9169,-6.9588,-6.9847,-6.992,-7.0346,-7.0666,-7.0686,-7.0838,-7.0898,-7.0898,-7.0898,-7.1187,-7.1687,-7.1822,-7.1398,-7.1148,-7.1014,-7.1014,-7.0937,-7.0898,-7.0898,-7.0898,-7.0898,-7.0898,-7.0898,-7.0898,-7.0898,-7.0898,-7.0898,-7.0898,-7.0898,-7.0898,-7.0898,-7.0898,-7.086,-7.0706,-7.0764,-7.0648,-7.0302,-6.9917,-6.9244,-6.8629,-6.8129,-6.7513,-6.7148,-6.6667,-6.632,-6.607,-6.5878,-6.5878,-6.5878,-6.5878,-6.5878,-6.5878,-6.5878,-6.5878,-6.5878,-6.5878,-6.5878,-6.5878,-6.5878,-6.5903,-6.5986,-6.6069,-6.6172,-6.6328,-6.5878,-6.5878,-6.5878,-6.6263,-6.7013,-6.7975,-6.934,-7.0659,-7.0686,-7.0381,-7.0129,-7.0095,-6.992,-6.9757,-7.0164,-7.0448,-7.0478,-7.07,-7.0865,-7.0865,-7.0898,-7.0898,-7.0898,-7.0898,-7.0898,-7.0898,-7.0898,-7.0898,-7.0898,-7.0898,-7.0898,-7.0898,-7.0898,-7.0898,-7.0652,-7.0129,-6.9626,-6.919,-6.8773,-6.8235,-6.7956,-6.7878,-6.8563,-6.904,-6.8888,-6.9394,-6.9936,-6.9682,-6.9645,-6.9701,-7.0129,-7.0413,-7.0448,-7.0729,-7.0865,-7.0852,-7.0885,-7.1148,-7.1379,-7.1475,-7.1937,-7.2437,-7.2687,-7.2476,-7.2072,-7.186,-7.1379,-7.1014,-7.0956,-7.0898,-7.0898,-7.0898,-7.0898,-7.0898,-7.0898,-7.0898,-7.0898,-7.0898,-7.0898,-7.0898,-7.0898,-7.0898,-7.0898,-7.0898,-7.0898,-7.0879,-7.086,-7.0744,-7.0494,-7.0148,-6.9552,-6.9013,-6.8244,-6.759,-6.709,-6.659,-6.6205,-6.5974,-6.5878,-6.5878,-6.5897,-6.5897,-6.5917,-6.5897,-6.5878,-6.5878,-6.5878,-6.5878,-6.5878,-6.5878,-6.5897,-6.5974,-6.608,-6.6236,-6.6416,-6.5878,-6.5878,-6.5897,-6.6801,-6.8263,-6.8398,-6.936,-7.0742,-7.0444,-7.0179,-7.0198,-7.0179,-7.0214,-7.0266,-7.0588,-7.0777,-7.0777,-7.0852,-7.0898,-7.0898,-7.0898,-7.0898,-7.0898,-7.0898,-7.0898,-7.0898,-7.0898,-7.0898,-7.0898,-7.0898,-7.0898,-7.0898,-7.0898,-7.0898,-7.0762,-7.0198,-6.972,-6.9272,-6.8866,-6.8411,-6.8021,-6.8185,-6.8732,-6.9191,-6.9374,-6.9645,-7.0025,-7.0162,-7.0181,-7.033,-7.0543,-7.0824,-7.0852,-7.0852,-7.0885,-7.1033,-7.1091,-7.1475,-7.1918,-7.2149,-7.2783,-7.3264,-7.3577,-7.3514,-7.3187,-7.236,-7.1706,-7.1302,-7.1206,-7.0956,-7.0898,-7.0898,-7.0898,-7.0898,-7.0898,-7.0898,-7.0898,-7.0898,-7.0898,-7.0898,-7.0898,-7.0898,-7.0898,-7.0898,-7.0898,-7.0898,-7.0898,-7.0898,-7.0821,-7.0667,-7.0321,-6.9763,-6.9052,-6.8244,-6.7475,-6.6955,-6.6359,-6.609,-6.6109,-6.6128,-6.632,-6.6167,-6.5936,-6.6051,-6.6167,-6.5955,-6.5878,-6.5897,-6.5897,-6.5878,-6.5921,-6.5951,-6.6099,-6.6252,-6.6452,-6.5878,-6.5878,-6.5878,-6.6859,-6.8288,-6.8398,-6.936,-7.086,-7.0777,-7.0686,-7.07,-7.0681,-7.0666,-7.07,-7.0791,-7.0898,-7.0898,-7.0898,-7.0898,-7.0898,-7.0898,-7.0898,-7.0898,-7.0898,-7.0898,-7.0898,-7.0898,-7.0898,-7.0898,-7.0898,-7.0898,-7.0898,-7.0898,-7.0898,-7.0885,-7.035,-6.992,-6.9353,-6.9021,-6.8511,-6.7982,-6.8259,-6.8732,-6.9273,-6.9626,-7.0129,-7.0494,-7.0666,-7.07,-7.0777,-7.0824,-7.0885,-7.0898,-7.0898,-7.0898,-7.0994,-7.1456,-7.1918,-7.2379,-7.2879,-7.3591,-7.413,-7.4437,-7.4418,-7.3957,-7.286,-7.2129,-7.1783,-7.1475,-7.1206,-7.0975,-7.0975,-7.0918,-7.0918,-7.0898,-7.0898,-7.0898,-7.0898,-7.0898,-7.0898,-7.0898,-7.0898,-7.0898,-7.0898,-7.0898,-7.0898,-7.0898,-7.0898,-7.0898,-7.0802,-7.0783,-7.0302,-6.9821,-6.9052,-6.8205,-6.7494,-6.6994,-6.6821,-6.6878,-6.684,-6.6801,-6.6667,-6.6532,-6.6494,-6.6474,-6.6378,-6.6205,-6.5917,-6.5917,-6.5917,-6.5903,-6.5943,-6.6069,-6.6248,-6.6421,-6.5878,-6.5878,-6.5897,-6.6878,-6.8225,-6.8398,-6.936,-7.0706,-7.0898,-7.0898,-7.0898,-7.0898,-7.0898,-7.0898,-7.0898,-7.0898,-7.0898,-7.0898,-7.0898,-7.0898,-7.0898,-7.0898,-7.0898,-7.0898,-7.0898,-7.0898,-7.0898,-7.0898,-7.0898,-7.0898,-7.0898,-7.0898,-7.0898,-7.0898,-7.0838,-7.0494,-7.0009,-6.9333,-6.9148,-6.8682,-6.8148,-6.8586,-6.9108,-6.9626,-7.0145,-7.0588,-7.0729,-7.0898,-7.0898,-7.0898,-7.0898,-7.0898,-7.0898,-7.0898,-7.0898,-7.1129,-7.161,-7.236,-7.286,-7.3572,-7.438,-7.4918,-7.5265,-7.5245,-7.513,-7.413,-7.3283,-7.2918,-7.2649,-7.2379,-7.1802,-7.1629,-7.1245,-7.1071,-7.0956,-7.0898,-7.0898,-7.0898,-7.0898,-7.0898,-7.0898,-7.0898,-7.0898,-7.0898,-7.0898,-7.0898,-7.0898,-7.0898,-7.0898,-7.0898,-7.0898,-7.0764,-7.0225,-6.9802,-6.9109,-6.8398,-6.7782,-6.7686,-6.7667,-6.7705,-6.7705,-6.7378,-6.7167,-6.7301,-6.7282,-6.7032,-6.6801,-6.6436,-6.6032,-6.5955,-6.5942,-6.5921,-6.6077,-6.6226,-6.6393,-6.5878,-6.5878,-6.5878,-6.6801,-6.8135,-6.8379,-6.9283,-7.0571,-7.0841,-7.0898,-7.0898,-7.0898,-7.0898,-7.0898,-7.0898,-7.0898,-7.0898,-7.0898,-7.0898,-7.0898,-7.0898,-7.0898,-7.0898,-7.0898,-7.0898,-7.0898,-7.0898,-7.0898,-7.0898,-7.0898,-7.0898,-7.0898,-7.0898,-7.0898,-7.0608,-7.0164,-6.9626,-6.9472,-6.9272,-6.8891,-6.8913,-6.9127,-6.9588,-7.0112,-7.0593,-7.0852,-7.0898,-7.1033,-7.1033,-7.1245,-7.1398,-7.1572,-7.1437,-7.1437,-7.1437,-7.1668,-7.2168,-7.2918,-7.3591,-7.4418,-7.5168,-7.5726,-7.5938,-7.5918,-7.5745,-7.5284,-7.4437,-7.4014,-7.3745,-7.3014,-7.2437,-7.1898,-7.1456,-7.111,-7.0994,-7.0898,-7.0898,-7.0898,-7.0898,-7.0898,-7.0898,-7.0898,-7.0898,-7.0898,-7.0898,-7.0898,-7.0898,-7.0898,-7.0898,-7.0898,-7.0898,-7.0802,-7.0494,-7.009,-6.9687,-6.9244,-6.8552,-6.8552,-6.8571,-6.8609,-6.8538,-6.8148,-6.8052,-6.8379,-6.8282,-6.7821,-6.7417,-6.7071,-6.6647,-6.6205,-6.5948,-6.5928,-6.6005,-6.6138,-6.6332,-6.5878,-6.5878,-6.5878,-6.6474,-6.7398,-6.8071,-6.8994,-6.9937,-7.0629,-7.0898,-7.0898,-7.0898,-7.0898,-7.0898,-7.0898,-7.0898,-7.0898,-7.0898,-7.0898,-7.0898,-7.0898,-7.0898,-7.0898,-7.0898,-7.0898,-7.0898,-7.0898,-7.0898,-7.0898,-7.0898,-7.0898,-7.0898,-7.0898,-7.0898,-7.0852,-7.0448,-7.0181,-6.9902,-6.9775,-6.9607,-6.9701,-6.9866,-6.9938,-7.0298,-7.0622,-7.0791,-7.1052,-7.161,-7.186,-7.2149,-7.2495,-7.2706,-7.2591,-7.2264,-7.2264,-7.2533,-7.3014,-7.3533,-7.4303,-7.5091,-7.5784,-7.588,-7.5995,-7.5976,-7.588,-7.5861,-7.5245,-7.4976,-7.4361,-7.2976,-7.2245,-7.1745,-7.1302,-7.1071,-7.0898,-7.0898,-7.0898,-7.0898,-7.0898,-7.0898,-7.0898,-7.0898,-7.0898,-7.0898,-7.0898,-7.0898,-7.0898,-7.0898,-7.0898,-7.0898,-7.0898,-7.0783,-7.0667,-7.0264,-6.9821,-6.984,-6.9436,-6.9436,-6.9475,-6.9552,-6.9379,-6.8859,-6.8865,-6.9263,-6.8956,-6.8456,-6.8071,-6.7859,-6.7225,-6.6782,-6.6167,-6.5928,-6.5982,-6.6109,-6.6339]},{"header":{"parameterUnit":"m.s-1","parameterCategory":1,"la1":31.0,"la2":29.5877,"lo1":-88.7671,"lo2":-86.6584,"dy":0.0162,"dx":0.0185,"nx":115,"ny":88,"refTime":"2026-02-19T00:00:00:Z","depth":0,"parameterNumber":3,"parameterNumberName":"V-component_of_WINDS"},"data":[0.0,0.0,0.0,0.0,0.0,0.0,0.0,0.0,0.0,0.0,0.0,0.0,0.0,0.0,0.0,0.0,0.0,0.0,0.0,0.0,0.0,0.0,0.0,0.0,0.0,0.0,0.0,0.0,0.0,0.0,0.0,0.0,0.0,0.0,0.0,0.0,0.0,0.0,0.0,0.0,0.0,0.0,0.0,0.0,0.0,0.0,0.0,0.0,0.0,0.0,0.0,0.0,0.0,0.0,0.0,0.0,0.0,0.0,0.0,0.0,0.0,0.0,0.0,0.0,0.0,0.0,0.0,0.0,0.0,0.0,0.0,0.0,0.0,0.0,0.0,0.0,0.0,0.0,0.0,0.0,0.0,0.0,0.0,0.0,0.0,0.0,0.0,0.0,0.0,0.0,0.0,0.0,0.0,0.0,0.0,0.0,0.0,0.0,0.0,0.0,0.0,0.0,0.0,0.0,0.0,0.0,0.0,0.0,0.0,0.0,0.0,0.0,0.0,0.0,0.0,0.0,0.0,0.0,0.0,0.0,0.0,0.0,0.0,0.0,0.0,0.0,0.0,0.0,0.0,0.0,0.0,0.0,0.0,0.0,0.0,0.0,0.0,0.0,0.0,0.0,0.0,0.0,0.0,0.0,0.0,0.0,0.0,0.0,0.0,0.0,0.0,0.0,0.0,0.0,0.0,0.0,0.0,0.0,0.0,0.0,0.0,0.0,0.0,0.0,0.0,0.0,0.0,0.0,0.0,0.0,0.0,0.0,0.0,0.0,0.0,0.0,0.0,0.0,0.0,0.0,0.0,0.0,0.0,0.0,0.0,0.0,0.0,0.0,0.0,0.0,0.0,0.0,0.0,0.0,0.0,0.0,0.0,0.0,0.0,0.0,0.0,0.0,0.0,0.0,0.0,0.0,0.0,0.0,0.0,0.0,0.0,0.0,0.0,0.0,0.0,0.0,0.0,0.0,0.0,0.0,0.0,0.0,0.0,0.0,0.0,0.0,0.0,0.0,0.0,0.0,0.0,0.0,0.0,0.0,0.0,0.0,0.0,0.0,0.0,0.0,0.0,0.0,0.0,0.0,0.0,0.0,0.0,0.0,0.0,0.0,0.0,0.0,0.0,0.0,0.0,0.0,0.0,0.0,0.0,0.0,0.0,0.0,0.0,0.0,0.0,0.0,0.0,0.0,0.0,0.0,0.0,0.0,0.0,0.0,0.0,0.0,0.0,0.0,0.0,0.0,0.0,0.0,0.0,0.0,0.0,0.0,0.0,0.0,0.0,0.0,0.0,0.0,0.0,0.0,0.0,0.0,0.0,0.0,0.0,0.0,0.0,0.0,0.0,0.0,0.0,0.0,0.0,0.0,0.0,0.0,0.0,0.0,0.0,0.0,0.0,0.0,0.0,0.0,0.0,0.0,0.0,0.0,0.0,0.0,0.0,0.0,0.0,0.0,0.0,0.0,0.0,0.0,0.0,0.0,0.0,0.0,0.0,0.0,0.0,0.0,0.0,0.0,0.0,0.0,0.0,0.0,0.0,0.0,0.0,0.0,0.0,0.0,0.0,0.0,0.0,0.0,0.0,0.0,0.0,0.0,0.0,0.0,0.0,0.0,0.0,0.0,0.0,0.0,0.0,0.0,0.0,0.0,0.0,0.0,0.0,0.0,0.0,0.0,0.0,0.0,0.0,0.0,0.0,0.0,0.0,0.0,0.0,0.0,0.0,0.0,0.0,0.0,0.0,0.0,0.0,0.0,0.0,0.0,0.0,0.0,0.0,0.0,0.0,0.0,0.0,0.0,0.0,0.0,0.0,0.0,0.0,0.0,0.0,0.0,0.0,0.0,0.0,0.0,0.0,0.0,0.0,0.0,0.0,0.0,0.0,0.0,0.0,0.0,0.0,0.0,0.0,0.0,0.0,0.0,0.0,0.0,0.0,0.0,0.0,0.0,0.0,0.0,0.0,0.0,0.0,0.0,0.0,0.0,0.0,0.0,0.0,0.0,0.0,0.0,0.0,0.0,0.0,0.0,0.0,0.0,0.0,0.0,0.0,0.0,0.0,0.0,0.0,0.0,0.0,0.0,0.0,0.0,0.0,0.0,0.0,0.0,0.0,0.0,0.0,0.0,0.0,0.0,0.0,0.0,0.0,0.0,0.0,0.0,0.0,0.0,0.0,0.0,0.0,0.0,0.0,0.0,0.0,0.0,0.0,0.0,0.0,0.0,0.0,0.0,0.0,0.0,0.0,0.0,0.0,0.0,0.0,0.0,0.0,0.0,0.0,0.0,0.0,0.0,0.0,0.0,0.0,0.0,0.0,0.0,0.0,0.0,0.0,0.0,0.0,0.0,0.0,0.0,0.0,0.0,0.0,0.0,0.0,0.0,0.0,0.0,0.0,0.0,0.0,0.0,0.0,0.0,0.0,0.0,0.0,0.0,0.0,0.0,0.0,0.0,0.0,0.0,0.0,0.0,0.0,0.0,0.0,0.0,0.0,0.0,0.0,0.0,0.0,0.0,0.0,0.0,0.0,0.0,0.0,0.0,0.0,0.0,0.0,0.0,0.0,0.0,0.0,0.0,0.0,0.0,0.0,0.0,0.0,0.0,0.0,0.0,0.0,0.0,0.0,0.0,0.0,0.0,0.0,0.0,0.0,0.0,0.0,0.0,0.0,0.0,0.0,0.0,0.0,0.0,0.0,0.0,0.0,0.0,0.0,0.0,0.0,0.0,0.0,0.0,0.0,0.0,0.0,0.0,0.0,0.0,0.0,0.0,0.0,0.0,0.0,0.0,0.0,0.0,0.0,0.0,0.0,0.0,0.0,0.0,0.0,0.0,0.0,0.0,0.0,0.0,0.0,0.0,0.0,0.0,0.0,0.0,0.0,0.0,0.0,0.0,0.0,0.0,0.0,0.0,0.0,0.0,0.0,0.0,0.0,0.0,0.0,0.0,0.0,0.0,0.0,0.0,0.0,0.0,0.0,0.0,0.0,0.0,0.0,0.0,0.0,0.0,0.0,0.0,0.0,0.0,0.0,0.0,0.0,0.0,0.0,0.0,0.0,0.0,0.0,0.0,0.0,0.0,0.0,0.0,0.0,0.0,0.0,0.0,0.0,0.0,0.0,0.0,0.0,0.0,0.0,0.0,0.0,0.0,0.0,0.0,0.0,0.0,0.0,0.0,0.0,0.0,0.0,0.0,0.0,0.0,0.0,0.0,0.0,0.0,0.0,0.0,0.0,0.0,0.0,0.0,0.0,0.0,0.0,0.0,0.0,0.0,0.0,0.0,0.0,0.0,0.0,0.0,0.0,0.0,0.0,0.0,0.0,0.0,0.0,0.0,0.0,0.0,0.0,0.0,0.0,0.0,0.0,0.0,0.0,0.0,0.0,0.0,0.0,0.0,0.0,0.0,0.0,0.0,0.0,0.0,0.0,0.0,0.0,0.0,0.0,0.0,0.0,0.0,0.0,0.0,0.0,0.0,0.0,0.0,0.0,0.0,0.0,0.0,0.0,0.0,0.0,0.0,0.0,0.0,0.0,0.0,0.0,0.0,0.0,0.0,0.0,0.0,0.0,0.0,0.0,0.0,0.0,0.0,0.0,0.0,0.0,0.0,0.0,0.0,0.0,0.0,0.0,0.0,0.0,0.0,0.0,0.0,0.0,0.0,0.0,0.0,0.0,0.0,0.0,0.0,0.0,0.0,0.0,0.0,0.0,0.0,0.0,0.0,0.0,0.0,0.0,0.0,0.0,0.0,0.0,0.0,0.0,0.0,0.0,0.0,0.0,0.0,0.0,0.0,0.0,0.0,0.0,0.0,0.0,0.0,0.0,0.0,0.0,0.0,0.0,0.0,0.0,0.0,0.0,0.0,0.0,0.0,0.0,0.0,0.0,0.0,0.0,0.0,0.0,0.0,0.0,0.0,0.0,0.0,0.0,0.0,0.0,0.0,0.0,0.0,0.0,0.0,0.0,0.0,0.0,0.0,0.0,0.0,0.0,0.0,0.0,0.0,0.0,0.0,0.0,0.0,0.0,0.0,0.0,0.0,0.0,0.0,0.0,0.0,0.0,0.0,0.0,0.0,0.0,0.0,0.0,0.0,0.0,0.0,0.0,0.0,0.0,0.0,0.0,0.0,0.0,0.0,0.0,0.0,0.0,0.0,0.0,0.0,0.0,0.0,0.0,0.0,0.0,0.0,0.0,0.0,0.0,0.0,0.0,0.0,0.0,0.0,0.0,0.0,0.0,0.0,0.0,0.0,0.0,0.0,0.0,0.0,-2.698,0.0,0.0,0.0,0.0,0.0,0.0,0.0,0.0,0.0,0.0,0.0,0.0,0.0,0.0,0.0,0.0,0.0,0.0,0.0,0.0,0.0,0.0,0.0,0.0,0.0,0.0,0.0,0.0,0.0,0.0,0.0,0.0,0.0,0.0,0.0,0.0,0.0,0.0,0.0,0.0,0.0,0.0,0.0,0.0,0.0,0.0,0.0,0.0,0.0,0.0,0.0,0.0,0.0,0.0,0.0,0.0,0.0,0.0,0.0,0.0,0.0,0.0,0.0,0.0,0.0,0.0,0.0,0.0,0.0,0.0,0.0,0.0,0.0,0.0,0.0,0.0,0.0,0.0,0.0,0.0,0.0,0.0,0.0,0.0,0.0,0.0,0.0,0.0,0.0,0.0,0.0,0.0,0.0,0.0,0.0,0.0,0.0,0.0,0.0,0.0,0.0,0.0,0.0,0.0,0.0,0.0,0.0,0.0,0.0,0.0,-2.797,-2.7251,-2.6944,-2.658,-2.618,0.0,0.0,0.0,0.0,0.0,0.0,0.0,0.0,0.0,0.0,0.0,0.0,0.0,0.0,0.0,0.0,0.0,0.0,0.0,0.0,0.0,0.0,0.0,0.0,0.0,0.0,0.0,0.0,0.0,0.0,0.0,0.0,0.0,0.0,0.0,0.0,0.0,0.0,0.0,0.0,0.0,0.0,0.0,0.0,0.0,0.0,0.0,0.0,0.0,0.0,0.0,0.0,0.0,0.0,0.0,0.0,0.0,0.0,0.0,0.0,0.0,0.0,0.0,0.0,0.0,0.0,0.0,0.0,0.0,0.0,0.0,0.0,0.0,0.0,0.0,0.0,0.0,0.0,0.0,0.0,0.0,0.0,0.0,0.0,0.0,0.0,0.0,0.0,0.0,0.0,0.0,0.0,0.0,0.0,0.0,0.0,0.0,0.0,0.0,0.0,0.0,0.0,0.0,0.0,0.0,0.0,0.0,0.0,0.0,0.0,0.0,0.0,-2.6455,-2.6073,-2.5414,0.0,0.0,0.0,0.0,0.0,0.0,0.0,0.0,0.0,0.0,0.0,0.0,0.0,0.0,0.0,0.0,0.0,0.0,0.0,0.0,0.0,0.0,0.0,0.0,0.0,0.0,0.0,0.0,0.0,0.0,0.0,0.0,0.0,0.0,0.0,0.0,0.0,0.0,0.0,0.0,0.0,0.0,0.0,0.0,0.0,0.0,0.0,0.0,0.0,0.0,0.0,0.0,0.0,0.0,0.0,0.0,0.0,0.0,0.0,0.0,0.0,0.0,0.0,0.0,0.0,0.0,0.0,0.0,0.0,0.0,0.0,0.0,0.0,0.0,0.0,0.0,0.0,0.0,0.0,0.0,0.0,0.0,0.0,0.0,0.0,0.0,0.0,0.0,0.0,0.0,0.0,0.0,0.0,0.0,0.0,0.0,0.0,0.0,0.0,0.0,0.0,0.0,0.0,0.0,0.0,0.0,0.0,0.0,0.0,0.0,-2.6935,-2.66,-2.6063,0.0,-2.5026,0.0,0.0,0.0,0.0,0.0,0.0,0.0,0.0,0.0,0.0,0.0,0.0,0.0,0.0,0.0,0.0,0.0,0.0,0.0,0.0,0.0,0.0,0.0,0.0,0.0,0.0,0.0,0.0,0.0,0.0,0.0,0.0,0.0,0.0,0.0,0.0,0.0,0.0,0.0,0.0,0.0,0.0,0.0,0.0,0.0,0.0,0.0,0.0,0.0,0.0,0.0,0.0,0.0,0.0,0.0,0.0,0.0,0.0,0.0,0.0,0.0,0.0,0.0,0.0,0.0,0.0,0.0,0.0,0.0,0.0,0.0,0.0,0.0,0.0,0.0,0.0,0.0,0.0,0.0,0.0,0.0,0.0,0.0,0.0,0.0,0.0,0.0,0.0,0.0,0.0,0.0,0.0,0.0,0.0,0.0,0.0,0.0,0.0,0.0,0.0,0.0,0.0,0.0,0.0,0.0,0.0,0.0,0.0,0.0,0.0,-2.6436,-2.5771,-2.511,-2.4624,0.0,0.0,0.0,0.0,0.0,0.0,0.0,0.0,0.0,0.0,0.0,0.0,0.0,0.0,0.0,0.0,0.0,0.0,0.0,0.0,0.0,0.0,0.0,0.0,0.0,0.0,0.0,0.0,0.0,0.0,0.0,0.0,0.0,0.0,0.0,0.0,0.0,0.0,0.0,0.0,0.0,0.0,0.0,0.0,0.0,0.0,0.0,0.0,0.0,0.0,0.0,0.0,0.0,0.0,0.0,0.0,0.0,0.0,0.0,0.0,0.0,0.0,0.0,0.0,0.0,0.0,0.0,0.0,0.0,0.0,0.0,0.0,0.0,0.0,0.0,0.0,0.0,0.0,0.0,0.0,0.0,0.0,0.0,0.0,0.0,0.0,0.0,0.0,0.0,0.0,0.0,0.0,0.0,0.0,0.0,0.0,0.0,0.0,0.0,0.0,0.0,0.0,0.0,0.0,0.0,0.0,0.0,0.0,0.0,0.0,-2.6663,0.0,-2.4772,-2.4169,-2.3809,-2.3805,0.0,0.0,0.0,0.0,0.0,0.0,0.0,0.0,0.0,0.0,0.0,0.0,0.0,0.0,0.0,0.0,0.0,0.0,0.0,0.0,0.0,0.0,0.0,0.0,0.0,0.0,0.0,0.0,0.0,0.0,0.0,0.0,0.0,0.0,0.0,0.0,0.0,0.0,0.0,0.0,0.0,0.0,0.0,0.0,0.0,0.0,0.0,0.0,0.0,0.0,0.0,0.0,0.0,0.0,0.0,0.0,0.0,0.0,0.0,0.0,0.0,0.0,0.0,0.0,0.0,0.0,0.0,0.0,0.0,0.0,0.0,0.0,0.0,0.0,0.0,0.0,0.0,0.0,0.0,0.0,0.0,0.0,0.0,0.0,0.0,0.0,0.0,0.0,0.0,0.0,0.0,0.0,0.0,0.0,0.0,0.0,0.0,0.0,0.0,0.0,0.0,0.0,0.0,0.0,0.0,0.0,0.0,0.0,0.0,-2.6181,-2.5009,-2.3565,-2.329,-2.3292,0.0,0.0,0.0,0.0,0.0,0.0,0.0,0.0,0.0,0.0,0.0,0.0,0.0,0.0,0.0,0.0,0.0,0.0,0.0,0.0,0.0,0.0,0.0,0.0,0.0,0.0,0.0,0.0,0.0,0.0,0.0,0.0,0.0,0.0,0.0,0.0,0.0,0.0,0.0,0.0,0.0,0.0,0.0,0.0,0.0,0.0,0.0,0.0,0.0,0.0,0.0,0.0,0.0,0.0,0.0,0.0,0.0,0.0,0.0,0.0,0.0,0.0,0.0,0.0,0.0,0.0,0.0,0.0,0.0,0.0,0.0,0.0,0.0,0.0,0.0,0.0,0.0,0.0,0.0,0.0,0.0,0.0,0.0,0.0,0.0,0.0,0.0,0.0,0.0,0.0,0.0,0.0,0.0,0.0,0.0,0.0,0.0,0.0,0.0,0.0,0.0,0.0,0.0,0.0,0.0,0.0,0.0,0.0,0.0,-2.6172,-2.4962,-2.3906,-2.3149,-2.2843,-2.2967,0.0,0.0,0.0,0.0,0.0,0.0,0.0,0.0,0.0,0.0,0.0,0.0,0.0,0.0,0.0,0.0,0.0,0.0,0.0,0.0,0.0,0.0,0.0,0.0,0.0,0.0,0.0,0.0,0.0,0.0,0.0,0.0,0.0,0.0,0.0,0.0,0.0,0.0,0.0,0.0,0.0,0.0,0.0,0.0,0.0,0.0,0.0,0.0,0.0,0.0,0.0,0.0,0.0,0.0,0.0,0.0,0.0,0.0,0.0,0.0,0.0,0.0,0.0,0.0,0.0,0.0,0.0,0.0,0.0,0.0,0.0,0.0,0.0,0.0,0.0,0.0,0.0,0.0,0.0,0.0,0.0,0.0,0.0,0.0,0.0,0.0,0.0,0.0,0.0,0.0,0.0,0.0,0.0,0.0,0.0,0.0,0.0,0.0,0.0,0.0,0.0,0.0,0.0,0.0,0.0,0.0,0.0,0.0,0.0,-2.4834,0.0,-2.2791,0.0,-2.2306,-2.2601,0.0,0.0,0.0,0.0,0.0,0.0,0.0,0.0,0.0,0.0,0.0,0.0,0.0,0.0,0.0,0.0,0.0,0.0,0.0,0.0,0.0,0.0,0.0,0.0,0.0,0.0,0.0,0.0,0.0,0.0,0.0,0.0,0.0,0.0,0.0,0.0,0.0,0.0,0.0,0.0,0.0,0.0,0.0,0.0,0.0,0.0,0.0,0.0,0.0,0.0,0.0,0.0,0.0,0.0,0.0,0.0,0.0,0.0,0.0,0.0,0.0,0.0,0.0,0.0,0.0,0.0,0.0,0.0,0.0,0.0,0.0,0.0,0.0,0.0,0.0,0.0,0.0,0.0,0.0,0.0,0.0,0.0,0.0,0.0,0.0,0.0,0.0,0.0,0.0,0.0,0.0,0.0,0.0,0.0,0.0,0.0,0.0,0.0,0.0,0.0,0.0,0.0,0.0,0.0,0.0,0.0,0.0,0.0,-2.5322,-2.3095,-2.2384,-2.1737,-2.1126,-2.1652,-2.219,0.0,0.0,0.0,0.0,0.0,0.0,0.0,0.0,0.0,0.0,0.0,0.0,0.0,0.0,0.0,0.0,0.0,0.0,0.0,0.0,0.0,0.0,0.0,0.0,0.0,0.0,0.0,0.0,0.0,0.0,0.0,0.0,0.0,0.0,0.0,0.0,0.0,0.0,0.0,0.0,0.0,0.0,0.0,0.0,0.0,0.0,0.0,0.0,0.0,0.0,0.0,0.0,0.0,0.0,0.0,0.0,0.0,0.0,0.0,0.0,0.0,0.0,0.0,0.0,0.0,0.0,0.0,0.0,0.0,0.0,0.0,0.0,0.0,0.0,0.0,0.0,0.0,0.0,0.0,0.0,0.0,0.0,0.0,0.0,0.0,0.0,0.0,0.0,0.0,0.0,0.0,0.0,0.0,0.0,0.0,0.0,0.0,0.0,0.0,0.0,0.0,0.0,0.0,0.0,0.0,0.0,0.0,0.0,0.0,-2.172,-2.0931,-2.0363,-2.0171,-2.0295,-2.1092,0.0,0.0,0.0,0.0,0.0,0.0,0.0,0.0,0.0,0.0,0.0,0.0,0.0,0.0,0.0,0.0,0.0,0.0,0.0,0.0,0.0,0.0,0.0,0.0,0.0,0.0,0.0,0.0,0.0,0.0,0.0,0.0,0.0,0.0,0.0,0.0,0.0,0.0,0.0,0.0,0.0,0.0,0.0,0.0,0.0,0.0,0.0,0.0,0.0,0.0,0.0,0.0,0.0,0.0,0.0,0.0,0.0,0.0,0.0,0.0,0.0,0.0,0.0,0.0,0.0,0.0,0.0,0.0,0.0,0.0,0.0,0.0,0.0,0.0,0.0,0.0,0.0,0.0,0.0,0.0,0.0,0.0,0.0,0.0,0.0,0.0,0.0,0.0,0.0,0.0,0.0,0.0,0.0,0.0,0.0,0.0,0.0,0.0,0.0,0.0,0.0,0.0,0.0,0.0,0.0,0.0,0.0,0.0,0.0,-1.9891,-1.9171,-1.8765,-1.8756,-1.8972,-2.0052,-2.1997,0.0,0.0,0.0,0.0,0.0,0.0,0.0,0.0,0.0,0.0,0.0,0.0,0.0,0.0,0.0,0.0,0.0,0.0,0.0,0.0,0.0,0.0,0.0,0.0,0.0,0.0,0.0,0.0,0.0,0.0,0.0,0.0,0.0,0.0,0.0,0.0,0.0,0.0,0.0,0.0,0.0,0.0,0.0,0.0,0.0,0.0,0.0,0.0,0.0,0.0,0.0,0.0,0.0,0.0,0.0,0.0,0.0,0.0,0.0,0.0,0.0,0.0,0.0,0.0,0.0,0.0,0.0,0.0,0.0,0.0,0.0,0.0,0.0,0.0,0.0,0.0,0.0,0.0,0.0,0.0,0.0,0.0,0.0,0.0,0.0,0.0,0.0,0.0,0.0,0.0,0.0,0.0,0.0,0.0,0.0,0.0,0.0,0.0,0.0,0.0,0.0,0.0,0.0,0.0,0.0,0.0,0.0,0.0,-1.7667,-1.7115,-1.687,-1.6965,-1.7629,-1.9094,0.0,0.0,0.0,0.0,0.0,0.0,0.0,0.0,0.0,0.0,0.0,0.0,0.0,0.0,0.0,0.0,0.0,0.0,0.0,0.0,0.0,0.0,0.0,0.0,0.0,0.0,0.0,0.0,0.0,0.0,0.0,0.0,0.0,0.0,0.0,0.0,0.0,0.0,0.0,0.0,0.0,0.0,0.0,0.0,0.0,0.0,0.0,0.0,0.0,0.0,0.0,0.0,0.0,0.0,0.0,0.0,0.0,0.0,0.0,0.0,0.0,0.0,0.0,0.0,0.0,0.0,0.0,0.0,0.0,0.0,0.0,0.0,0.0,0.0,0.0,0.0,0.0,0.0,0.0,0.0,0.0,0.0,0.0,0.0,0.0,0.0,0.0,0.0,0.0,0.0,0.0,0.0,0.0,0.0,0.0,0.0,0.0,0.0,0.0,0.0,0.0,0.0,0.0,0.0,0.0,0.0,0.0,0.0,0.0,-1.654,-1.4764,-1.4192,-1.494,-1.6428,-1.7964,0.0,0.0,0.0,0.0,0.0,0.0,0.0,0.0,0.0,0.0,0.0,0.0,0.0,0.0,0.0,0.0,0.0,0.0,0.0,0.0,0.0,0.0,0.0,0.0,0.0,0.0,0.0,0.0,0.0,0.0,0.0,0.0,0.0,0.0,0.0,0.0,0.0,0.0,0.0,0.0,0.0,0.0,0.0,0.0,0.0,0.0,0.0,0.0,0.0,0.0,0.0,0.0,0.0,0.0,0.0,0.0,0.0,0.0,0.0,0.0,0.0,0.0,0.0,0.0,0.0,0.0,0.0,0.0,0.0,0.0,0.0,0.0,0.0,0.0,0.0,0.0,0.0,0.0,0.0,0.0,0.0,0.0,0.0,0.0,0.0,0.0,0.0,0.0,0.0,0.0,0.0,0.0,0.0,0.0,0.0,0.0,0.0,0.0,0.0,0.0,0.0,0.0,0.0,0.0,0.0,0.0,0.0,0.0,-1.8758,-1.6245,-1.4309,-1.3187,-1.2984,-1.5065,-1.6956,0.0,0.0,0.0,0.0,0.0,0.0,0.0,0.0,0.0,0.0,0.0,0.0,0.0,0.0,0.0,0.0,0.0,0.0,0.0,0.0,0.0,0.0,0.0,0.0,0.0,0.0,0.0,0.0,0.0,0.0,0.0,0.0,0.0,0.0,0.0,0.0,0.0,0.0,0.0,0.0,0.0,0.0,0.0,0.0,0.0,0.0,0.0,0.0,0.0,0.0,0.0,0.0,0.0,0.0,0.0,0.0,0.0,0.0,0.0,0.0,0.0,0.0,0.0,0.0,0.0,0.0,0.0,0.0,0.0,0.0,0.0,0.0,0.0,0.0,0.0,0.0,0.0,0.0,0.0,0.0,0.0,0.0,0.0,0.0,0.0,0.0,0.0,0.0,0.0,0.0,0.0,0.0,0.0,0.0,0.0,0.0,0.0,0.0,0.0,0.0,0.0,0.0,0.0,0.0,0.0,0.0,0.0,0.0,-1.9148,-1.643,-1.494,-1.3306,-1.1638,-1.3886,-1.6126,0.0,0.0,0.0,0.0,0.0,0.0,0.0,0.0,0.0,0.0,0.0,0.0,0.0,0.0,0.0,0.0,0.0,0.0,0.0,0.0,0.0,0.0,0.0,0.0,0.0,0.0,0.0,0.0,0.0,0.0,0.0,0.0,0.0,0.0,0.0,0.0,0.0,0.0,0.0,0.0,0.0,0.0,0.0,0.0,0.0,0.0,0.0,0.0,0.0,0.0,0.0,0.0,0.0,0.0,0.0,0.0,0.0,0.0,0.0,0.0,0.0,0.0,0.0,0.0,0.0,0.0,0.0,0.0,0.0,0.0,0.0,0.0,0.0,0.0,0.0,0.0,0.0,0.0,0.0,0.0,0.0,0.0,0.0,0.0,0.0,0.0,0.0,0.0,0.0,0.0,0.0,0.0,0.0,0.0,0.0,0.0,0.0,0.0,0.0,0.0,0.0,0.0,0.0,0.0,0.0,0.0,0.0,0.0,-1.952,-1.6503,-1.494,-1.3922,-1.3267,-1.4548,-1.5924,0.0,0.0,0.0,0.0,0.0,0.0,0.0,0.0,0.0,0.0,0.0,0.0,0.0,0.0,0.0,0.0,0.0,0.0,0.0,0.0,0.0,0.0,0.0,0.0,0.0,0.0,0.0,0.0,0.0,0.0,0.0,0.0,0.0,0.0,0.0,0.0,0.0,0.0,0.0,0.0,0.0,0.0,0.0,0.0,0.0,0.0,0.0,0.0,-3.2299,0.0,0.0,0.0,0.0,0.0,0.0,0.0,0.0,0.0,0.0,0.0,0.0,0.0,0.0,0.0,0.0,0.0,0.0,0.0,0.0,0.0,0.0,0.0,0.0,0.0,0.0,0.0,0.0,0.0,0.0,0.0,0.0,0.0,0.0,0.0,0.0,0.0,0.0,0.0,0.0,0.0,0.0,0.0,0.0,0.0,0.0,0.0,0.0,0.0,0.0,0.0,0.0,0.0,0.0,0.0,0.0,0.0,0.0,0.0,-2.0784,-1.763,-1.6844,-1.604,-1.4957,-1.5934,-1.6974,0.0,0.0,0.0,0.0,0.0,0.0,0.0,0.0,0.0,0.0,0.0,0.0,0.0,0.0,0.0,0.0,0.0,0.0,0.0,0.0,0.0,0.0,0.0,0.0,0.0,0.0,0.0,0.0,0.0,0.0,0.0,0.0,0.0,0.0,0.0,0.0,0.0,0.0,0.0,0.0,0.0,0.0,0.0,0.0,0.0,0.0,0.0,0.0,0.0,0.0,0.0,0.0,0.0,0.0,0.0,0.0,0.0,0.0,0.0,0.0,0.0,0.0,0.0,0.0,0.0,0.0,0.0,0.0,0.0,0.0,0.0,0.0,0.0,0.0,0.0,0.0,0.0,0.0,0.0,0.0,0.0,0.0,0.0,0.0,0.0,0.0,0.0,0.0,0.0,0.0,0.0,0.0,0.0,0.0,0.0,0.0,0.0,0.0,0.0,0.0,0.0,0.0,0.0,0.0,0.0,0.0,0.0,-2.3876,-2.2089,-1.8906,-1.8979,-1.8316,-1.6588,-1.7498,-1.8641,-1.9912,0.0,0.0,0.0,0.0,0.0,0.0,0.0,0.0,0.0,0.0,0.0,0.0,0.0,0.0,0.0,0.0,0.0,0.0,0.0,0.0,0.0,0.0,0.0,0.0,0.0,0.0,0.0,0.0,0.0,0.0,0.0,0.0,0.0,0.0,0.0,0.0,0.0,0.0,-3.2664,-3.1595,0.0,0.0,0.0,0.0,0.0,0.0,0.0,0.0,-3.1886,0.0,0.0,0.0,0.0,0.0,0.0,0.0,0.0,0.0,0.0,0.0,0.0,0.0,0.0,0.0,0.0,0.0,0.0,0.0,0.0,0.0,0.0,0.0,0.0,0.0,0.0,0.0,0.0,0.0,0.0,0.0,0.0,0.0,0.0,0.0,0.0,0.0,0.0,0.0,0.0,0.0,0.0,0.0,0.0,0.0,0.0,0.0,0.0,0.0,0.0,0.0,0.0,0.0,0.0,0.0,0.0,-2.4335,-2.4062,-2.2204,-1.8834,-1.8941,-1.881,-1.8293,-1.8673,-1.9885,-2.1872,0.0,0.0,0.0,0.0,0.0,0.0,0.0,0.0,0.0,0.0,0.0,0.0,0.0,0.0,0.0,0.0,0.0,0.0,0.0,0.0,0.0,0.0,0.0,0.0,0.0,0.0,0.0,0.0,0.0,0.0,0.0,0.0,0.0,0.0,0.0,0.0,0.0,0.0,0.0,-3.0635,-2.9857,0.0,0.0,0.0,0.0,0.0,0.0,0.0,0.0,-3.2175,0.0,0.0,0.0,0.0,0.0,0.0,0.0,0.0,0.0,0.0,0.0,0.0,0.0,0.0,0.0,0.0,0.0,0.0,0.0,0.0,0.0,0.0,0.0,0.0,0.0,0.0,0.0,0.0,0.0,0.0,0.0,0.0,0.0,0.0,0.0,0.0,0.0,0.0,0.0,0.0,0.0,0.0,0.0,0.0,0.0,0.0,0.0,0.0,0.0,0.0,0.0,0.0,0.0,0.0,0.0,-2.4811,-2.4197,-2.2641,-2.0066,-2.0073,-2.0073,-1.9931,-2.0292,-2.1223,0.0,0.0,0.0,0.0,0.0,0.0,0.0,0.0,0.0,0.0,0.0,0.0,0.0,0.0,0.0,0.0,0.0,0.0,0.0,0.0,0.0,0.0,0.0,0.0,0.0,0.0,0.0,0.0,0.0,0.0,0.0,0.0,0.0,0.0,0.0,0.0,0.0,0.0,0.0,0.0,-2.9859,-2.9336,-2.8437,0.0,0.0,0.0,0.0,0.0,0.0,-3.1947,-3.2243,0.0,0.0,0.0,0.0,0.0,0.0,0.0,0.0,0.0,0.0,0.0,0.0,0.0,0.0,0.0,0.0,0.0,0.0,0.0,0.0,0.0,0.0,0.0,0.0,0.0,0.0,0.0,0.0,0.0,0.0,0.0,0.0,0.0,0.0,0.0,0.0,0.0,0.0,0.0,0.0,0.0,0.0,0.0,0.0,0.0,0.0,0.0,0.0,0.0,0.0,0.0,0.0,0.0,0.0,0.0,-2.5186,-2.4392,-2.3069,-2.1215,-2.1056,-2.1022,-2.1015,-2.1472,-2.2246,0.0,0.0,0.0,0.0,0.0,0.0,0.0,0.0,0.0,0.0,0.0,0.0,0.0,0.0,0.0,0.0,0.0,0.0,0.0,0.0,0.0,0.0,0.0,0.0,0.0,0.0,0.0,0.0,0.0,0.0,0.0,0.0,0.0,0.0,0.0,0.0,0.0,0.0,0.0,0.0,0.0,-2.8917,-2.7716,-2.7949,0.0,0.0,0.0,0.0,-3.208,-3.2287,0.0,0.0,0.0,0.0,0.0,0.0,0.0,0.0,0.0,0.0,0.0,0.0,0.0,0.0,0.0,0.0,0.0,0.0,0.0,0.0,0.0,0.0,0.0,0.0,0.0,0.0,0.0,0.0,0.0,0.0,0.0,0.0,0.0,0.0,0.0,0.0,0.0,0.0,0.0,0.0,0.0,0.0,0.0,0.0,0.0,0.0,0.0,0.0,0.0,0.0,0.0,0.0,0.0,0.0,0.0,0.0,-2.5186,-2.4622,-2.3291,-2.1209,-2.0855,-2.0728,-2.0784,-2.1586,-2.2394,0.0,0.0,0.0,0.0,0.0,0.0,0.0,0.0,0.0,0.0,0.0,0.0,0.0,0.0,0.0,0.0,0.0,0.0,0.0,0.0,0.0,0.0,0.0,0.0,0.0,0.0,0.0,0.0,0.0,0.0,0.0,0.0,0.0,0.0,0.0,0.0,0.0,0.0,0.0,0.0,0.0,-2.8922,-3.0604,-2.8787,-2.8146,0.0,0.0,-3.142,-3.1744,-3.2835,0.0,0.0,0.0,0.0,0.0,0.0,0.0,0.0,0.0,0.0,0.0,0.0,0.0,0.0,0.0,0.0,0.0,0.0,0.0,0.0,0.0,0.0,0.0,0.0,0.0,0.0,0.0,0.0,0.0,0.0,0.0,0.0,0.0,0.0,0.0,0.0,0.0,0.0,0.0,0.0,0.0,0.0,0.0,0.0,0.0,0.0,0.0,0.0,0.0,0.0,0.0,0.0,0.0,0.0,0.0,-2.8263,-2.55,-2.4876,-2.3368,-2.0967,-2.0742,-2.0601,-2.0434,-2.1498,-2.2453,0.0,0.0,0.0,0.0,0.0,0.0,0.0,0.0,0.0,0.0,0.0,0.0,0.0,0.0,0.0,0.0,0.0,0.0,0.0,0.0,0.0,0.0,0.0,0.0,0.0,0.0,0.0,0.0,0.0,0.0,0.0,0.0,0.0,0.0,0.0,0.0,0.0,0.0,0.0,0.0,0.0,0.0,-3.0169,-2.9552,0.0,0.0,0.0,-3.2632,-3.2767,0.0,0.0,0.0,0.0,0.0,0.0,0.0,0.0,0.0,0.0,0.0,0.0,0.0,0.0,0.0,0.0,0.0,0.0,0.0,0.0,0.0,0.0,0.0,0.0,0.0,0.0,0.0,0.0,0.0,0.0,0.0,0.0,0.0,0.0,0.0,0.0,0.0,0.0,0.0,0.0,0.0,0.0,0.0,0.0,0.0,0.0,0.0,0.0,0.0,0.0,0.0,0.0,0.0,0.0,0.0,0.0,0.0,-2.6249,-2.56,-2.4024,-2.1382,-2.1204,-2.0842,-2.014,-2.1389,0.0,0.0,0.0,0.0,0.0,0.0,0.0,0.0,0.0,0.0,0.0,0.0,0.0,0.0,0.0,0.0,0.0,0.0,0.0,0.0,0.0,0.0,0.0,0.0,0.0,0.0,0.0,-3.0672,0.0,0.0,0.0,0.0,0.0,0.0,0.0,0.0,0.0,0.0,0.0,0.0,0.0,0.0,-3.0243,-3.0086,-3.0398,-3.0731,0.0,0.0,-3.3414,-3.2798,-3.3033,-3.3014,0.0,0.0,0.0,0.0,0.0,0.0,0.0,0.0,0.0,0.0,0.0,0.0,0.0,0.0,0.0,0.0,0.0,0.0,0.0,0.0,0.0,0.0,0.0,0.0,0.0,0.0,0.0,0.0,0.0,0.0,0.0,0.0,0.0,0.0,0.0,0.0,0.0,0.0,0.0,0.0,0.0,0.0,0.0,0.0,0.0,0.0,0.0,0.0,0.0,0.0,0.0,0.0,0.0,0.0,0.0,-2.7872,-2.7236,-2.5612,-2.3058,-2.2722,-2.1711,-1.9952,-2.1165,-2.1951,0.0,0.0,0.0,0.0,0.0,0.0,0.0,0.0,0.0,0.0,0.0,0.0,0.0,0.0,0.0,0.0,0.0,0.0,0.0,0.0,0.0,0.0,0.0,0.0,0.0,0.0,0.0,0.0,0.0,0.0,0.0,0.0,0.0,0.0,0.0,0.0,0.0,0.0,0.0,0.0,0.0,-3.0219,-3.1916,-3.1102,-3.1019,0.0,0.0,-3.2882,-3.0792,-3.2762,-3.3225,-2.9357,0.0,0.0,0.0,0.0,0.0,0.0,0.0,0.0,0.0,0.0,0.0,0.0,0.0,0.0,0.0,0.0,0.0,0.0,0.0,0.0,0.0,0.0,0.0,0.0,0.0,0.0,0.0,0.0,0.0,0.0,0.0,0.0,0.0,0.0,0.0,0.0,0.0,0.0,0.0,0.0,0.0,0.0,0.0,0.0,0.0,0.0,0.0,0.0,0.0,0.0,0.0,0.0,0.0,-2.9329,-2.8004,-2.7171,-2.5915,-2.426,-2.2961,-2.1825,-2.0938,-2.0748,-2.0963,0.0,0.0,0.0,0.0,0.0,0.0,0.0,0.0,0.0,0.0,0.0,0.0,0.0,0.0,0.0,0.0,0.0,0.0,0.0,0.0,0.0,0.0,0.0,0.0,0.0,0.0,0.0,0.0,-2.8739,-2.8161,-2.784,0.0,0.0,0.0,0.0,0.0,0.0,0.0,0.0,0.0,0.0,-3.157,-3.2543,-3.2447,0.0,0.0,-3.3661,-3.3409,-3.1842,-3.22,-3.1929,-2.9634,-2.8777,0.0,0.0,0.0,0.0,0.0,0.0,0.0,0.0,0.0,0.0,0.0,0.0,0.0,0.0,0.0,0.0,0.0,0.0,0.0,0.0,0.0,0.0,0.0,0.0,0.0,0.0,0.0,0.0,0.0,0.0,0.0,0.0,0.0,0.0,0.0,0.0,0.0,0.0,0.0,0.0,0.0,0.0,0.0,0.0,0.0,0.0,0.0,0.0,0.0,0.0,0.0,0.0,-2.9491,-2.8709,-2.7707,-2.6736,-2.5658,-2.3741,-2.2368,-2.1586,-2.0581,-2.0315,0.0,0.0,0.0,0.0,0.0,0.0,0.0,0.0,0.0,0.0,0.0,0.0,0.0,0.0,0.0,0.0,0.0,0.0,0.0,0.0,0.0,0.0,0.0,0.0,0.0,0.0,0.0,0.0,-2.8254,-2.7586,-2.7072,0.0,0.0,0.0,0.0,0.0,0.0,0.0,0.0,0.0,0.0,-3.2163,-3.2686,-3.2918,-3.2981,-3.2792,-3.3042,-3.2699,-3.112,-3.0817,-3.0191,-2.8367,0.0,0.0,0.0,0.0,0.0,0.0,0.0,0.0,0.0,0.0,0.0,0.0,0.0,0.0,0.0,0.0,0.0,0.0,0.0,0.0,0.0,0.0,0.0,0.0,0.0,0.0,0.0,-2.8098,0.0,0.0,-2.8494,0.0,0.0,0.0,0.0,0.0,0.0,0.0,0.0,0.0,0.0,0.0,0.0,0.0,0.0,0.0,0.0,0.0,0.0,0.0,0.0,0.0,0.0,-2.9832,-3.0299,-2.9276,-2.8263,-2.7209,-2.5415,-2.3512,-2.1699,-2.0855,-2.0248,-1.9764,0.0,0.0,0.0,0.0,0.0,0.0,0.0,0.0,0.0,0.0,0.0,0.0,0.0,0.0,0.0,0.0,0.0,0.0,0.0,0.0,0.0,0.0,0.0,0.0,0.0,0.0,-2.8717,-2.7705,-2.682,0.0,0.0,0.0,0.0,0.0,0.0,0.0,0.0,0.0,0.0,-3.1712,-3.1725,-3.2252,-3.2315,-3.2056,-3.143,-3.1376,-3.0401,-2.7731,-2.8403,-2.8198,0.0,0.0,0.0,0.0,0.0,0.0,0.0,0.0,0.0,0.0,0.0,0.0,0.0,0.0,0.0,0.0,0.0,0.0,0.0,0.0,0.0,0.0,0.0,0.0,0.0,0.0,0.0,-2.5758,-2.6203,0.0,0.0,0.0,0.0,0.0,0.0,0.0,0.0,0.0,0.0,0.0,-2.9025,-2.8824,0.0,0.0,0.0,0.0,0.0,0.0,0.0,0.0,0.0,0.0,0.0,0.0,-2.9434,-2.966,-2.8947,-2.7974,-2.6886,-2.4991,-2.3271,-2.1635,-2.003,-1.915,-1.9102,0.0,0.0,0.0,0.0,0.0,0.0,0.0,0.0,0.0,0.0,0.0,0.0,0.0,0.0,0.0,0.0,0.0,0.0,0.0,0.0,0.0,0.0,0.0,0.0,0.0,-2.8219,0.0,0.0,0.0,0.0,0.0,0.0,0.0,0.0,0.0,0.0,0.0,-3.0512,-3.182,-3.1504,-3.1349,-3.1815,-3.1309,-3.0763,0.0,0.0,0.0,0.0,0.0,0.0,0.0,0.0,0.0,0.0,0.0,0.0,0.0,0.0,-1.8514,-2.0986,-2.1267,-2.1495,-2.2719,0.0,0.0,0.0,0.0,0.0,0.0,0.0,0.0,0.0,0.0,0.0,0.0,0.0,0.0,-2.4551,0.0,-2.4897,0.0,0.0,0.0,0.0,0.0,0.0,0.0,0.0,-2.7769,-2.823,-2.9189,-2.8677,-2.8762,0.0,-2.931,-2.9381,0.0,0.0,0.0,0.0,0.0,0.0,0.0,0.0,-2.853,-2.833,-2.7774,-2.7029,-2.5942,-2.4068,-2.2589,-2.1578,-1.9654,-1.8577,-1.8384,-1.9203,-1.9978,0.0,0.0,0.0,0.0,0.0,0.0,0.0,0.0,0.0,0.0,0.0,0.0,0.0,0.0,0.0,0.0,0.0,0.0,0.0,0.0,0.0,0.0,0.0,-2.7803,0.0,0.0,0.0,0.0,0.0,0.0,0.0,0.0,0.0,-3.0022,-3.0043,-3.0233,-3.1162,-3.0983,-3.077,-3.0654,0.0,0.0,0.0,0.0,0.0,0.0,0.0,-2.4361,-2.3113,-2.1659,-2.002,-1.7915,-1.6202,-1.5042,-1.4784,0.0,0.0,-1.8166,-1.8538,-1.8776,-2.0013,-2.1081,-2.1804,-2.179,-2.2474,-2.2972,0.0,0.0,0.0,0.0,0.0,0.0,0.0,0.0,-2.3749,-2.4216,0.0,-2.4122,0.0,0.0,0.0,0.0,0.0,-2.5114,0.0,0.0,-2.5825,-2.6835,-2.9556,-2.7808,-2.7706,-2.9327,-2.8848,-2.8499,-2.8394,-2.886,0.0,0.0,0.0,0.0,0.0,0.0,-2.7257,-2.627,-2.6134,-2.5509,-2.4382,-2.2591,-2.1571,-2.1427,-1.9771,-1.8497,-1.7702,-1.8457,-1.8837,-1.884,-2.0349,0.0,0.0,0.0,0.0,0.0,0.0,0.0,0.0,0.0,0.0,0.0,0.0,0.0,0.0,0.0,0.0,0.0,0.0,0.0,0.0,-2.7955,0.0,0.0,0.0,0.0,0.0,0.0,0.0,0.0,0.0,0.0,-2.9215,-2.9554,-2.9747,-2.9816,0.0,0.0,0.0,0.0,-2.8429,-2.686,-2.6018,-2.5273,-2.4184,-2.3432,-2.2699,-2.1849,0.0,0.0,-1.5269,-1.4502,-1.3979,-1.3337,-1.2664,-1.2889,-1.4977,-1.5468,-1.5649,-1.614,-1.8055,-1.9362,-1.9574,-2.1253,-2.2858,-2.2922,0.0,0.0,0.0,0.0,-2.326,-2.3134,-2.2747,-2.2666,-2.2879,-2.3118,-2.2793,0.0,0.0,0.0,0.0,0.0,0.0,-2.4842,-2.6804,-2.683,-2.8002,-3.0014,-2.9189,-2.9041,-2.9476,-2.7725,-2.6665,-2.6275,-2.5379,-2.5644,-2.7006,0.0,0.0,0.0,0.0,-2.5221,-2.4585,-2.4484,-2.3815,-2.2454,-2.1858,-2.0869,-1.9452,-1.9077,-1.8497,-1.7615,-1.8036,-1.8324,-1.8534,-1.8972,0.0,0.0,0.0,0.0,0.0,0.0,0.0,0.0,0.0,0.0,0.0,0.0,0.0,0.0,0.0,0.0,0.0,0.0,0.0,-2.6679,-2.6941,-2.6849,0.0,0.0,0.0,0.0,0.0,0.0,0.0,0.0,0.0,-2.6544,-2.7678,-2.844,0.0,0.0,-2.8097,-2.754,-2.6749,-2.5912,-2.4905,-2.4061,0.0,-2.2744,-2.1266,-2.0397,-2.1177,-1.8593,-1.5659,-1.346,-1.2355,-1.1703,-1.1508,-1.131,-1.1406,-1.1969,-1.3095,-1.4309,-1.5726,-1.744,-1.8273,-1.7376,-1.941,-2.1313,-2.2565,-2.2411,-2.2858,-2.2913,-2.2708,-2.2815,-2.2627,-2.2201,-2.2124,-2.2175,-2.2373,-2.2059,-2.2251,-2.2751,-2.2493,0.0,0.0,0.0,-2.3787,-2.6363,-2.6585,-2.8097,-3.0315,-2.9268,-2.87,-2.8596,-2.6313,-2.5038,-2.4748,-2.3673,-2.3728,-2.4982,0.0,0.0,-2.364,-2.3883,-2.3559,-2.2661,-2.2822,-2.2209,-2.0759,-2.0573,-1.9893,-1.8573,-1.8657,-1.8437,-1.7796,-1.7896,-1.8124,-1.8426,-1.8426,-1.8811,0.0,0.0,0.0,0.0,0.0,0.0,0.0,0.0,0.0,0.0,0.0,-2.8015,-2.7362,0.0,0.0,0.0,-2.5333,-2.5029,-2.5435,-2.5795,0.0,0.0,0.0,0.0,0.0,0.0,0.0,-2.3829,-2.4316,-2.4599,-2.4471,-2.5441,-2.6328,-2.6772,-2.6754,-2.6459,-2.5737,0.0,-2.4394,-2.3536,-2.272,-2.1915,-2.099,-1.9703,-1.8628,-1.8052,-1.6177,-1.3979,-1.2025,-1.1111,-1.0721,-1.0721,-1.0721,-1.0721,-1.0721,-1.1567,-1.2545,-1.3648,-1.5204,-1.6009,-1.5175,-1.7812,-1.9931,-2.2298,-2.2124,-2.271,-2.2655,-2.2134,-2.2349,-2.2198,-2.1708,-2.1884,-2.2033,-2.21,-2.173,-2.1733,-2.195,-2.1985,0.0,-2.1183,-2.1162,-2.273,-2.5429,-2.5429,-2.7213,-3.0296,-2.8143,-2.7104,-2.7002,-2.4724,-2.3654,-2.3599,-2.3007,-2.2587,-2.2281,-2.2125,-2.1977,-2.1802,-2.2431,-2.2078,-2.0601,-2.1152,-2.0737,-1.9383,-1.9065,-1.8778,-1.8464,-1.8457,-1.8317,-1.7969,-1.7975,-1.8122,-1.8417,-1.8378,-1.8468,-1.8767,0.0,0.0,0.0,0.0,0.0,0.0,0.0,0.0,0.0,0.0,0.0,0.0,0.0,0.0,0.0,-2.3905,0.0,-2.4325,-2.4565,0.0,0.0,0.0,-2.3317,-2.3268,-2.3041,-2.2878,-2.2878,0.0,0.0,-2.2957,-2.3224,-2.3775,-2.4602,-2.5024,-2.4863,-2.3658,-2.3775,-2.3589,-2.269,-2.1859,-2.0759,-1.9361,-1.857,-1.7082,-1.4036,-1.3193,-1.2738,-1.1178,-1.0721,-1.0721,-1.0721,-1.0721,-1.0784,-1.092,-1.1111,-1.0916,-1.1369,-1.2606,-1.3765,-1.4236,-1.6976,-1.9404,-2.2719,-2.272,-2.2856,-2.2552,-2.2042,-2.2324,-2.2345,-2.2205,-2.2051,-2.201,-2.1988,-2.148,-2.1112,-2.101,-2.0787,-2.0733,-2.0814,-2.0834,-2.2008,-2.3994,-2.4055,-2.5044,-2.6762,-2.5879,-2.5332,-2.5053,-2.3076,-2.2145,-2.2089,-2.0881,-2.022,-2.0155,-2.0078,-2.0266,-2.0673,-2.0859,-2.0551,-1.9707,-1.9873,-1.9642,-1.9032,-1.8958,-1.8677,-1.8109,-1.8095,-1.8009,-1.7709,-1.7862,-1.8022,-1.8082,-1.7896,-1.7996,-1.8408,-1.8607,0.0,0.0,0.0,0.0,0.0,0.0,0.0,0.0,0.0,-2.5531,-2.4836,0.0,-2.4748,0.0,-2.3704,-2.3394,-2.3163,-2.3384,0.0,0.0,-2.283,-2.2512,-2.2065,-2.1989,-2.1958,-2.1958,-2.1982,-2.1999,-2.1929,-2.1999,-2.2041,-2.2097,-2.2966,-2.3472,-2.2918,-2.2668,-2.2418,-2.179,-2.0443,-1.9082,-1.8564,-1.7404,-1.5329,-1.1894,-1.2417,-1.2672,-1.0979,-1.0721,-1.0721,-1.0721,-1.0721,-1.1174,-1.2413,-1.2672,-1.3193,-1.4358,-1.5009,-1.5279,-1.5468,-1.8144,-2.0189,-2.2866,-2.2866,-2.2866,-2.274,-2.2392,-2.2552,-2.2539,-2.2405,-2.2251,-2.2038,-2.1829,-2.1303,-2.1022,-2.0862,-2.0702,-2.0715,-2.0862,-2.0869,-2.1874,-2.3566,-2.3566,-2.43,-2.555,-2.4437,-2.3792,-2.3435,-2.1521,-2.0644,-2.0594,-1.9809,-1.9424,-1.9424,-1.9424,-1.9597,-1.988,-1.9873,-1.9707,-1.9424,-1.9239,-1.9092,-1.8918,-1.8615,-1.8315,-1.8009,-1.7856,-1.7762,-1.7595,-1.7756,-1.7849,-1.7975,-1.7749,-1.774,-1.7989,-1.8018,-1.8577,0.0,0.0,0.0,0.0,0.0,0.0,0.0,0.0,0.0,0.0,0.0,-2.3499,-2.2714,-2.2379,-2.2184,-2.2204,-2.2357,-2.2401,-2.2127,-2.1982,-2.1743,-2.1395,-2.1376,-2.1417,-2.1361,-2.1379,-2.1362,-2.1362,-2.1362,-2.1299,-2.1109,-2.1734,-2.2174,-2.1985,-2.1796,-2.1607,-2.1355,-1.9737,-1.7859,-1.6501,-1.4749,-1.2935,-1.124,-1.1501,-1.1762,-1.085,-1.0721,-1.0721,-1.0721,-1.0721,-1.1244,-1.2931,-1.332,-1.4036,-1.6302,-1.7082,-1.6759,-1.6108,-1.7404,-1.8448,-2.2866,-2.2866,-2.2866,-2.2832,-2.2806,-2.2874,-2.2659,-2.2412,-2.2338,-2.2004,-2.1547,-2.1223,-2.1102,-2.1102,-2.1102,-2.1102,-2.1102,-2.1102,-2.1915,-2.327,-2.3263,-2.3879,-2.4903,-2.3207,-2.2172,-2.1831,-2.0178,-1.9424,-1.9424,-1.9424,-1.9424,-1.9424,-1.9424,-1.9424,-1.9424,-1.9424,-1.9424,-1.9424,-1.9112,-1.8945,-1.8858,-1.8364,-1.8015,-1.7929,-1.7722,-1.7589,-1.7589,-1.7589,-1.7729,-1.7962,-1.7756,-1.7602,-1.7682,-1.7822,-1.8163,0.0,-1.9269,0.0,0.0,0.0,0.0,0.0,0.0,0.0,0.0,-2.2962,-2.2213,-2.1043,-2.085,-2.0963,-2.1383,-2.1477,-2.1533,-2.1547,-2.1273,-2.1064,-2.1069,-2.1102,-2.1102,-2.1102,-2.1102,-2.1102,-2.1102,-2.1102,-2.1102,-2.1102,-2.1166,-2.1229,-2.1109,-2.1166,-2.1166,-2.1102,-1.9419,-1.6888,-1.3844,-1.1828,-1.085,-1.0784,-1.0784,-1.0721,-1.0721,-1.0721,-1.0721,-1.0721,-1.0979,-1.1696,-1.332,-1.384,-1.5139,-1.818,-1.8832,-1.8314,-1.6824,-1.6496,-1.6172,-2.2866,-2.2866,-2.2866,-2.2719,-2.2498,-2.2498,-2.2465,-2.2385,-2.1917,-2.1516,-2.1189,-2.1129,-2.1102,-2.1102,-2.1102,-2.1102,-2.1102,-2.1102,-2.1292,-2.1601,-2.1538,-2.1562,-2.1567,-2.0963,-2.0547,-2.0246,-1.9674,-1.9424,-1.9424,-1.9424,-1.9424,-1.9424,-1.9424,-1.9424,-1.9424,0.0,0.0,0.0,-1.9312,-1.9052,-1.8591,-1.8464,-1.817,-1.7689,-1.7615,0.0,-1.7589,-1.7589,-1.7722,-1.7962,-1.7749,0.0,0.0,0.0,0.0,0.0,0.0,0.0,0.0,0.0,0.0,0.0,-2.0991,-2.1313,-2.1564,-2.1517,-2.1292,-2.0795,-2.0894,-2.0992,-2.0883,-2.1079,-2.1213,-2.1204,-2.1148,-2.1112,-2.1102,-2.1102,-2.1102,-2.1102,-2.1102,-2.1102,-2.1102,-2.1102,-2.1102,-2.1102,-2.1102,-2.1102,-2.1102,-2.1102,-2.1102,-2.0906,-1.8314,-1.5204,-1.1699,-1.0916,-1.0721,-1.0721,-1.0721,-1.0721,-1.0721,-1.0721,-1.0721,-1.0717,-1.1828,-1.3325,-1.5074,-1.6501,-1.7988,-2.0202,-2.0526,-2.0068,-1.8372,-1.7988,-1.7597,-2.2866,0.0,-2.2706,-2.2639,0.0,-2.2178,-2.2071,-2.2171,-2.1809,-2.1454,-2.1102,-2.1102,-2.1102,-2.1102,-2.1102,-2.1102,-2.1102,-2.1102,-2.1102,-2.1102,-2.1102,-2.0962,-2.0668,-2.0374,-2.008,-1.9793,-1.9564,-1.9424,-1.9424,-1.9424,-1.9424,-1.9424,-1.9424,-1.9424,-1.9424,-1.9424,-1.9424,-1.9424,-1.9085,-1.8791,-1.8497,-1.8196,-1.7896,-1.7602,-1.7589,0.0,0.0,0.0,0.0,0.0,0.0,0.0,0.0,0.0,0.0,-1.8609,-1.893,-1.9184,-1.9292,-1.9575,-1.9822,-2.0032,-2.0305,-2.0552,-2.085,-2.0921,-2.0894,-2.074,-2.0963,-2.107,-2.0895,-2.1022,-2.1102,-2.1102,-2.1102,-2.1102,-2.1102,-2.1102,-2.1102,-2.1102,-2.1102,-2.1102,-2.1102,-2.1102,-2.1102,-2.1102,-2.1102,-2.1102,-2.1102,-2.1102,-2.0652,-1.8832,-1.6436,-1.3709,-1.1372,-1.0721,-1.0721,-1.0721,-1.0721,-1.0721,-1.0721,-1.0721,-1.0721,-1.085,-1.2153,-1.384,-1.5589,-1.7275,-1.9024,-2.0526,-2.0392,-1.9285,-1.7667,-1.7211,-1.6689,-2.2866,-2.2908,-2.2599,-2.2605,-2.2719,-2.2077,-2.1784,-2.1891,0.0,0.0,0.0,-2.1102,-2.1102,-2.1102,-2.1102,-2.1102,-2.1102,-2.1102,-2.1102,-2.1102,-2.1102,-2.0982,-2.0742,-2.0448,-2.0154,-1.9873,-1.9579,-1.9477,-1.9424,-1.9424,-1.9424,-1.9424,-1.9424,-1.9424,-1.9424,-1.9424,-1.9424,-1.9403,-1.8891,-1.8591,-1.8484,-1.8003,-1.7689,-1.7589,-1.7589,-1.7589,-1.7589,-1.7589,-1.7589,-1.7589,-1.7589,-1.7722,-1.7969,-1.7989,-1.8224,-1.8782,-1.8857,-1.8884,-1.8891,-1.921,-1.9449,-1.9638,-2.004,-2.0449,-2.074,-2.0746,-2.0702,-2.0748,-2.0975,-2.1102,-2.1102,-2.1102,-2.1102,-2.1102,-2.1102,-2.1102,-2.1102,-2.1102,-2.1102,-2.1102,-2.1102,-2.1102,-2.1102,-2.1102,-2.1102,-2.1102,-2.1102,-2.1102,-2.1046,-2.0779,-1.9483,-1.6689,-1.4749,-1.2738,-1.1178,-1.0721,-1.0721,-1.0721,-1.0721,-1.0721,-1.0721,-1.0721,-1.085,-1.1306,-1.2606,-1.4358,-1.6048,-1.7923,-1.9221,-2.0392,-1.9546,-1.7859,-1.5978,-1.5464,-1.4879,-2.2866,-2.2859,-2.2812,-2.2679,-2.2472,-2.2352,-2.2038,-2.1661,-2.1303,-2.1149,-2.1102,-2.1102,-2.1102,-2.1102,-2.1102,-2.1102,-2.1102,-2.1102,-2.1102,-2.1102,-2.1102,-2.1089,-2.1029,-2.0748,-2.0461,-2.0167,-1.9873,-1.9613,-1.945,-1.9424,-1.9424,-1.9424,-1.9424,-1.9424,-1.9424,-1.9424,-1.9424,-1.9424,-1.9343,-1.8998,-1.8504,-1.841,-1.8103,-1.7615,-1.7589,-1.7589,-1.7589,-1.7589,-1.7589,-1.7589,-1.7589,-1.7722,-1.7969,-1.8002,-1.8176,-1.8526,-1.878,-1.8914,-1.8928,-1.9424,-1.9966,-2.0434,-2.0568,-2.0777,-2.1018,-2.0795,-2.0782,-2.1015,-2.1082,-2.1102,-2.1102,-2.1102,-2.1102,-2.1102,-2.1102,-2.1102,-2.1102,-2.1102,-2.1102,-2.1102,-2.1102,-2.1102,-2.1102,-2.1102,-2.1102,-2.1102,-2.1102,-2.1102,-2.0906,-1.9807,-1.8186,-1.6237,-1.4428,-1.2738,-1.1174,-1.0721,-1.0714,-1.0721,-1.0707,-1.07,-1.07,-1.0687,-1.1149,-1.2606,-1.4153,-1.5898,-1.7597,-1.9546,-1.9807,-1.9221,-1.8378,-1.7211,-1.4428,-1.3779,-1.3128,-2.2866,-2.2846,-2.2692,-2.2639,-2.2645,-2.2485,-2.2091,-2.1621,-2.1474,-2.1256,-2.1109,-2.1102,-2.1102,-2.1102,-2.1102,-2.1102,-2.1102,-2.1102,-2.1102,-2.1102,-2.1102,-2.1102,-2.1076,-2.0808,-2.0601,-2.0448,-2.0013,-1.9726,-1.9599,-1.9504,-1.9424,-1.9424,-1.9424,-1.9424,-1.9424,-1.9424,-1.9424,-1.9366,-1.9205,-1.8998,-1.8731,-1.8571,-1.8277,-1.7849,-1.7829,-1.7836,-1.7829,-1.7836,-1.7909,-1.807,-1.8076,-1.8217,-1.8504,-1.8468,-1.8651,-1.8945,-1.9085,-1.9239,-1.9392,-1.9947,-2.0388,-2.0655,-2.0822,-2.0962,-2.1089,-2.0989,-2.0969,-2.1089,-2.1102,-2.1102,-2.1102,-2.1102,-2.1102,-2.1102,-2.1102,-2.1102,-2.1102,-2.1102,-2.1102,-2.1102,-2.1102,-2.1102,-2.1102,-2.1102,-2.1102,-2.1102,-2.1102,-2.1102,-2.0976,-1.8768,-1.6824,-1.5854,-1.3648,-1.1831,-1.085,-1.0721,-1.0687,-1.0616,-1.0595,-1.0595,-1.0588,-1.0548,-1.1265,-1.2947,-1.4669,-1.5985,-1.7044,-1.8506,-1.8698,-1.7468,-1.6242,-1.4879,-1.3578,-1.2606,-1.163,-2.2866,-2.2839,-2.2612,-2.2645,-2.2901,-2.2545,-2.2158,-2.175,-2.1681,-2.1416,-2.1216,-2.1142,-2.1102,-2.1102,-2.1102,-2.1102,-2.1102,-2.1102,-2.1102,-2.1102,-2.1102,-2.1102,-2.1082,-2.0875,-2.0742,-2.0641,-2.0207,-1.9967,-1.9867,-1.9606,-1.9426,-1.9437,-1.9424,-1.9424,-1.9424,-1.9424,-1.9424,-1.941,-1.9138,-1.8985,-1.8918,-1.8698,-1.845,-1.817,-1.8089,-1.8095,-1.8095,-1.8143,-1.8257,-1.847,-1.8497,-1.8624,-1.8841,-1.8868,-1.9058,-1.9332,-1.9426,-1.9626,-1.998,-2.0414,-2.0702,-2.0775,-2.0975,-2.1102,-2.1102,-2.1102,-2.1102,-2.1102,-2.1102,-2.1102,-2.1102,-2.1102,-2.1102,-2.1102,-2.1102,-2.1102,-2.1102,-2.1102,-2.1102,-2.1102,-2.1102,-2.1102,-2.1102,-2.1102,-2.1102,-2.1102,-2.1102,-2.1102,-2.0716,-1.8116,-1.6108,-1.5269,-1.2935,-1.0892,-1.0683,-1.0663,-1.0602,-1.047,-1.0443,-1.0446,-1.0429,-1.0351,-1.108,-1.2832,-1.4166,-1.5253,-1.5863,-1.6953,-1.7082,-1.5719,-1.4423,-1.339,-1.2672,-1.1699,-1.0784,-2.2866,-2.2859,-2.2819,-2.2901,-2.2826,-2.2552,-2.2392,-2.2258,-2.1856,-2.1608,-2.1541,-2.1236,-2.1116,-2.1102,-2.1102,-2.1102,-2.1102,-2.1102,-2.1102,-2.1102,-2.1102,-2.1102,-2.1102,-2.1069,-2.0935,-2.0708,-2.0601,-2.0421,-2.0187,-1.9887,-1.9619,-1.9457,-1.9424,-1.9424,-1.9424,-1.9424,-1.9424,-1.9424,-1.9397,-1.9199,-1.8938,-1.8898,-1.8744,-1.8464,-1.845,-1.845,-1.845,-1.845,-1.8464,-1.849,-1.851,-1.8637,-1.8885,-1.8925,-1.9058,-1.9352,-1.9619,-2.0,-2.0521,-2.0648,-2.0795,-2.1036,-2.1082,-2.1102,-2.1102,-2.1102,-2.1102,-2.1102,-2.1102,-2.1102,-2.1102,-2.1102,-2.1102,-2.1102,-2.1102,-2.1102,-2.1102,-2.1102,-2.1102,-2.1102,-2.1102,-2.1102,-2.1102,-2.1102,-2.1102,-2.1102,-2.1102,-2.1102,-2.0779,-1.8116,-1.5913,-1.5329,-1.2931,-1.0916,-1.0568,-1.0517,-1.0463,-1.0344,-1.03,-1.0297,-1.0287,-1.0347,-1.0902,-1.2607,-1.3217,-1.4011,-1.5158,-1.6043,-1.545,-1.4097,-1.3193,-1.2738,-1.1435,-1.085,-1.0721,-2.2866,-2.2866,-2.2866,-2.2866,-2.2846,-2.2726,-2.2579,-2.2392,-2.2171,-2.1877,-2.1621,-2.1423,-2.1283,-2.1109,-2.1102,-2.1102,-2.1102,-2.1102,-2.1102,-2.1102,-2.1102,-2.1102,-2.1102,-2.1102,-2.1042,-2.0922,-2.0762,-2.0621,-2.0434,-2.0027,-1.9733,-1.9613,-1.9517,-1.9424,-1.9424,-1.9424,-1.9424,-1.9424,-1.9424,-1.9305,-1.9205,-1.9192,-1.9045,-1.8778,-1.8744,-1.8751,-1.8744,-1.8751,-1.8824,-1.8991,-1.9068,-1.9065,-1.9178,-1.9192,-1.9319,-1.9619,-2.0067,-2.0421,-2.0655,-2.0828,-2.0982,-2.1102,-2.1102,-2.1102,-2.1102,-2.1102,-2.1102,-2.1102,-2.1102,-2.1102,-2.1109,-2.1102,-2.1102,-2.1102,-2.1102,-2.1102,-2.1102,-2.1102,-2.1102,-2.1102,-2.1102,-2.1102,-2.1102,-2.1102,-2.1102,-2.1102,-2.1102,-2.1102,-2.0912,-1.8116,-1.6172,-1.5459,-1.2931,-1.0913,-1.0524,-1.0493,-1.0388,-1.0215,-1.0144,-1.0144,-1.0134,-1.0053,-1.0633,-1.2577,-1.2683,-1.3003,-1.3928,-1.4116,-1.3755,-1.2477,-1.1762,-1.1505,-1.0784,-1.0721,-1.0721,-2.2866,-2.2866,-2.2866,-2.2866,-2.2866,-2.2866,-2.2746,-2.2539,-2.2452,-2.2178,-2.1804,-2.1775,-2.1503,-2.1249,-2.1149,-2.1102,-2.1102,-2.1102,-2.1102,-2.1102,-2.1102,-2.1102,-2.1102,-2.1102,-2.1102,-2.1069,-2.0902,-2.0762,-2.0641,-2.0274,-2.0,-1.99,-1.9706,-1.9599,-1.9593,-1.9539,-1.9486,-1.9537,-1.947,-1.9424,-1.9424,-1.9424,-1.9265,-1.9065,-1.9045,-1.9045,-1.9045,-1.9052,-1.9138,-1.9352,-1.9424,-1.9406,-1.9486,-1.9486,-1.9653,-2.002,-2.0434,-2.0715,-2.0788,-2.0989,-2.1102,-2.1102,-2.1102,-2.1102,-2.1102,-2.1102,-2.1102,-2.1109,-2.1182,-2.1223,-2.1109,-2.1102,-2.1102,-2.1102,-2.1102,-2.1102,-2.1102,-2.1102,-2.1102,-2.1102,-2.1102,-2.1102,-2.1102,-2.1102,-2.1102,-2.1102,-2.1102,-2.1102,-2.0779,-1.864,-1.6565,-1.5918,-1.332,-1.1414,-1.0606,-1.0422,-1.03,-1.0097,-0.9988,-0.9926,-0.9923,-0.9818,-0.9944,-1.1389,-1.1829,-1.2065,-1.2307,-1.2318,-1.2374,-1.1256,-1.0717,-1.0784,-1.0721,-1.0721,-1.0721,-2.2866,-2.2866,-2.2866,-2.2866,-2.2866,-2.2866,-2.2859,-2.2792,-2.2552,-2.2398,-2.2305,-2.2084,-2.1804,-2.1523,-2.1263,-2.1116,-2.1102,-2.1102,-2.1102,-2.1102,-2.1102,-2.1102,-2.1102,-2.1102,-2.1102,-2.1102,-2.1069,-2.0935,-2.0708,-2.0635,-2.0494,-2.0221,-2.016,-2.0113,-2.012,-1.99,-1.9786,-1.976,-1.9553,-1.9457,-1.945,-1.945,-1.9399,-1.9379,-1.9397,-1.9383,-1.9332,-1.9339,-1.941,-1.943,-1.9444,-1.9499,-1.9746,-1.9786,-2.0047,-2.0541,-2.0717,-2.0808,-2.1029,-2.1089,-2.1102,-2.1102,-2.1102,-2.1102,-2.1102,-2.1102,-2.1102,-2.1102,-2.1349,-2.1403,-2.1189,-2.1196,-2.1169,-2.1142,-2.1122,-2.1129,-2.1102,-2.1102,-2.1102,-2.1102,-2.1102,-2.1102,-2.1102,-2.1102,-2.1102,-2.1102,-2.1102,-2.1102,-2.0849,-1.9483,-1.7731,-1.6043,-1.427,-1.2494,-1.081,-1.0324,-1.0181,-0.9975,-0.988,-0.9849,-0.9832,-0.9839,-1.0053,-1.0211,-1.0555,-1.0756,-1.0633,-1.0768,-1.0982,-1.0721,-1.0721,-1.0721,-1.0721,-1.0721,-1.0721,-2.2866,-2.2866,-2.2866,-2.2866,-2.2866,-2.2866,-2.2866,-2.2921,-2.2759,-2.2592,-2.2425,-2.2305,-2.2098,-2.181,-2.153,-2.1289,-2.1116,-2.1102,-2.1102,-2.1102,-2.1102,-2.1102,-2.1102,-2.1102,-2.1102,-2.1102,-2.1102,-2.1056,-2.0942,-2.0775,-2.0628,-2.0501,-2.0321,-2.0173,-2.0214,-2.0134,-2.0074,-2.006,-1.996,-1.992,-1.9907,-1.992,-1.992,-1.99,-1.9553,-1.9424,-1.9424,-1.9424,-1.9446,-1.9633,-1.9646,-1.978,-2.0054,-2.0261,-2.0441,-2.0661,-2.0848,-2.1002,-2.1089,-2.1102,-2.1102,-2.1102,-2.1102,-2.1102,-2.1102,-2.1102,-2.1102,-2.1156,-2.1383,-2.1541,-2.147,-2.1557,-2.159,-2.1436,-2.139,-2.1303,-2.1156,-2.1102,-2.1102,-2.1102,-2.1102,-2.1102,-2.1102,-2.1102,-2.1102,-2.1102,-2.1102,-2.1102,-2.0849,-1.9616,-1.7988,-1.6177,-1.4418,-1.2588,-1.0715,-1.0334,-1.0195,-0.9961,-0.9825,-0.9829,-0.9822,-0.9819,-0.9951,-0.9988,-1.0059,-1.0249,-1.0473,-1.0661,-1.069,-1.0721,-1.0721,-1.0721,-1.0721,-1.0721,-1.0721,-2.2866,-2.2866,-2.2866,-2.2866,-2.2866,-2.2866,-2.2866,-2.2866,-2.2859,-2.2746,-2.2579,-2.2559,-2.2398,-2.2131,-2.1917,-2.167,-2.1396,-2.1303,-2.1256,-2.1256,-2.1249,-2.1196,-2.1116,-2.1102,-2.1102,-2.1102,-2.1102,-2.1102,-2.1089,-2.0915,-2.0822,-2.0795,-2.0608,-2.0521,-2.0501,-2.0428,-2.0368,-2.0361,-2.022,-2.0167,-2.0173,-2.0173,-2.0173,-2.018,-1.9846,-1.9653,-1.9646,-1.9646,-1.9733,-1.9907,-1.994,-2.0074,-2.0361,-2.0655,-2.0815,-2.0835,-2.0995,-2.1102,-2.1102,-2.1102,-2.1102,-2.1102,-2.1102,-2.1102,-2.1116,-2.1196,-2.1203,-2.1223,-2.1577,-2.1817,-2.1797,-2.2038,-2.2071,-2.1742,-2.1621,-2.1501,-2.1156,-2.1102,-2.1102,-2.1102,-2.1102,-2.1102,-2.1102,-2.1102,-2.1102,-2.1102,-2.1102,-2.1102,-2.0912,-2.0132,-1.8378,-1.6366,-1.5074,-1.3171,-1.1264,-1.0365,-1.0236,-1.0019,-0.9825,-0.9819,-0.9819,-0.9819,-0.9836,-0.9863,-0.9992,-1.0188,-1.0385,-1.0585,-1.067,-1.0711,-1.0721,-1.0721,-1.0721,-1.0721,-1.0721,-2.2866,-2.2866,-2.2866,-2.2866,-2.2866,-2.2866,-2.2866,-2.2866,-2.2866,-2.2839,-2.2806,-2.2839,-2.2665,-2.2452,-2.2345,-2.2225,-2.1984,-2.1795,-2.1648,-2.1621,-2.1621,-2.1396,-2.1162,-2.1189,-2.1182,-2.1149,-2.1109,-2.1102,-2.1096,-2.1076,-2.1062,-2.1082,-2.1042,-2.0995,-2.1069,-2.0795,-2.0681,-2.0635,-2.0441,-2.0301,-2.0187,-2.0247,-2.026,-2.024,-2.0254,-2.0234,-2.0227,-2.014,-2.018,-2.0221,-2.0241,-2.0381,-2.0661,-2.0929,-2.1082,-2.1069,-2.1102,-2.1102,-2.1102,-2.1102,-2.1116,-2.1162,-2.1129,-2.1169,-2.1256,-2.1423,-2.1463,-2.1376,-2.1857,-2.2265,-2.2118,-2.2458,-2.2478,-2.1809,-2.1702,-2.1483,-2.1229,-2.1109,-2.1102,-2.1102,-2.1102,-2.1102,-2.1102,-2.1102,-2.1102,-2.1102,-2.1102,-2.1102,-2.1039,-2.0589,-1.9285,-1.6888,-1.5135,-1.3518,-1.1869,-1.0375,-1.0239,-1.0086,-0.9914,-0.9819,-0.9819,-0.9822,-0.9856,-0.99,-1.0131,-1.0327,-1.0514,-1.0687,-1.069,-1.0721,-1.0721,-1.0721,-1.0721,-1.0721,-1.0721,-2.2866,-2.2866,-2.2866,-2.2866,-2.2866,-2.2866,-2.2866,-2.2866,-2.2866,-2.2866,-2.2866,-2.2866,-2.2812,-2.2686,-2.2519,-2.2485,-2.2619,-2.2285,-2.2044,-2.1884,-2.1857,-2.1704,-2.1496,-2.161,-2.161,-2.1403,-2.1203,-2.1109,-2.1116,-2.1116,-2.1102,-2.1102,-2.1109,-2.1102,-2.1102,-2.1022,-2.0975,-2.0962,-2.0882,-2.0835,-2.0835,-2.0828,-2.0828,-2.0835,-2.0842,-2.0835,-2.0822,-2.0448,-2.0347,-2.0528,-2.0535,-2.0668,-2.0929,-2.1056,-2.1102,-2.1102,-2.1102,-2.1102,-2.1109,-2.1116,-2.1216,-2.1363,-2.141,-2.1523,-2.1677,-2.179,-2.1804,-2.173,-2.2144,-2.2365,-2.2372,-2.2619,-2.2686,-2.2198,-2.1971,-2.173,-2.143,-2.1229,-2.1122,-2.1102,-2.1102,-2.1102,-2.1102,-2.1102,-2.1102,-2.1102,-2.1102,-2.1109,-2.0912,-2.0068,-1.8576,-1.6372,-1.5065,-1.363,-1.1704,-1.0493,-1.0368,-1.0226,-1.0056,-0.9927,-0.99,-0.9897,-0.992,-1.0029,-1.0256,-1.0446,-1.0636,-1.0721,-1.0721,-1.0721,-1.0721,-1.0721,-1.0721,-1.0721,-1.0721,-2.2866,-2.2866,-2.2866,-2.2866,-2.2866,-2.2866,-2.2866,-2.2866,-2.2866,-2.2866,-2.2866,-2.2866,-2.2866,-2.2826,-2.2659,-2.2692,-2.2908,-2.2665,-2.2485,-2.2305,-2.2178,-2.1991,-2.1829,-2.1949,-2.1911,-2.1724,-2.153,-2.1436,-2.1423,-2.1329,-2.1276,-2.1263,-2.1169,-2.1109,-2.1102,-2.1102,-2.1102,-2.1102,-2.1096,-2.1102,-2.1102,-2.1102,-2.1102,-2.1102,-2.1102,-2.1102,-2.1076,-2.0735,-2.0648,-2.0802,-2.0835,-2.0929,-2.1089,-2.1102,-2.1102,-2.1102,-2.1116,-2.1156,-2.1243,-2.1289,-2.1396,-2.1643,-2.1782,-2.1849,-2.1964,-2.2058,-2.2118,-2.2038,-2.2352,-2.2539,-2.2485,-2.2686,-2.2752,-2.2605,-2.2318,-2.1984,-2.1688,-2.1289,-2.1129,-2.1102,-2.1102,-2.1102,-2.1102,-2.1102,-2.1102,-2.1102,-2.1109,-2.0659,-2.0265,-1.9215,-1.7468,-1.5724,-1.4297,-1.273,-1.116,-1.0612,-1.0504,-1.0365,-1.0219,-1.0124,-1.0066,-1.0073,-1.009,-1.0212,-1.0405,-1.05,-1.067,-1.0707,-1.0721,-1.0721,-1.0721,-1.0721,-1.0721,-1.0721,-1.0721,-2.2866,-2.2866,-2.2866,-2.2866,-2.2866,-2.2866,-2.2866,-2.2866,-2.2866,-2.2866,-2.2866,-2.2866,-2.2866,-2.2866,-2.2819,-2.2839,-2.2859,-2.2839,-2.2812,-2.2726,-2.2559,-2.2311,-2.2124,-2.2031,-2.1984,-2.2004,-2.1951,-2.1937,-2.1871,-2.1742,-2.1641,-2.155,-2.1349,-2.1176,-2.1243,-2.1176,-2.1203,-2.1182,-2.1156,-2.1156,-2.1116,-2.1102,-2.1102,-2.1102,-2.1102,-2.1102,-2.1089,-2.1042,-2.1049,-2.1096,-2.1069,-2.1069,-2.1109,-2.1116,-2.1162,-2.1176,-2.1149,-2.1336,-2.1581,-2.1641,-2.1704,-2.1971,-2.2011,-2.2031,-2.2124,-2.2325,-2.2365,-2.2191,-2.2545,-2.2732,-2.2579,-2.2699,-2.2832,-2.2826,-2.2545,-2.2151,-2.1663,-2.1356,-2.1263,-2.1189,-2.1136,-2.1122,-2.1122,-2.1102,-2.0976,-2.0716,-2.0646,-1.9941,-1.864,-1.7532,-1.6431,-1.4944,-1.3325,-1.2215,-1.0777,-1.0677,-1.0578,-1.0534,-1.0399,-1.0314,-1.0232,-1.0229,-1.0256,-1.0382,-1.0497,-1.0592,-1.0653,-1.0697,-1.0721,-1.0721,-1.0721,-1.0721,-1.0721,-1.0721,-1.0721,-2.2866,-2.2866,-2.2866,-2.2866,-2.2866,-2.2866,-2.2866,-2.2866,-2.2866,-2.2866,-2.2866,-2.2866,-2.2866,-2.2866,-2.2866,-2.2866,-2.2866,-2.2866,-2.2866,-2.2853,-2.2799,-2.2719,-2.2539,-2.2191,-2.2111,-2.2258,-2.2131,-2.1984,-2.1984,-2.1917,-2.1871,-2.1871,-2.177,-2.173,-2.175,-2.1717,-2.163,-2.147,-2.1436,-2.1323,-2.1156,-2.1136,-2.1102,-2.1102,-2.1122,-2.1122,-2.1109,-2.1102,-2.1102,-2.1102,-2.1102,-2.1102,-2.1156,-2.1323,-2.1436,-2.1456,-2.1623,-2.177,-2.1844,-2.1877,-2.2011,-2.2265,-2.2305,-2.2398,-2.2619,-2.2692,-2.2706,-2.2652,-2.2867,-2.2832,-2.2766,-2.2806,-2.2859,-2.2894,-2.2612,-2.2298,-2.1964,-2.181,-2.1683,-2.1554,-2.1443,-2.1349,-2.1223,-2.0965,-2.0565,-1.9641,-1.9118,-1.8576,-1.7023,-1.5719,-1.4553,-1.3713,-1.2413,-1.1567,-1.0843,-1.069,-1.0673,-1.0673,-1.0592,-1.0497,-1.0415,-1.0361,-1.0402,-1.048,-1.0578,-1.0673,-1.069,-1.0717,-1.0721,-1.0721,-1.0721,-1.0721,-1.0721,-1.0721,-1.0721,-2.2866,-2.2866,-2.2866,-2.2866,-2.2866,-2.2866,-2.2866,-2.2866,-2.2866,-2.2866,-2.2866,-2.2866,-2.2866,-2.2866,-2.2866,-2.2866,-2.2866,-2.2866,-2.2866,-2.2866,-2.2853,-2.2846,-2.2766,-2.2472,-2.2445,-2.2572,-2.2438,-2.2378,-2.2338,-2.2238,-2.2171,-2.2138,-2.2044,-2.1991,-2.1957,-2.1977,-2.1976,-2.1829,-2.1802,-2.1702,-2.149,-2.1476,-2.1483,-2.1476,-2.1476,-2.1476,-2.1476,-2.1483,-2.143,-2.1336,-2.1303,-2.1349,-2.1483,-2.163,-2.173,-2.1744,-2.1904,-2.2024,-2.2151,-2.2171,-2.2305,-2.2539,-2.2605,-2.2686,-2.2812,-2.2866,-2.2866,-2.2846,-2.2866,-2.2866,-2.2866,-2.2866,-2.2866,-2.2914,-2.2699,-2.2485,-2.2198,-2.2044,-2.1917,-2.1784,-2.1724,-2.1683,-2.1425,-2.0812,-1.9825,-1.8912,-1.7976,-1.6725,-1.5163,-1.3918,-1.2935,-1.2219,-1.1828,-1.1111,-1.0784,-1.0704,-1.0697,-1.0707,-1.0694,-1.0616,-1.0571,-1.05,-1.0541,-1.0599,-1.0673,-1.0721,-1.0721,-1.0721,-1.0721,-1.0721,-1.0721,-1.0721,-1.0721,-1.0721,-1.0721,-2.2866,-2.2866,-2.2866,-2.2866,-2.2866,-2.2866,-2.2866,-2.2866,-2.2866,-2.2866,-2.2866,-2.2866,-2.2866,-2.2866,-2.2866,-2.2866,-2.2866,-2.2866,-2.2866,-2.2866,-2.2866,-2.2866,-2.2853,-2.2799,-2.2772,-2.2812,-2.2853,-2.2812,-2.2719,-2.2552,-2.2478,-2.2425,-2.2231,-2.2118,-2.2184,-2.2138,-2.2071,-2.2044,-2.2031,-2.1977,-2.1897,-2.1877,-2.1864,-2.1871,-2.1877,-2.1891,-2.1904,-2.1924,-2.185,-2.1722,-2.1681,-2.1775,-2.1924,-2.1977,-2.2031,-2.2058,-2.2118,-2.2258,-2.2412,-2.2472,-2.2559,-2.2779,-2.2832,-2.2866,-2.2866,-2.2866,-2.2866,-2.2866,-2.2866,-2.2866,-2.2866,-2.2866,-2.2866,-2.2791,-2.2771,-2.2372,-2.2222,-2.2091,-2.2064,-2.1965,-2.1958,-2.176,-2.1251,-2.0213,-1.8717,-1.7087,-1.6237,-1.5012,-1.3743,-1.2774,-1.1909,-1.124,-1.0979,-1.085,-1.0721,-1.0717,-1.0714,-1.0717,-1.0714,-1.068,-1.068,-1.0649,-1.068,-1.0721,-1.0721,-1.0721,-1.0721,-1.0721,-1.0721,-1.0721,-1.0721,-1.0721,-1.0721,-1.0721,-1.0721,-2.2866,-2.2866,-2.2866,-2.2866,-2.2866,-2.2866,-2.2866,-2.2866,-2.2866,-2.2866,-2.2866,-2.2866,-2.2866,-2.2866,-2.2866,-2.2866,-2.2866,-2.2866,-2.2866,-2.2866,-2.2866,-2.2866,-2.2866,-2.2866,-2.2866,-2.2866,-2.2866,-2.2866,-2.2826,-2.2792,-2.2759,-2.2732,-2.2652,-2.2665,-2.2639,-2.2592,-2.2539,-2.2372,-2.2325,-2.2218,-2.2071,-2.2044,-2.2044,-2.2038,-2.2031,-2.2004,-2.1991,-2.1984,-2.2064,-2.2131,-2.2038,-2.2043,-2.2071,-2.2225,-2.2318,-2.2372,-2.2539,-2.2686,-2.2746,-2.2746,-2.2786,-2.2839,-2.2893,-2.2866,-2.2866,-2.2968,-2.2954,-2.2934,-2.2866,-2.2893,-2.2866,-2.2866,-2.2791,-2.251,-2.1596,-2.0731,-2.0814,-2.1793,-2.2262,-2.1908,-2.095,-2.0068,-1.9814,-1.8194,-1.671,-1.535,-1.4257,-1.3281,-1.2457,-1.1648,-1.1213,-1.0738,-1.0721,-1.0721,-1.0721,-1.0721,-1.0721,-1.0741,-1.0751,-1.0724,-1.0724,-1.0748,-1.0758,-1.0744,-1.0721,-1.0721,-1.0721,-1.0721,-1.0721,-1.0721,-1.0721,-1.0721,-1.0721,-1.0721,-1.0721,-2.2866,-2.2866,-2.2866,-2.2866,-2.2866,-2.2866,-2.2866,-2.2866,-2.2866,-2.2866,-2.2866,-2.2866,-2.2866,-2.2866,-2.2866,-2.2866,-2.2866,-2.2866,-2.2866,-2.2866,-2.2866,-2.2866,-2.2866,-2.2866,-2.2866,-2.2866,-2.2866,-2.2866,-2.2866,-2.2866,-2.2846,-2.2866,-2.2866,-2.2826,-2.2866,-2.2866,-2.2766,-2.2659,-2.2625,-2.2545,-2.2425,-2.2465,-2.2398,-2.2398,-2.2398,-2.2398,-2.2412,-2.2412,-2.2485,-2.2545,-2.2478,-2.2392,-2.2412,-2.2539,-2.2619,-2.2665,-2.2752,-2.2859,-2.2859,-2.2866,-2.2859,-2.2873,-2.2986,-2.3066,-2.3133,-2.3193,-2.32,-2.312,-2.3073,-2.304,-2.2886,-2.2866,-2.2654,-2.1596,-2.0686,-1.9779,-1.9286,-2.0403,-2.1064,-2.0436,-1.9845,-1.917,-1.8241,-1.6495,-1.555,-1.45,-1.3161,-1.2174,-1.1873,-1.1196,-1.0989,-1.0761,-1.0731,-1.0721,-1.0721,-1.0721,-1.0721,-1.0758,-1.0809,-1.0768,-1.0738,-1.0708,-1.0745,-1.0772,-1.0721,-1.0721,-1.0721,-1.0721,-1.0721,-1.0721,-1.0721,-1.0721,-1.0721,-1.0721,-1.0721,-2.2866,-2.2866,-2.2866,-2.2866,-2.2866,-2.2866,-2.2866,-2.2866,-2.2866,-2.2866,-2.2866,-2.2866,-2.2866,-2.2866,-2.2866,-2.2866,-2.2866,-2.2866,-2.2866,-2.2866,-2.2866,-2.2866,-2.2866,-2.2866,-2.2866,-2.2866,-2.2866,-2.2866,-2.2866,-2.2866,-2.2866,-2.2866,-2.2866,-2.2866,-2.2866,-2.2866,-2.2846,-2.2812,-2.2812,-2.2812,-2.2867,-2.2867,-2.2792,-2.2786,-2.2779,-2.2779,-2.2772,-2.2786,-2.2832,-2.2866,-2.2866,-2.2866,-2.2866,-2.2866,-2.2866,-2.2914,-2.2853,-2.2859,-2.2866,-2.2866,-2.2948,-2.2919,-2.3153,-2.334,-2.3427,-2.3547,-2.3554,-2.3447,-2.3333,-2.3193,-2.2973,-2.2392,-2.1609,-2.0473,-1.9773,-1.8438,-1.7599,-1.8299,-1.8213,-1.8073,-1.7891,-1.7426,-1.6462,-1.503,-1.4425,-1.3677,-1.2315,-1.1331,-1.1118,-1.0904,-1.0917,-1.0897,-1.0897,-1.0894,-1.0894,-1.088,-1.086,-1.0867,-1.0914,-1.0884,-1.0839,-1.09,-1.0928,-1.0772,-1.0721,-1.0724,-1.0724,-1.0721,-1.0721,-1.0721,-1.0721,-1.0721,-1.0721,-1.0721,-1.0741,-2.2866,-2.2866,-2.2866,-2.2866,-2.2859,-2.2859,-2.2791,-2.2866,-2.2791,-2.2866,-2.2866,-2.2866,-2.2866,-2.2866,-2.2866,-2.2866,-2.2866,-2.2866,-2.2866,-2.2866,-2.2866,-2.2866,-2.2866,-2.2866,-2.2873,-2.2866,-2.2886,-2.2899,-2.2866,-2.2866,-2.2866,-2.2866,-2.2866,-2.2866,-2.2866,-2.2866,-2.2866,-2.2866,-2.2866,-2.2866,-2.2866,-2.2866,-2.2866,-2.2866,-2.2866,-2.2866,-2.2941,-2.2866,-2.2866,-2.2866,-2.2866,-2.2879,-2.2926,-2.2926,-2.2913,-2.2866,-2.2866,-2.2866,-2.2906,-2.2961,-2.3013,-2.318,-2.3347,-2.3494,-2.3647,-2.3754,-2.3808,-2.3681,-2.3494,-2.3307,-2.3184,-2.1811,-2.0653,-1.9437,-1.7479,-1.5571,-1.5141,-1.5278,-1.6051,-1.6268,-1.5915,-1.542,-1.4503,-1.3733,-1.3124,-1.2708,-1.2037,-1.1423,-1.1287,-1.1168,-1.1107,-1.1101,-1.1176,-1.1176,-1.1176,-1.109,-1.1073,-1.1056,-1.1077,-1.1084,-1.1063,-1.1162,-1.1118,-1.09,-1.0785,-1.0755,-1.0744,-1.0738,-1.0744,-1.0761,-1.0744,-1.0727,-1.0789,-1.0846,-1.0853,-2.2866,-2.2791,-2.1878,-2.1459,-2.1459,-2.1459,-2.1459,-2.1596,-2.2441,-2.2866,-2.2866,-2.2866,-2.2866,-2.2866,-2.2866,-2.2866,-2.2866,-2.2866,-2.2866,-2.2866,-2.2866,-2.2866,-2.2879,-2.2873,-2.2979,-2.306,-2.31,-2.3013,-2.2941,-2.2866,-2.2879,-2.2866,-2.2866,-2.2866,-2.2866,-2.2866,-2.2879,-2.2879,-2.2879,-2.2879,-2.2873,-2.2873,-2.2873,-2.2866,-2.2873,-2.2866,-2.2961,-2.3053,-2.31,-2.314,-2.3253,-2.3313,-2.332,-2.3287,-2.318,-2.2953,-2.2886,-2.2953,-2.3066,-2.3113,-2.3247,-2.3527,-2.3597,-2.3828,-2.3995,-2.4108,-2.4128,-2.3968,-2.367,-2.3117,-2.2022,-2.0946,-1.9549,-1.744,-1.5498,-1.418,-1.334,-1.3039,-1.3741,-1.4662,-1.472,-1.4152,-1.3028,-1.2323,-1.1828,-1.1589,-1.1545,-1.1484,-1.1416,-1.1352,-1.127,-1.1299,-1.1292,-1.1223,-1.1229,-1.1302,-1.124,-1.1236,-1.1243,-1.1246,-1.124,-1.125,-1.1172,-1.1043,-1.0941,-1.087,-1.0809,-1.0816,-1.0812,-1.0819,-1.0843,-1.0873,-1.0931,-1.0972,-1.0982,-2.2866,-2.2791,-2.1314,-2.0686,-2.0686,-2.0686,-2.0756,-2.0969,-2.2297,-2.2866,-2.2866,-2.2866,-2.2866,-2.2866,-2.2866,-2.2866,-2.2866,-2.2866,-2.2866,-2.2886,-2.2959,-2.2966,-2.2966,-2.3053,-2.32,-2.3387,-2.3414,-2.3287,-2.3146,-2.3033,-2.2973,-2.2993,-2.2973,-2.2953,-2.2979,-2.31,-2.3088,-2.3109,-2.3115,-2.3033,-2.2966,-2.2953,-2.2959,-2.2953,-2.2959,-2.2999,-2.3202,-2.33,-2.34,-2.3467,-2.3594,-2.3748,-2.3768,-2.3774,-2.3541,-2.3146,-2.3122,-2.3047,-2.2747,-2.3343,-2.3104,-2.2141,-2.3543,-2.3892,-2.3792,-2.397,-2.4502,-2.4295,-2.4035,-2.3047,-2.1492,-2.0405,-1.8393,-1.5976,-1.4544,-1.3639,-1.2442,-1.1963,-1.2014,-1.2783,-1.325,-1.3099,-1.2183,-1.19,-1.1616,-1.1616,-1.1575,-1.1562,-1.1504,-1.148,-1.1413,-1.1341,-1.1311,-1.1314,-1.1324,-1.1345,-1.1358,-1.1375,-1.1396,-1.1413,-1.1392,-1.1379,-1.1294,-1.1233,-1.1148,-1.1073,-1.0985,-1.0921,-1.0948,-1.0972,-1.0985,-1.1009,-1.1046,-1.1087,-1.1111,-2.2866,-2.2859,-2.2578,-2.2578,-2.2297,-2.216,-2.2441,-2.2304,-2.2647,-2.2866,-2.2866,-2.2866,-2.2866,-2.2866,-2.2866,-2.2866,-2.2866,-2.2906,-2.2919,-2.2953,-2.3153,-2.3267,-2.3244,-2.3561,-2.3304,-2.3119,-2.3274,-2.3779,-2.3453,-2.319,-2.3273,-2.3273,-2.3267,-2.3267,-2.3287,-2.3434,-2.3661,-2.3647,-2.3634,-2.3507,-2.3313,-2.3267,-2.3267,-2.3267,-2.3287,-2.336,-2.3534,-2.3654,-2.3714,-2.3728,-2.3761,-2.3788,-2.3774,-2.3774,-2.3761,-2.3681,-2.3519,-2.2944,-2.1879,-2.247,-2.2369,-2.1187,-2.2203,-2.2919,-2.3273,-2.3812,-2.4609,-2.4529,-2.417,-2.2974,-2.0912,-1.9287,-1.7268,-1.5263,-1.35,-1.2757,-1.1847,-1.1745,-1.1725,-1.167,-1.2499,-1.2334,-1.1688,-1.1688,-1.1616,-1.1616,-1.1613,-1.1599,-1.1582,-1.1555,-1.1541,-1.147,-1.1436,-1.144,-1.1433,-1.145,-1.1457,-1.1491,-1.1511,-1.1541,-1.1518,-1.1494,-1.1538,-1.147,-1.1372,-1.128,-1.1202,-1.1151,-1.1131,-1.1128,-1.1138,-1.1141,-1.1145,-1.1189,-1.126,-1.9629,-1.9565,-1.8503,-1.8078,-1.8223,-1.9206,-1.9704,-2.0126,-2.1941,-2.2866,-2.2866,-2.2866,-2.2866,-2.2859,-2.2866,-2.2866,-2.2968,-2.304,-2.3126,-2.3187,-2.3414,-2.3574,-2.3304,-2.2613,-2.2122,-2.2145,-2.1364,-2.1313,-2.2122,-2.3236,-2.3581,-2.3581,-2.3581,-2.3581,-2.3581,-2.3701,-2.3748,-2.3754,-2.3754,-2.3694,-2.3607,-2.3581,-2.3581,-2.3574,-2.3574,-2.3667,-2.3788,-2.3948,-2.4001,-2.4048,-2.4142,-2.4262,-2.4262,-2.4269,-2.4269,-2.4269,-2.4262,-2.3212,-2.1601,-2.2018,-2.1111,-2.0746,-2.1653,-2.2695,-2.3171,-2.3951,-2.4629,-2.4549,-2.3391,-2.1888,-1.9921,-1.7817,-1.5698,-1.3931,-1.2785,-1.2461,-1.1986,-1.1867,-1.1792,-1.1731,-1.1677,-1.1664,-1.164,-1.1623,-1.1619,-1.1616,-1.1616,-1.1609,-1.1606,-1.1596,-1.1592,-1.1589,-1.1575,-1.1579,-1.1565,-1.1565,-1.1545,-1.1562,-1.1562,-1.1589,-1.1599,-1.1606,-1.1616,-1.1616,-1.1531,-1.1453,-1.1399,-1.1307,-1.1219,-1.1246,-1.1294,-1.1311,-1.1335,-1.1406,-1.1396,-1.5778,-1.5778,-1.5278,-1.5066,-1.5208,-1.662,-1.7323,-1.7674,-2.0126,-2.139,-2.1672,-2.1878,-2.2366,-2.2859,-2.2873,-2.2913,-2.3006,-2.3227,-2.3367,-2.3514,-2.3708,-2.3861,-2.3327,-2.218,-2.1222,-2.116,-1.9669,-1.9963,-2.1316,-2.2148,-2.2579,-2.3816,-2.3881,-2.3881,-2.3895,-2.3988,-2.4062,-2.4062,-2.4055,-2.3988,-2.3901,-2.3881,-2.3881,-2.3875,-2.3881,-2.3908,-2.4015,-2.4175,-2.4302,-2.4349,-2.4462,-2.4549,-2.4563,-2.4543,-2.4549,-2.4549,-2.4543,-2.3507,-2.2031,-2.1405,-2.0677,-2.0014,-2.0836,-2.1492,-2.3332,-2.4099,-2.4099,-2.3722,-2.2645,-2.0594,-1.8265,-1.6353,-1.4846,-1.3497,-1.2415,-1.2316,-1.2145,-1.2043,-1.1942,-1.1874,-1.1809,-1.1714,-1.1687,-1.1643,-1.1623,-1.1619,-1.1616,-1.1616,-1.1616,-1.1616,-1.1616,-1.1616,-1.1616,-1.1616,-1.1616,-1.1616,-1.1616,-1.1616,-1.1616,-1.1616,-1.1616,-1.1616,-1.1616,-1.1616,-1.1616,-1.1586,-1.1508,-1.1396,-1.1307,-1.1385,-1.1457,-1.1501,-1.1548,-1.1603,-1.1541,-1.1972,-1.2255,-1.5566,-1.669,-1.6685,-1.7107,-1.7183,-1.6967,-1.7534,-1.8024,-1.8723,-1.9565,-2.1459,-2.2592,-2.2926,-2.3046,-2.3273,-2.3313,-2.3309,-2.3632,-2.3943,-2.3707,-2.2958,-2.1883,-2.1043,-2.0704,-1.8953,-1.9275,-2.0525,-1.9479,-2.1343,-2.3614,-2.3436,-2.3872,-2.4149,-2.411,-2.4349,-2.4436,-2.4442,-2.4349,-2.4156,-2.4024,-2.3879,-2.3951,-2.405,-2.4295,-2.4476,-2.4476,-2.4549,-2.4549,-2.4603,-2.4629,-2.4629,-2.4629,-2.4629,-2.4629,-2.4179,-2.3072,-2.1594,-2.0607,-1.8456,-1.629,-1.6751,-2.008,-2.2124,-2.3648,-2.3493,-2.213,-2.1141,-1.9322,-1.7127,-1.5306,-1.4072,-1.322,-1.2423,-1.2376,-1.2298,-1.224,-1.2142,-1.2043,-1.1948,-1.1853,-1.1772,-1.1738,-1.1643,-1.163,-1.1619,-1.1616,-1.1616,-1.1616,-1.1616,-1.1616,-1.1616,-1.1616,-1.1616,-1.1616,-1.1616,-1.1616,-1.1616,-1.1616,-1.1616,-1.1616,-1.1616,-1.1616,-1.1616,-1.1616,-1.1613,-1.1518,-1.148,-1.1562,-1.1609,-1.1592,-1.1589,-1.1609,-1.1616,-1.1616,-1.176,-1.317,-1.3733,-1.388,-1.5,-1.5491,-1.5698,-1.6685,-1.7954,-1.8944,-1.9843,-2.1107,-2.2562,-2.3093,-2.32,-2.3374,-2.3741,-2.3158,-2.2529,-2.2423,-2.1882,-2.098,-2.0164,-1.9091,-1.8113,-1.7056,-1.6828,-1.7431,-1.7051,-1.8386,-2.0264,-2.1807,-2.2436,-2.2868,-2.3799,-2.4388,-2.4562,-2.4562,-2.4482,-2.4222,-2.3113,-2.2584,-2.2584,-2.2584,-2.2621,-2.2868,-2.4018,-2.4408,-2.4629,-2.4629,-2.4629,-2.4482,-2.4482,-2.4408,-2.4179,-2.3493,-2.1826,-2.0311,-1.9704,-1.7962,-1.6218,-1.7051,-1.9322,-2.0836,-2.1371,-2.1601,-2.0617,-1.9327,-1.7127,-1.6146,-1.4402,-1.3182,-1.273,-1.2488,-1.2457,-1.242,-1.2359,-1.2308,-1.2196,-1.2088,-1.1986,-1.1911,-1.1843,-1.1735,-1.1643,-1.163,-1.1616,-1.1616,-1.1616,-1.1616,-1.1616,-1.1616,-1.1616,-1.1616,-1.1616,-1.1616,-1.1616,-1.1616,-1.1616,-1.1616,-1.1616,-1.1616,-1.1616,-1.1616,-1.1616,-1.1616,-1.1616,-1.1616,-1.1616,-1.1616,-1.1613,-1.1616,-1.1616,-1.1616,-1.1616,-1.1616,-1.1616,-1.1616,-1.1763,-1.3077,-1.3662,-1.3889,-1.5019,-1.7166,-1.936,-1.9501,-2.0917,-2.2623,-2.334,-2.2956,-2.2814,-2.2724,-2.1885,-2.1139,-2.0361,-1.9774,-1.8874,-1.7891,-1.7056,-1.554,-1.4782,-1.4782,-1.5917,-1.5008,-1.5981,-1.7644,-1.902,-1.9768,-2.113,-2.2583,-2.3944,-2.4408,-2.3951,-2.426,-2.4099,-2.2043,-2.1354,-2.1503,-2.1802,-2.1808,-2.2354,-2.3493,-2.4482,-2.4629,-2.4629,-2.4629,-2.4408,-2.4105,-2.3803,-2.3042,-2.1906,-2.001,-1.8874,-1.7132,-1.6223,-1.4629,-1.6146,-1.8038,-1.902,-1.8945,-1.9553,-1.902,-1.6975,-1.531,-1.4935,-1.3414,-1.2807,-1.2501,-1.2501,-1.2478,-1.2467,-1.2427,-1.24,-1.2342,-1.2233,-1.2128,-1.2071,-1.1989,-1.1813,-1.1701,-1.163,-1.1619,-1.1616,-1.1616,-1.1616,-1.1616,-1.1616,-1.1616,-1.1616,-1.1616,-1.1616,-1.1616,-1.1616,-1.1616,-1.1616,-1.1616,-1.1616,-1.1616,-1.1616,-1.1616,-1.1616,-1.1616,-1.1616,-1.1616,-1.1616,-1.1616,-1.1616,-1.1616,-1.1616,-1.1616,-1.1616,-1.1616,-1.1616,-1.1633,-1.1765,-1.1962,-1.2182,-1.2532,-1.471,-1.7959,-1.8187,-2.0307,-2.295,-2.3488,-2.2675,-2.1661,-2.1355,-2.0301,-1.8958,-1.8612,-1.8492,-1.7659,-1.6599,-1.5769,-1.5085,-1.4402,-1.4399,-1.5157,-1.3791,-1.4253,-1.5008,-1.607,-1.7132,-1.8729,-2.0611,-2.2583,-2.4025,-2.2583,-2.3116,-2.35,-2.1297,-2.0686,-2.0767,-2.1527,-2.1601,-2.1446,-2.3419,-2.4482,-2.4629,-2.4179,-2.4099,-2.4025,-2.2434,-2.1751,-2.1527,-1.9709,-1.8648,-1.8194,-1.4786,-1.334,-1.3186,-1.4859,-1.5917,-1.6294,-1.6904,-1.7663,-1.698,-1.554,-1.4326,-1.3414,-1.2575,-1.2501,-1.2501,-1.2501,-1.2498,-1.2488,-1.2481,-1.245,-1.2433,-1.2359,-1.2274,-1.2227,-1.2135,-1.1925,-1.1779,-1.1664,-1.163,-1.165,-1.1619,-1.1619,-1.1616,-1.1616,-1.1616,-1.1616,-1.1616,-1.1616,-1.1616,-1.1616,-1.1616,-1.1616,-1.1616,-1.1616,-1.1616,-1.1616,-1.1616,-1.1616,-1.1616,-1.1616,-1.1616,-1.1616,-1.1616,-1.1616,-1.1325,-1.0959,-1.1616,-1.1616,-1.1616,-1.1616,-1.164,-1.1769,-1.1833,-1.186,-1.2275,-1.4334,-1.7321,-1.79,-2.0093,-2.2487,-2.2501,-2.1667,-2.1005,-1.9634,-1.8471,-1.6738,-1.6528,-1.554,-1.5008,-1.5161,-1.4705,-1.4099,-1.3641,-1.3564,-1.3414,-1.273,-1.2807,-1.3414,-1.4022,-1.5467,-1.7815,-1.9553,-2.0617,-2.2124,-2.2049,-2.2434,-2.3951,-2.1975,-2.023,-1.993,-2.0916,-2.0991,-2.0155,-2.2732,-2.4179,-2.4105,-2.3574,-2.2657,-2.2279,-2.0692,-1.9704,-1.9252,-1.7659,-1.5845,-1.4935,-1.2958,-1.2652,-1.2807,-1.3186,-1.4326,-1.5387,-1.4633,-1.4859,-1.5008,-1.4249,-1.3337,-1.2652,-1.2579,-1.2501,-1.2501,-1.2501,-1.2501,-1.2494,-1.2494,-1.2484,-1.2481,-1.2433,-1.2359,-1.2301,-1.2284,-1.2115,-1.1976,-1.1874,-1.1786,-1.1782,-1.1674,-1.1626,-1.1619,-1.1616,-1.1616,-1.1616,-1.1616,-1.1616,-1.1616,-1.1616,-1.1616,-1.1616,-1.1616,-1.1616,-1.1616,-1.1616,-1.1616,-1.1616,-1.1616,-1.1616,-1.1616,-1.1616,-1.1397,-1.1178,-1.0449,-0.9502,-1.1616,-1.1616,-1.1616,-1.1616,-1.165,-1.1826,-1.1959,-1.221,-1.2985,-1.518,-1.7625,-1.8216,-1.9852,-2.1758,-2.1261,-1.9627,-1.9191,-1.811,-1.6447,-1.4705,-1.4475,-1.3795,-1.3491,-1.3641,-1.3568,-1.3109,-1.3414,-1.3641,-1.273,-1.2579,-1.2579,-1.2652,-1.2579,-1.3949,-1.6074,-1.7588,-1.9779,-2.1216,-2.1751,-2.2589,-2.3197,-2.2055,-1.9854,-1.9634,-2.0085,-2.0767,-2.0166,-2.1297,-2.3574,-2.2967,-2.19,-2.0617,-2.001,-1.8874,-1.7663,-1.698,-1.5616,-1.3945,-1.2958,-1.273,-1.2501,-1.2579,-1.2501,-1.3109,-1.4095,-1.3491,-1.3568,-1.3568,-1.3032,-1.2804,-1.2501,-1.2501,-1.2501,-1.2501,-1.2501,-1.2501,-1.2501,-1.2501,-1.2501,-1.2501,-1.2491,-1.2423,-1.2383,-1.2372,-1.2311,-1.2199,-1.2094,-1.201,-1.1921,-1.1816,-1.1714,-1.1697,-1.1674,-1.167,-1.1653,-1.1616,-1.1616,-1.1616,-1.1616,-1.1616,-1.1616,-1.1616,-1.1616,-1.1616,-1.1616,-1.1616,-1.1616,-1.1616,-1.1616,-1.1616,-1.1616,-1.1253,-1.0812,-0.972,-0.8485,-1.1616,-1.1616,-1.1616,-1.1616,-1.1667,-1.1921,-1.2206,-1.2625,-1.4383,-1.6348,-1.832,-1.821,-1.9388,-2.0641,-1.9387,-1.763,-1.6187,-1.568,-1.4399,-1.3263,-1.3109,-1.2656,-1.2579,-1.273,-1.2804,-1.2652,-1.273,-1.3032,-1.2501,-1.2501,-1.2501,-1.2501,-1.2501,-1.3112,-1.4326,-1.6375,-1.8945,-2.0386,-2.1527,-2.2664,-2.3574,-2.1676,-1.993,-1.9629,-2.0241,-2.001,-1.9634,-2.0236,-2.1216,-2.0841,-1.9629,-1.8874,-1.7891,-1.6523,-1.5765,-1.4935,-1.3491,-1.2958,-1.2575,-1.2501,-1.2532,-1.2542,-1.2539,-1.2596,-1.2652,-1.273,-1.2881,-1.2958,-1.2652,-1.2575,-1.2501,-1.2501,-1.2501,-1.2501,-1.2501,-1.2501,-1.2501,-1.2501,-1.2501,-1.2501,-1.2501,-1.2471,-1.2464,-1.2457,-1.2423,-1.2383,-1.2281,-1.2227,-1.2132,-1.2016,-1.1918,-1.1837,-1.1806,-1.1748,-1.1711,-1.1653,-1.1616,-1.1616,-1.1616,-1.1616,-1.1616,-1.1616,-1.1616,-1.1616,-1.1616,-1.1616,-1.1616,-1.1616,-1.1616,-1.1616,-1.1616,-1.074,-1.0083,-0.885,-0.7544,-1.1616,-1.1616,-1.1616,-1.1616,-1.1664,-1.1935,-1.223,-1.2632,-1.3263,-1.4556,-1.6371,-1.6375,-1.7734,-1.9171,-1.736,-1.6146,-1.5161,-1.4176,-1.3259,-1.2652,-1.2501,-1.2501,-1.2501,-1.2501,-1.2501,-1.2501,-1.2501,-1.2501,-1.2501,-1.2501,-1.2501,-1.2501,-1.2501,-1.2501,-1.3414,-1.5157,-1.7512,-1.9478,-2.0841,-2.2664,-2.3951,-2.2887,-2.0916,-1.986,-2.0391,-1.9553,-1.7962,-1.8492,-1.9322,-1.9101,-1.7431,-1.6447,-1.6223,-1.4552,-1.3337,-1.334,-1.273,-1.2501,-1.2501,-1.2501,-1.2552,-1.264,-1.2664,-1.2589,-1.2545,-1.2522,-1.2522,-1.2508,-1.2501,-1.2501,-1.2501,-1.2501,-1.2501,-1.2501,-1.2501,-1.2501,-1.2501,-1.2501,-1.2501,-1.2501,-1.2501,-1.2501,-1.2501,-1.2494,-1.2467,-1.2478,-1.2457,-1.2396,-1.2328,-1.221,-1.2101,-1.2013,-1.1904,-1.184,-1.1755,-1.1694,-1.165,-1.1616,-1.1616,-1.1616,-1.1616,-1.1616,-1.1616,-1.1616,-1.1616,-1.1616,-1.1616,-1.1616,-1.1616,-1.1616,-1.1472,-1.0377,-0.9285,-0.8052,-0.6241,-1.1616,-1.1616,-1.1616,-1.1684,-1.1816,-1.1986,-1.2227,-1.2618,-1.334,-1.4479,-1.5387,-1.554,-1.6223,-1.6828,-1.5314,-1.4253,-1.4099,-1.3263,-1.2575,-1.2575,-1.2501,-1.2501,-1.2501,-1.2501,-1.2501,-1.2501,-1.2501,-1.2501,-1.2501,-1.2501,-1.2501,-1.2501,-1.2501,-1.2501,-1.3414,-1.5387,-1.736,-1.9025,-2.0617,-2.2583,-2.3648,-2.387,-2.1371,-1.9634,-2.016,-1.8189,-1.6066,-1.7051,-1.7284,-1.7056,-1.5387,-1.4326,-1.4253,-1.3109,-1.2575,-1.2652,-1.2579,-1.2545,-1.2586,-1.2603,-1.2684,-1.2773,-1.2817,-1.2779,-1.2708,-1.2671,-1.2586,-1.2522,-1.2511,-1.2501,-1.2501,-1.2501,-1.2501,-1.2501,-1.2501,-1.2501,-1.2501,-1.2501,-1.2501,-1.2501,-1.2501,-1.2501,-1.2501,-1.2501,-1.2501,-1.2498,-1.2494,-1.2474,-1.243,-1.2369,-1.2264,-1.2169,-1.2033,-1.1918,-1.183,-1.1742,-1.1674,-1.1633,-1.1616,-1.1616,-1.1619,-1.1619,-1.1623,-1.1619,-1.1616,-1.1616,-1.1616,-1.1616,-1.1616,-1.1616,-1.1397,-1.0449,-0.9067,-0.7327,-0.5227,-1.1616,-1.1616,-1.1619,-1.1779,-1.2037,-1.206,-1.223,-1.2713,-1.4172,-1.5157,-1.5161,-1.5157,-1.5085,-1.4935,-1.3641,-1.2958,-1.2958,-1.2652,-1.2501,-1.2501,-1.2501,-1.2501,-1.2501,-1.2501,-1.2501,-1.2501,-1.2501,-1.2501,-1.2501,-1.2501,-1.2501,-1.2501,-1.2501,-1.2501,-1.3035,-1.5161,-1.706,-1.8723,-2.0236,-2.1981,-2.3339,-2.2732,-2.0686,-1.8945,-1.8265,-1.7284,-1.5765,-1.5234,-1.5238,-1.4629,-1.3872,-1.2807,-1.2652,-1.2652,-1.2579,-1.2525,-1.2535,-1.2603,-1.2681,-1.2722,-1.2834,-1.2918,-1.3056,-1.2963,-1.2905,-1.2759,-1.2644,-1.2573,-1.2556,-1.2511,-1.2501,-1.2501,-1.2501,-1.2501,-1.2501,-1.2501,-1.2501,-1.2501,-1.2501,-1.2501,-1.2501,-1.2501,-1.2501,-1.2501,-1.2501,-1.2501,-1.2501,-1.2501,-1.2488,-1.2461,-1.24,-1.2301,-1.2176,-1.2033,-1.1898,-1.1806,-1.1701,-1.1653,-1.1657,-1.166,-1.1694,-1.1667,-1.1626,-1.1647,-1.1667,-1.163,-1.1616,-1.1619,-1.1619,-1.1616,-1.1253,-1.0593,-0.9069,-0.7183,-0.5011,-1.1616,-1.1616,-1.1616,-1.1789,-1.2118,-1.206,-1.223,-1.2494,-1.2958,-1.334,-1.3263,-1.3259,-1.3337,-1.3263,-1.2881,-1.2501,-1.2501,-1.2501,-1.2501,-1.2501,-1.2501,-1.2501,-1.2501,-1.2501,-1.2501,-1.2501,-1.2501,-1.2501,-1.2501,-1.2501,-1.2501,-1.2501,-1.2501,-1.2501,-1.2579,-1.4633,-1.6223,-1.8421,-1.9629,-2.1601,-2.3574,-2.2509,-2.0686,-1.8643,-1.7279,-1.5387,-1.4022,-1.3337,-1.3263,-1.2958,-1.2807,-1.2579,-1.2501,-1.2501,-1.2501,-1.2518,-1.26,-1.2681,-1.2762,-1.2851,-1.2976,-1.3071,-1.3125,-1.3122,-1.3041,-1.2847,-1.2718,-1.2657,-1.2603,-1.2556,-1.2515,-1.2515,-1.2505,-1.2505,-1.2501,-1.2501,-1.2501,-1.2501,-1.2501,-1.2501,-1.2501,-1.2501,-1.2501,-1.2501,-1.2501,-1.2501,-1.2501,-1.2501,-1.2501,-1.2484,-1.2481,-1.2396,-1.2311,-1.2176,-1.2026,-1.1901,-1.1813,-1.1782,-1.1792,-1.1786,-1.1779,-1.1755,-1.1731,-1.1725,-1.1721,-1.1704,-1.1674,-1.1623,-1.1623,-1.1623,-1.1472,-1.0887,-0.9285,-0.7402,-0.5155,-1.1616,-1.1616,-1.1619,-1.1792,-1.203,-1.206,-1.223,-1.2467,-1.2501,-1.2501,-1.2501,-1.2501,-1.2501,-1.2501,-1.2501,-1.2501,-1.2501,-1.2501,-1.2501,-1.2501,-1.2501,-1.2501,-1.2501,-1.2501,-1.2501,-1.2501,-1.2501,-1.2501,-1.2501,-1.2501,-1.2501,-1.2501,-1.2501,-1.2501,-1.273,-1.4022,-1.5922,-1.8497,-1.9176,-2.0916,-2.2967,-2.1297,-1.9247,-1.7279,-1.531,-1.3641,-1.3109,-1.2501,-1.2501,-1.2501,-1.2501,-1.2501,-1.2501,-1.2501,-1.2501,-1.2542,-1.2627,-1.2759,-1.2847,-1.2973,-1.3115,-1.321,-1.3271,-1.3268,-1.3247,-1.3071,-1.2922,-1.2857,-1.281,-1.2762,-1.2661,-1.263,-1.2562,-1.2532,-1.2511,-1.2501,-1.2501,-1.2501,-1.2501,-1.2501,-1.2501,-1.2501,-1.2501,-1.2501,-1.2501,-1.2501,-1.2501,-1.2501,-1.2501,-1.2501,-1.2501,-1.2478,-1.2383,-1.2308,-1.2186,-1.206,-1.1952,-1.1935,-1.1932,-1.1938,-1.1938,-1.1881,-1.1843,-1.1867,-1.1864,-1.182,-1.1779,-1.1714,-1.1643,-1.163,-1.1479,-1.1253,-0.9507,-0.7765,-0.5736,-1.1616,-1.1616,-1.1616,-1.1779,-1.2091,-1.2057,-1.2216,-1.2444,-1.2491,-1.2501,-1.2501,-1.2501,-1.2501,-1.2501,-1.2501,-1.2501,-1.2501,-1.2501,-1.2501,-1.2501,-1.2501,-1.2501,-1.2501,-1.2501,-1.2501,-1.2501,-1.2501,-1.2501,-1.2501,-1.2501,-1.2501,-1.2501,-1.2501,-1.2501,-1.3645,-1.5314,-1.736,-1.7967,-1.8723,-2.008,-2.0005,-1.9252,-1.7431,-1.5463,-1.3722,-1.2652,-1.2501,-1.2525,-1.2525,-1.2562,-1.2589,-1.262,-1.2596,-1.2596,-1.2596,-1.2637,-1.2725,-1.2857,-1.2976,-1.3122,-1.3254,-1.3353,-1.339,-1.3386,-1.3356,-1.3275,-1.3125,-1.3051,-1.3003,-1.2874,-1.2773,-1.2678,-1.26,-1.2539,-1.2518,-1.2501,-1.2501,-1.2501,-1.2501,-1.2501,-1.2501,-1.2501,-1.2501,-1.2501,-1.2501,-1.2501,-1.2501,-1.2501,-1.2501,-1.2501,-1.2501,-1.2484,-1.243,-1.2359,-1.2288,-1.221,-1.2088,-1.2088,-1.2091,-1.2098,-1.2162,-1.2016,-1.1999,-1.2057,-1.204,-1.1959,-1.1887,-1.1826,-1.1752,-1.1674,-1.1554,-1.1329,-1.038,-0.8634,-0.6606,-1.1616,-1.1616,-1.1616,-1.1721,-1.1884,-1.2003,-1.2166,-1.2332,-1.2454,-1.2501,-1.2501,-1.2501,-1.2501,-1.2501,-1.2501,-1.2501,-1.2501,-1.2501,-1.2501,-1.2501,-1.2501,-1.2501,-1.2501,-1.2501,-1.2501,-1.2501,-1.2501,-1.2501,-1.2501,-1.2501,-1.2501,-1.2501,-1.2501,-1.2501,-1.2652,-1.4253,-1.5238,-1.6299,-1.6751,-1.7355,-1.7056,-1.6451,-1.6146,-1.4782,-1.3568,-1.2881,-1.2528,-1.2627,-1.2671,-1.2722,-1.2783,-1.282,-1.28,-1.2742,-1.2742,-1.279,-1.2874,-1.2966,-1.3102,-1.3241,-1.3363,-1.338,-1.34,-1.3397,-1.338,-1.3376,-1.3268,-1.322,-1.3112,-1.2868,-1.2739,-1.2651,-1.2573,-1.2532,-1.2501,-1.2501,-1.2501,-1.2501,-1.2501,-1.2501,-1.2501,-1.2501,-1.2501,-1.2501,-1.2501,-1.2501,-1.2501,-1.2501,-1.2501,-1.2501,-1.2501,-1.2481,-1.2461,-1.2389,-1.2311,-1.2315,-1.2244,-1.2244,-1.225,-1.2264,-1.2233,-1.2142,-1.222,-1.2213,-1.2159,-1.2071,-1.2003,-1.1965,-1.1853,-1.1775,-1.1667,-1.1329,-1.0524,-0.8997,-0.6534]}]]